[[{"header":{"parameterUnit":"m.s-1","parameterCategory":1,"la1":30.6,"la2":29.2853,"lo1":-89.7004,"lo2":-87.6739,"dy":0.0162,"dx":0.0183,"nx":112,"ny":82,"refTime":"2023-10-06T12:00:00:Z","depth":0,"parameterNumber":2,"parameterNumberName":"U-component_of_WINDS"},"data":[0.0,0.0,0.0,0.0,0.0,0.0,0.0,0.0,0.0,0.0,0.0,0.0,0.0,0.0,0.0,0.0,0.0,0.0,0.0,0.0,0.0,0.0,0.0,0.0,0.0,0.0,0.0,0.0,0.0,0.0,0.0,0.0,0.0,0.0,0.0,0.0,0.0,0.0,0.0,0.0,0.0,0.0,0.0,0.0,0.0,0.0,0.0,0.0,0.0,0.0,0.0,0.0,0.0,0.0,0.0,0.0,0.0,0.0,0.0,0.0,0.0,0.0,0.0,0.0,0.0,0.0,0.0,0.0,0.0,0.0,0.0,0.0,0.0,0.0,0.0,0.0,0.0,0.0,0.0,0.0,0.0,0.0,0.0,0.0,0.0,0.0,0.0,0.0,0.0,0.0,1.7923,2.0039,2.4894,2.825,2.8948,2.888,2.7352,2.4017,0.0,0.0,0.0,0.0,0.0,0.0,0.0,0.0,0.0,0.0,0.0,0.0,0.0,0.0,0.0,0.0,0.0,0.0,0.0,0.0,0.0,0.0,0.0,0.0,0.0,0.0,0.0,0.0,0.0,0.0,0.0,0.0,0.0,0.0,0.0,0.0,0.0,0.0,0.0,0.0,0.0,0.0,0.0,0.0,0.0,0.0,0.0,0.0,0.0,0.0,0.0,0.0,0.0,0.0,0.0,0.0,0.0,0.0,0.0,0.0,0.0,0.0,0.0,0.0,0.0,0.0,0.0,0.0,0.0,0.0,0.0,0.0,0.0,0.0,0.0,0.0,0.0,0.0,0.0,0.0,0.0,0.0,0.0,0.0,0.0,0.0,0.0,0.0,0.0,0.0,0.0,0.0,0.0,0.0,0.0,0.0,0.0,0.0,0.0,0.0,0.0,0.0,0.0,0.0,2.0381,2.4236,2.6053,2.7065,2.7181,2.6448,2.512,2.3042,0.0,0.0,0.0,0.0,0.0,0.0,0.0,0.0,0.0,0.0,0.0,0.0,0.0,0.0,0.0,0.0,0.0,0.0,0.0,0.0,0.0,0.0,0.0,0.0,0.0,0.0,0.0,0.0,0.0,0.0,0.0,0.0,0.0,0.0,0.0,0.0,0.0,0.0,0.0,0.0,0.0,0.0,0.0,0.0,0.0,0.0,0.0,0.0,0.0,0.0,0.0,0.0,0.0,0.0,0.0,0.0,0.0,0.0,0.0,0.0,0.0,0.0,0.0,0.0,0.0,0.0,0.0,0.0,0.0,0.0,0.0,0.0,0.0,0.0,0.0,0.0,0.0,0.0,0.0,0.0,0.0,0.0,0.0,0.0,0.0,0.0,0.0,0.0,0.0,0.0,0.0,0.0,0.0,0.0,0.0,0.0,0.0,0.0,0.0,0.0,0.0,0.0,0.0,1.9439,2.1538,2.5793,2.6554,2.6929,2.7372,2.614,2.4744,2.3336,2.2699,0.0,0.0,0.0,0.0,0.0,0.0,0.0,0.0,0.0,0.0,0.0,0.0,0.0,0.0,0.0,0.0,0.0,0.0,0.0,0.0,0.0,0.0,0.0,0.0,0.0,0.0,0.0,0.0,0.0,0.0,0.0,0.0,0.0,0.0,0.0,0.0,0.0,0.0,0.0,0.0,0.0,0.0,0.0,0.0,0.0,0.0,0.0,0.0,0.0,0.0,0.0,0.0,0.0,0.0,0.0,0.0,0.0,0.0,0.0,0.0,0.0,0.0,0.0,0.0,0.0,0.0,0.0,0.0,0.0,0.0,0.0,0.0,0.0,0.0,0.0,0.0,0.0,0.0,0.0,0.0,0.0,0.0,0.0,0.0,0.0,0.0,0.0,0.0,0.0,0.0,0.0,0.0,0.0,0.0,0.0,0.0,0.0,0.0,0.0,0.0,0.0,0.0,2.1269,2.2404,2.6071,2.642,2.6631,2.7238,2.588,2.4549,2.3461,2.1959,0.0,0.0,0.0,0.0,0.0,0.0,0.0,0.0,0.0,0.0,0.0,0.0,0.0,0.0,0.0,0.0,0.0,0.0,0.0,0.0,0.0,0.0,0.0,0.0,0.0,0.0,0.0,0.0,0.0,0.0,0.0,0.0,0.0,0.0,0.0,0.0,0.0,0.0,0.0,0.0,0.0,0.0,0.0,0.0,0.0,0.0,0.0,0.0,0.0,0.0,0.0,0.0,0.0,0.0,0.0,0.0,0.0,0.0,0.0,0.0,0.0,0.0,0.0,0.0,0.0,0.0,0.0,0.0,0.0,0.0,0.0,0.0,0.0,0.0,0.0,0.0,0.0,0.0,0.0,0.0,0.0,0.0,0.0,0.0,0.0,0.0,0.0,0.0,0.0,0.0,0.0,0.0,0.0,0.0,0.0,0.0,0.0,0.0,0.0,0.0,0.0,0.0,2.2308,2.343,2.5303,2.5495,2.5495,2.5486,2.4678,2.3697,2.2564,2.1625,0.0,0.0,0.0,0.0,0.0,0.0,0.0,0.0,0.0,0.0,0.0,0.0,0.0,0.0,0.0,0.0,0.0,0.0,0.0,0.0,0.0,0.0,0.0,0.0,0.0,0.0,0.0,0.0,0.0,0.0,0.0,0.0,0.0,0.0,0.0,0.0,0.0,0.0,0.0,0.0,0.0,0.0,0.0,0.0,0.0,0.0,0.0,0.0,0.0,0.0,0.0,0.0,0.0,0.0,0.0,0.0,0.0,0.0,0.0,0.0,0.0,0.0,0.0,0.0,0.0,0.0,0.0,0.0,0.0,0.0,0.0,0.0,0.0,0.0,0.0,0.0,0.0,0.0,0.0,0.0,0.0,0.0,0.0,0.0,0.0,0.0,0.0,0.0,0.0,0.0,0.0,0.0,0.0,0.0,0.0,0.0,0.0,0.0,0.0,0.0,0.0,0.0,2.1891,2.2932,2.5168,2.5351,2.5322,2.5303,2.3995,2.3135,2.3082,0.0,0.0,0.0,0.0,0.0,0.0,0.0,0.0,0.0,0.0,0.0,0.0,0.0,0.0,0.0,0.0,0.0,0.0,0.0,0.0,0.0,0.0,0.0,0.0,0.0,0.0,0.0,0.0,0.0,0.0,0.0,0.0,0.0,0.0,0.0,0.0,0.0,0.0,0.0,0.0,0.0,0.0,0.0,0.0,0.0,0.0,0.0,0.0,0.0,0.0,0.0,0.0,0.0,0.0,0.0,0.0,0.0,0.0,0.0,0.0,0.0,0.0,0.0,0.0,0.0,0.0,0.0,0.0,0.0,0.0,0.0,0.0,0.0,0.0,0.0,0.0,0.0,0.0,0.0,0.0,0.0,0.0,0.0,0.0,0.0,0.0,0.0,0.0,0.0,0.0,0.0,0.0,0.0,0.0,0.0,0.0,0.0,0.0,0.0,0.0,0.0,0.0,2.176,2.1999,2.2866,2.5129,2.5293,2.5128,2.4889,2.3424,2.2688,2.3027,0.0,0.0,0.0,0.0,0.0,0.0,0.0,0.0,0.0,0.0,0.0,0.0,0.0,0.0,0.0,0.0,0.0,0.0,0.0,0.0,0.0,0.0,0.0,0.0,0.0,0.0,0.0,0.0,0.0,0.0,0.0,0.0,0.0,0.0,0.0,0.0,0.0,0.0,0.0,0.0,0.0,0.0,0.0,0.0,0.0,0.0,0.0,0.0,0.0,0.0,0.0,0.0,0.0,0.0,0.0,0.0,0.0,0.0,0.0,0.0,0.0,0.0,0.0,0.0,0.0,0.0,0.0,0.0,0.0,0.0,0.0,0.0,0.0,0.0,0.0,0.0,0.0,0.0,0.0,0.0,0.0,0.0,0.0,0.0,0.0,0.0,0.0,0.0,0.0,0.0,0.0,0.0,0.0,0.0,0.0,0.0,0.0,0.0,0.0,0.0,0.0,0.0,2.259,2.2866,2.3529,2.5139,2.5182,2.4771,2.3971,2.2977,2.2312,0.0,0.0,0.0,0.0,0.0,0.0,0.0,0.0,0.0,0.0,0.0,0.0,0.0,0.0,0.0,0.0,0.0,0.0,0.0,0.0,0.0,0.0,0.0,0.0,0.0,0.0,0.0,0.0,0.0,0.0,0.0,0.0,0.0,0.0,0.0,0.0,0.0,0.0,0.0,0.0,0.0,0.0,0.0,0.0,0.0,0.0,0.0,0.0,0.0,0.0,0.0,0.0,0.0,0.0,0.0,0.0,0.0,0.0,0.0,0.0,0.0,0.0,0.0,0.0,0.0,0.0,0.0,0.0,0.0,0.0,0.0,0.0,0.0,0.0,0.0,0.0,0.0,0.0,0.0,0.0,0.0,0.0,0.0,0.0,0.0,0.0,0.0,0.0,0.0,0.0,0.0,0.0,0.0,0.0,0.0,0.0,0.0,0.0,0.0,0.0,0.0,0.0,0.0,2.2673,2.286,2.3523,2.5196,2.5214,2.4774,2.3971,2.2886,2.2464,2.2914,0.0,0.0,0.0,0.0,0.0,0.0,0.0,0.0,0.0,0.0,0.0,0.0,0.0,0.0,0.0,0.0,0.0,0.0,0.0,0.0,0.0,0.0,0.0,0.0,0.0,0.0,0.0,0.0,0.0,0.0,0.0,0.0,0.0,0.0,0.0,0.0,0.0,0.0,0.0,0.0,0.0,0.0,0.0,0.0,0.0,0.0,0.0,0.0,0.0,0.0,0.0,0.0,0.0,0.0,0.0,0.0,0.0,0.0,0.0,0.0,0.0,0.0,0.0,0.0,0.0,0.0,0.0,0.0,0.0,0.0,0.0,0.0,0.0,0.0,0.0,0.0,0.0,0.0,0.0,0.0,0.0,0.0,0.0,0.0,0.0,0.0,0.0,0.0,0.0,0.0,0.0,0.0,0.0,0.0,0.0,0.0,0.0,0.0,0.0,0.0,0.0,0.0,2.2658,2.2763,2.3426,2.5111,2.5072,2.462,2.3809,2.2749,2.2451,2.3194,0.0,0.0,0.0,0.0,0.0,0.0,0.0,0.0,0.0,0.0,0.0,0.0,0.0,0.0,0.0,0.0,0.0,0.0,0.0,0.0,0.0,0.0,0.0,0.0,0.0,0.0,0.0,0.0,0.0,0.0,0.0,0.0,0.0,0.0,0.0,0.0,0.0,0.0,0.0,0.0,0.0,0.0,0.0,0.0,0.0,0.0,0.0,0.0,0.0,0.0,0.0,0.0,0.0,0.0,0.0,0.0,0.0,0.0,0.0,0.0,0.0,0.0,0.0,0.0,0.0,0.0,0.0,0.0,0.0,0.0,0.0,0.0,0.0,0.0,0.0,0.0,0.0,0.0,0.0,0.0,0.0,0.0,0.0,0.0,0.0,0.0,0.0,0.0,0.0,0.0,0.0,0.0,0.0,0.0,0.0,0.0,0.0,0.0,0.0,0.0,0.0,0.0,2.2604,2.2642,2.3245,2.4908,2.4855,2.4369,2.3577,2.2644,2.2425,2.3135,0.0,0.0,0.0,0.0,0.0,0.0,0.0,0.0,0.0,0.0,0.0,0.0,0.0,0.0,0.0,0.0,0.0,0.0,0.0,0.0,0.0,0.0,0.0,0.0,0.0,0.0,0.0,0.0,0.0,0.0,0.0,0.0,0.0,0.0,0.0,0.0,0.0,0.0,0.0,0.0,0.0,0.0,0.0,0.0,0.0,0.0,0.0,0.0,0.0,0.0,0.0,0.0,0.0,0.0,0.0,0.0,0.0,0.0,0.0,0.0,2.3005,2.259,0.0,0.0,0.0,0.0,0.0,0.0,0.0,0.0,0.0,0.0,0.0,0.0,0.0,0.0,0.0,0.0,0.0,0.0,0.0,0.0,0.0,0.0,0.0,0.0,0.0,0.0,0.0,0.0,0.0,0.0,0.0,0.0,0.0,0.0,0.0,0.0,0.0,0.0,0.0,0.0,2.252,2.2612,2.3283,2.4853,2.4828,2.4362,2.3577,2.3167,2.3019,2.3172,2.2722,0.0,0.0,0.0,0.0,0.0,0.0,0.0,0.0,0.0,0.0,0.0,0.0,0.0,0.0,0.0,0.0,0.0,0.0,0.0,0.0,0.0,0.0,0.0,0.0,0.0,0.0,0.0,0.0,0.0,0.0,0.0,0.0,0.0,0.0,0.0,0.0,0.0,0.0,0.0,0.0,0.0,0.0,0.0,0.0,0.0,0.0,0.0,0.0,0.0,0.0,0.0,0.0,0.0,0.0,0.0,0.0,0.0,0.0,0.0,2.5608,2.4173,0.0,0.0,0.0,0.0,0.0,0.0,0.0,0.0,0.0,0.0,0.0,0.0,0.0,0.0,0.0,0.0,0.0,0.0,0.0,0.0,0.0,0.0,0.0,0.0,0.0,0.0,0.0,0.0,0.0,0.0,0.0,0.0,0.0,0.0,0.0,0.0,0.0,0.0,0.0,0.0,2.3031,2.3068,2.3555,2.4763,2.4716,2.4425,2.4017,2.351,2.3388,2.3798,2.318,0.0,0.0,0.0,0.0,0.0,0.0,0.0,0.0,0.0,0.0,0.0,0.0,0.0,0.0,0.0,0.0,0.0,0.0,0.0,0.0,0.0,0.0,0.0,0.0,0.0,0.0,0.0,0.0,0.0,0.0,0.0,0.0,0.0,0.0,0.0,0.0,0.0,0.0,0.0,0.0,0.0,0.0,0.0,0.0,0.0,0.0,0.0,0.0,0.0,0.0,0.0,0.0,0.0,3.275,3.2902,3.3384,3.3437,3.3553,3.3412,2.9126,2.69,2.629,2.6112,0.0,0.0,0.0,0.0,0.0,0.0,0.0,0.0,0.0,0.0,0.0,0.0,0.0,0.0,0.0,0.0,0.0,0.0,0.0,0.0,0.0,0.0,2.6891,2.7086,2.7687,2.7801,2.6303,0.0,0.0,0.0,0.0,0.0,0.0,0.0,0.0,0.0,0.0,0.0,2.3617,2.3558,2.3851,2.4685,2.4596,2.45,2.45,2.3832,2.3739,2.4444,2.3621,2.3381,0.0,0.0,0.0,0.0,0.0,0.0,0.0,0.0,0.0,0.0,0.0,0.0,0.0,0.0,0.0,0.0,0.0,0.0,0.0,0.0,0.0,0.0,0.0,0.0,0.0,0.0,0.0,0.0,0.0,0.0,0.0,0.0,2.5147,2.5098,0.0,0.0,0.0,0.0,0.0,0.0,0.0,0.0,0.0,0.0,0.0,0.0,0.0,2.8809,2.9747,3.1881,3.4082,3.6252,3.5277,3.4837,3.491,3.4975,3.5488,3.6219,3.4861,0.0,2.9815,2.8424,0.0,0.0,0.0,0.0,0.0,0.0,0.0,0.0,0.0,0.0,0.0,0.0,0.0,0.0,0.0,0.0,0.0,0.0,0.0,0.0,0.0,0.0,2.7166,2.7928,2.8201,2.8218,2.7907,2.7207,2.6398,2.5661,2.5453,2.5397,0.0,0.0,0.0,0.0,0.0,0.0,2.3619,2.3645,2.3915,2.4551,2.4549,2.45,2.45,2.4388,2.4388,2.4481,2.4353,2.4192,2.4002,2.38,0.0,0.0,0.0,0.0,0.0,0.0,0.0,0.0,0.0,0.0,0.0,0.0,0.0,0.0,0.0,0.0,0.0,0.0,0.0,0.0,0.0,0.0,0.0,0.0,0.0,0.0,0.0,0.0,0.0,2.5867,2.5933,2.5367,2.5348,2.5427,0.0,0.0,0.0,0.0,0.0,0.0,0.0,0.0,0.0,3.0794,3.1573,3.2564,3.3815,3.4917,3.6619,3.8914,3.8415,3.8708,3.9702,3.9692,3.997,4.0405,3.9605,3.817,3.617,3.2558,3.0307,2.9045,0.0,0.0,0.0,0.0,2.7346,2.7736,2.7776,2.7763,2.7731,2.7615,0.0,0.0,0.0,0.0,0.0,0.0,0.0,2.7735,2.8184,2.9019,2.985,3.0278,3.0749,3.0833,2.9829,2.9244,2.8531,2.7215,2.6513,2.61,2.6034,2.555,0.0,0.0,0.0,2.4379,2.4298,2.4228,2.4291,2.4526,2.4515,2.45,2.45,2.45,2.45,2.45,2.45,2.4429,2.4284,2.4248,2.4154,0.0,0.0,0.0,0.0,0.0,0.0,0.0,0.0,0.0,0.0,0.0,0.0,0.0,0.0,0.0,0.0,0.0,0.0,0.0,0.0,0.0,0.0,0.0,0.0,0.0,0.0,0.0,0.0,2.6752,2.7061,2.5409,2.5551,2.5836,0.0,0.0,0.0,0.0,0.0,0.0,3.0372,3.124,3.2704,3.4947,3.5445,3.6358,3.7769,3.8209,3.9444,4.1418,4.1694,4.2517,4.3813,4.3833,4.3879,4.3947,4.3141,4.251,4.1621,3.6445,3.3468,3.2026,3.0936,3.0096,2.952,2.9464,2.9873,3.0392,3.0243,3.0173,3.0054,2.9416,2.8756,2.8023,2.7083,0.0,0.0,0.0,0.0,2.9703,2.9999,3.0984,3.1988,3.2259,3.2836,3.2999,3.1903,3.1468,3.0646,2.851,2.7516,2.6929,2.6622,2.6014,0.0,2.5404,2.5311,2.5289,2.5423,2.517,2.493,2.4847,2.4628,2.45,2.45,2.45,2.45,2.45,2.45,2.45,2.45,2.4447,2.4412,2.4394,0.0,0.0,0.0,0.0,0.0,0.0,0.0,0.0,0.0,0.0,0.0,0.0,0.0,0.0,0.0,0.0,0.0,0.0,0.0,0.0,0.0,0.0,0.0,0.0,0.0,0.0,0.0,0.0,0.0,2.5677,2.6206,0.0,0.0,0.0,0.0,3.1597,3.1526,3.2154,3.3774,3.4683,3.5871,3.7462,3.9107,4.0387,4.1227,4.2871,4.379,4.3944,4.4889,4.5391,4.5484,4.5667,4.5793,4.5807,4.5013,4.4727,4.4403,3.9231,3.6557,3.5567,3.3867,3.3182,3.3142,3.3134,3.3156,3.3085,3.2324,3.202,3.1962,3.1928,3.1831,3.156,3.063,3.0377,0.0,0.0,3.0411,3.0739,3.1651,3.1929,3.221,3.3042,3.3274,3.3497,3.4165,3.3662,3.2086,2.8762,2.8017,2.7669,2.6831,0.0,2.6573,2.6433,2.6411,2.6606,2.7097,2.645,2.5885,2.5759,2.4982,2.45,2.45,2.45,2.45,2.45,2.45,2.45,2.45,2.45,2.4465,2.4394,2.4394,0.0,0.0,0.0,0.0,0.0,0.0,0.0,0.0,0.0,0.0,0.0,0.0,0.0,0.0,0.0,0.0,0.0,0.0,0.0,0.0,0.0,0.0,0.0,0.0,0.0,0.0,0.0,0.0,3.0252,3.1872,0.0,3.2404,3.3075,3.3681,3.4093,3.4544,3.5511,3.7168,3.8087,3.9544,4.1686,4.2374,4.312,4.4075,4.4614,4.5013,4.5318,4.5601,4.5828,4.5987,4.6026,4.6088,4.6176,4.58,4.5708,4.5656,4.3255,4.1088,3.9178,3.8024,3.6892,3.5914,3.5909,3.5911,3.5879,3.5579,3.5476,3.5259,3.4098,3.2937,3.2035,3.2213,3.2667,3.3003,3.2454,3.3064,3.3848,3.3661,3.3989,3.4464,3.4784,3.4842,3.4765,3.4494,3.4195,3.346,3.1652,3.0443,2.9399,2.8519,2.792,2.7498,2.736,2.7251,2.721,2.7236,2.6937,2.6651,2.6525,2.6228,2.5838,2.5317,2.528,2.5057,2.4537,2.45,2.45,2.45,2.45,2.4482,2.4465,2.4465,2.4465,0.0,0.0,0.0,0.0,0.0,0.0,0.0,0.0,0.0,0.0,0.0,0.0,0.0,0.0,0.0,0.0,0.0,0.0,0.0,0.0,0.0,0.0,0.0,0.0,0.0,3.163,3.3657,3.3731,3.6288,3.7445,3.5931,3.6205,3.6616,3.6933,3.7708,3.8916,4.0597,4.1227,4.245,4.438,4.4437,4.4786,4.549,4.5438,4.5591,4.5919,4.5908,4.5998,4.617,4.6164,4.622,4.6308,4.6206,4.6216,4.6261,4.5675,4.4426,4.2731,4.1613,4.0599,3.974,3.9531,3.9453,3.9375,3.8787,3.8209,3.7515,3.6303,3.5126,3.4251,3.4742,3.5318,3.5678,3.511,3.5728,3.6493,3.6253,3.6149,3.6187,3.6477,3.611,3.5626,3.5317,3.5027,3.4659,3.4098,3.2609,3.1081,2.994,2.9263,2.8811,2.8579,2.8243,2.8099,2.8347,2.7848,2.7438,2.7325,2.6823,2.6284,2.5745,2.5448,2.5076,2.4537,2.45,2.45,2.45,2.45,2.45,2.45,2.45,2.45,2.4481,0.0,0.0,0.0,0.0,0.0,0.0,0.0,0.0,0.0,0.0,0.0,0.0,0.0,0.0,0.0,0.0,0.0,0.0,0.0,0.0,0.0,0.0,0.0,3.0703,3.4864,3.7348,3.5892,3.9108,4.025,3.7154,3.8155,3.9395,4.0368,4.117,4.2335,4.3997,4.4055,4.4437,4.5258,4.5297,4.538,4.5507,4.5571,4.5675,4.5801,4.6005,4.6098,4.6105,4.624,4.63,4.63,4.63,4.63,4.63,4.63,4.63,4.6128,4.4442,4.4119,4.4531,4.3926,4.3672,4.3379,4.1719,4.0005,3.8541,3.8568,3.8516,3.8414,3.831,3.8324,3.8349,3.8298,3.8252,3.845,3.9282,3.8218,3.7154,3.7967,3.6922,3.5936,3.6709,3.6245,3.5704,3.5704,3.4331,3.2638,3.0926,3.0617,3.0469,3.0052,2.9341,0.0,3.0499,2.9245,2.8219,2.8161,2.6749,2.5801,2.5745,2.502,2.4555,2.45,2.45,2.45,2.45,2.45,2.45,2.45,2.4518,2.4537,2.4537,0.0,0.0,0.0,0.0,0.0,0.0,0.0,0.0,0.0,0.0,0.0,0.0,0.0,0.0,0.0,0.0,0.0,0.0,0.0,0.0,0.0,3.3198,3.5672,3.5718,3.8345,4.0783,4.2195,4.3881,4.4829,4.4576,4.3874,4.4067,4.56,4.4819,4.4704,4.5755,4.5258,4.5048,4.5277,4.5297,4.54,4.5645,4.5568,4.5705,4.6091,4.6045,4.6092,4.6245,4.6277,4.63,4.63,4.63,4.63,4.63,4.63,4.6306,4.6258,4.5763,4.5305,4.4785,4.3984,4.293,4.1894,4.194,4.0855,3.9525,4.0014,3.9751,3.9364,3.9908,4.0101,4.0113,4.0082,3.963,3.9204,3.9449,3.8682,3.7735,3.7348,3.6903,3.6477,3.611,3.5858,3.5684,3.5643,3.5287,3.4234,3.1874,3.0946,3.0409,3.0042,2.9813,2.9696,2.9752,2.9375,2.9057,2.9035,2.8663,2.7901,2.6674,2.6377,2.5745,2.4574,2.45,2.45,2.45,2.45,2.45,2.45,2.5076,2.5373,0.0,0.0,0.0,0.0,0.0,0.0,0.0,0.0,0.0,0.0,0.0,0.0,0.0,0.0,0.0,0.0,0.0,0.0,0.0,0.0,0.0,0.0,3.6889,3.9776,4.1568,4.2398,4.3646,4.5832,4.654,4.7058,4.7581,4.6809,4.653,4.7207,4.6347,4.5851,4.5984,4.5545,4.5297,4.5297,4.5297,4.5438,4.5703,4.5655,4.5825,4.6206,4.6156,4.6192,4.63,4.63,4.63,4.63,4.63,4.63,4.63,4.63,4.6306,4.6293,0.0,0.0,0.0,0.0,4.3698,4.2265,4.2696,4.1722,4.0326,4.0715,4.0498,4.0178,4.0655,4.079,4.079,4.079,4.0442,4.0113,4.0462,3.9649,3.8702,3.8566,3.7986,3.7232,3.6381,3.6207,3.6079,3.5689,3.5353,0.0,3.3111,3.2072,3.1379,3.11,3.0706,3.0445,3.0482,3.0178,2.9804,2.9446,2.9072,2.8459,2.7492,2.7102,0.0,0.0,0.0,2.5503,2.5503,2.5503,0.0,0.0,0.0,2.621,2.621,2.621,0.0,0.0,2.4816,2.45,0.0,0.0,0.0,0.0,0.0,0.0,0.0,0.0,0.0,0.0,0.0,0.0,0.0,0.0,0.0,0.0,4.0857,4.3392,4.7251,4.6635,4.6316,4.7729,4.781,4.7834,4.7976,4.7728,4.735,4.6844,4.6538,4.6099,4.5468,4.5354,0.0,0.0,0.0,4.5438,4.5703,4.5783,4.593,4.6206,4.6273,4.63,4.63,4.63,4.63,4.63,4.63,4.63,4.63,4.63,4.6303,4.6306,4.6306,4.6243,4.6152,4.6152,4.5011,4.3453,4.3434,0.0,0.0,4.09,4.0848,4.079,4.079,4.079,4.081,4.0906,4.0868,4.0984,4.1796,4.0829,3.9816,4.0481,3.9475,3.8121,3.7232,3.698,3.6679,3.589,3.504,3.4422,3.4306,3.346,3.276,3.2556,3.1762,3.1374,3.1946,3.1246,3.0402,2.9615,2.8776,0.0,2.8104,2.7455,2.7009,2.6916,2.6916,2.6916,2.6916,2.6916,2.6916,2.6916,2.699,2.7046,2.7046,2.7046,2.7046,2.7009,2.5485,2.4778,0.0,0.0,0.0,0.0,0.0,0.0,0.0,0.0,0.0,0.0,0.0,0.0,0.0,0.0,0.0,4.1417,4.49,4.7789,4.9302,4.9905,5.0051,4.967,4.9091,4.8982,4.9654,4.7907,4.7242,4.8487,4.6691,4.5755,4.6233,4.564,4.5297,4.5297,4.5297,4.5438,4.5703,4.5783,4.593,4.6206,4.6273,0.0,4.63,4.63,4.63,4.63,4.63,4.63,4.63,4.63,4.6295,4.6307,4.6307,4.5878,4.5254,4.5254,4.4114,4.255,4.2492,4.1783,4.09,4.0829,4.081,4.079,4.079,4.079,0.0,4.1583,4.1293,4.0984,4.1796,4.1274,4.0404,3.9894,3.9475,3.9011,3.8141,3.7406,3.6822,3.6619,3.5948,3.5168,3.4364,3.3523,3.2909,3.2755,3.2432,3.2215,3.2184,3.131,3.0605,3.0373,2.9649,2.8868,2.8142,2.7956,2.7604,2.6953,2.6916,2.6916,2.6916,2.6916,2.6916,2.6916,2.7548,2.7863,2.7863,2.7863,2.7863,2.7826,2.6879,2.6451,0.0,0.0,0.0,0.0,0.0,0.0,0.0,0.0,0.0,0.0,0.0,3.4976,3.5729,0.0,4.281,4.5247,4.8106,5.0149,5.0646,5.109,5.1078,5.0203,4.982,4.9792,5.0149,4.911,4.8602,4.906,4.7513,4.6538,4.65,4.5736,4.5339,4.54,4.54,4.5541,4.5852,4.5878,4.6024,4.6255,4.6273,4.63,4.63,4.63,4.63,4.63,4.63,4.63,4.63,4.63,4.6297,4.6308,4.6308,4.6035,4.5644,4.5644,4.4766,4.3471,4.3005,4.2247,4.1371,4.0945,4.079,4.079,4.079,4.079,4.0868,4.1293,4.11,4.0887,4.1293,4.11,4.0674,4.0217,4.0089,3.9857,3.9,3.8447,3.8003,3.7533,3.7141,3.6748,3.6279,3.5519,3.4571,3.3465,3.3045,3.2825,3.2763,3.2262,3.1573,3.073,3.0262,2.9667,2.8831,2.8756,2.8589,2.818,2.8161,2.8161,2.8161,2.8161,2.8161,2.8161,2.8552,2.8756,2.8756,2.8756,2.8756,2.8756,2.8347,2.7715,0.0,0.0,0.0,0.0,0.0,0.0,0.0,0.0,3.3256,3.404,3.6884,3.9578,4.0825,4.3798,4.6777,4.9034,5.0597,5.1543,5.1604,5.1471,5.1002,4.9993,5.0111,5.0259,5.0212,5.0126,4.9805,4.9137,4.8143,4.7245,4.6538,4.5736,4.5361,4.5509,4.549,4.5665,4.5998,4.6007,4.6091,4.6303,4.6296,4.63,4.63,4.63,4.63,4.63,4.63,4.6303,4.629,4.629,4.6301,4.6308,4.6308,4.6286,4.6234,4.5905,4.5367,4.4655,4.3582,4.2692,4.1893,4.1235,4.0926,4.079,4.079,4.079,4.079,4.079,4.0906,4.1003,4.0829,4.0906,4.0984,4.0771,4.07,4.0513,3.981,3.9507,3.9179,3.8485,3.8228,3.8144,3.8189,3.7597,3.6466,3.463,3.3904,3.3548,3.3564,3.3306,3.2542,3.1067,3.073,3.0281,2.9481,2.9407,2.9407,2.9407,2.9407,2.9407,2.9407,2.9407,2.9407,2.9407,2.9407,2.9407,2.9407,2.9407,2.9407,2.9407,2.9407,2.8682,2.636,2.7046,2.826,3.0331,3.104,3.2359,0.0,0.0,3.8322,3.9128,4.1945,4.4322,4.4444,4.7194,4.9997,5.1698,5.2153,5.2295,5.2379,5.1779,5.0734,4.9232,4.9744,5.0212,5.0278,4.9652,4.9194,4.9098,4.757,4.6596,4.6519,4.5736,4.5361,4.5509,4.549,4.5665,4.5998,4.6007,4.6091,4.6303,4.6296,4.63,4.63,4.63,4.63,4.63,4.63,4.6297,4.6308,4.6308,4.6308,4.6308,4.6308,4.627,4.6021,4.4455,4.4287,4.455,4.285,4.2144,4.199,4.1893,4.1371,4.079,4.079,4.079,4.079,4.079,4.1313,4.1699,4.0984,4.1332,4.168,4.0965,4.0746,4.0681,4.0571,3.9953,3.9374,3.927,3.8691,3.8194,3.8189,3.797,3.7464,3.6512,3.549,3.4755,3.4562,3.369,3.2724,3.1786,3.1043,3.0281,2.9481,2.9407,2.9407,2.9407,2.9407,2.9407,2.9407,2.9407,2.9407,2.9407,2.9407,2.9407,2.9407,2.9407,2.9407,2.9407,2.9407,2.9314,2.8326,2.9563,3.0811,3.1809,3.4249,3.6841,3.8402,4.0665,4.2683,4.3468,4.5916,4.789,4.7916,4.944,5.0911,0.0,5.2134,5.2142,5.1182,5.0791,4.9987,4.8386,4.8505,4.8757,4.8762,4.898,4.8888,4.8372,4.7665,4.731,4.7414,4.6628,4.6257,4.648,4.6042,4.5897,4.6118,4.6157,4.622,4.6296,4.63,4.63,4.63,4.63,4.63,4.6303,4.63,4.6307,4.6308,4.6308,4.6308,4.6308,4.6308,4.6273,4.6162,4.5402,4.5273,4.5312,4.4041,4.3576,4.344,4.2918,4.2531,4.2241,4.2241,4.2241,4.2241,4.2241,4.2492,4.2686,4.2338,4.2492,4.2518,4.1647,4.1807,4.201,4.1514,4.1114,4.0993,4.1503,4.0546,3.9825,4.0314,3.9394,3.8431,3.7991,3.6595,3.5303,3.4558,3.4023,3.3259,3.1931,3.0671,2.9779,2.9444,2.9407,2.9407,2.9407,2.9407,2.9407,2.9407,2.9407,2.9407,2.9407,2.9407,2.9407,2.9407,2.9407,2.9407,2.9407,2.9407,2.9407,2.966,3.129,0.0,3.4224,3.7639,4.0675,4.0751,4.3483,4.6196,4.6752,4.8712,5.0236,5.0016,5.0654,5.1233,5.1269,5.1554,5.1364,5.0176,4.9841,4.9137,4.7514,4.7346,4.7251,4.7064,4.8063,4.8582,4.82,4.7999,4.8046,4.8413,4.7428,4.6955,4.7181,4.6416,4.606,4.6206,4.6279,4.6292,4.63,4.63,4.63,4.63,4.6306,4.6306,4.6303,4.6306,4.6308,4.6308,4.6308,4.6308,4.6308,4.6308,4.6275,4.624,4.6201,4.5958,4.5562,4.4904,4.4485,4.4175,4.3788,4.3324,4.2995,4.3227,4.3131,4.2995,4.3227,4.3479,4.3595,4.3363,4.3479,4.3427,4.2502,4.2744,4.3038,4.2386,4.2256,4.2444,4.3076,4.224,4.1544,4.1931,4.0781,3.9555,3.888,3.7561,3.6174,3.4825,3.4208,3.3417,3.2247,3.0894,3.0076,3.0076,3.0076,3.0076,3.0076,3.0076,3.0076,3.0076,3.0076,2.9965,2.9741,2.9741,2.963,2.9407,2.9407,2.9407,2.9407,2.9407,2.9409,2.9656,3.1305,3.3745,3.8572,4.1051,4.2962,4.5407,4.7321,4.8572,4.8609,5.0028,5.0965,5.0077,5.0654,5.1269,5.1206,5.0505,4.9982,4.9997,4.934,4.8232,4.6618,4.645,4.6167,4.5449,4.6882,4.8181,4.8984,4.8451,4.8432,4.9221,4.7816,4.7049,4.7201,4.6416,4.606,4.6206,4.6279,4.6292,4.63,4.63,4.63,4.63,4.6295,4.6295,4.6303,4.6306,4.6308,4.6308,4.6308,4.6308,4.6308,4.6308,4.6212,4.6111,4.6091,4.5561,4.4821,4.4659,4.4059,4.3479,4.4291,4.3421,4.2202,4.3034,4.2705,4.2222,4.3053,4.3904,4.4369,4.3518,4.3924,4.4349,4.3479,4.3231,4.3188,4.3173,4.3163,4.3168,4.3192,4.3201,4.2957,4.2144,4.174,4.0875,3.8976,3.8426,3.7591,3.5795,3.4078,3.3008,3.2971,3.221,3.1727,3.1727,3.1727,3.1727,3.1727,3.1727,3.1727,3.1727,3.1727,3.1377,3.0597,3.0578,3.0188,2.9407,2.9407,2.9407,2.9407,2.9407,2.9471,3.2446,3.5548,3.8565,4.0988,4.4099,4.679,4.7643,4.9159,5.0182,4.9614,4.8643,4.784,4.7555,4.6814,4.6453,4.7042,4.7821,4.8137,4.7631,4.7343,4.6805,4.5726,4.5655,4.5562,4.5316,4.5812,4.6252,4.6557,4.753,4.8255,4.8623,4.8773,4.8677,4.828,4.7435,4.6748,4.6206,4.6269,4.6296,4.63,4.63,4.63,4.63,4.6306,4.6297,4.6306,4.6308,4.6308,4.6308,4.6308,4.6308,4.6307,4.6242,4.6212,4.6154,4.6057,4.5486,4.4711,4.462,4.404,4.3343,4.3634,4.373,4.3788,4.4078,4.433,4.4581,4.4871,4.5162,4.5336,4.5026,4.5181,4.5167,4.4312,4.451,4.4781,4.4187,4.4051,4.4221,4.4819,4.4012,4.3067,4.2598,4.1875,4.0608,3.8474,3.7181,3.6224,3.5603,3.4054,3.299,3.299,3.2265,3.1782,3.1782,3.1782,3.1782,3.1782,3.1782,3.1541,3.1043,3.1005,3.0634,2.9834,2.9816,2.9667,2.9407,2.9407,2.945,2.9532,2.9532,2.9645,3.5367,3.8564,4.1324,4.3994,4.6676,4.8685,4.8685,4.9519,4.9803,4.8041,4.6423,4.4995,4.3798,4.2471,4.2034,4.3501,4.4619,4.5432,4.5836,4.6195,4.6107,4.535,4.5256,4.5297,4.5297,4.5297,4.5411,4.5698,4.7242,4.8356,4.8735,4.947,4.9683,4.9281,4.8125,4.7376,4.7133,4.6897,4.6768,4.6768,4.6768,4.6596,4.6309,4.6303,4.6297,4.6308,4.6308,4.6308,4.6308,4.6308,4.628,4.6259,4.6213,4.6181,4.6123,4.6027,4.5427,4.4697,4.4949,4.4465,4.3808,4.4098,4.4388,4.4659,4.4949,4.5181,4.5432,4.5722,4.58,4.58,4.58,4.58,4.5655,4.5104,4.536,4.5611,4.507,4.4969,4.5124,4.5689,4.4824,4.3827,4.3347,4.2023,4.0448,3.8588,3.7188,3.6147,3.5553,3.429,3.3417,3.3417,3.2971,3.2655,3.2655,3.2655,3.2655,3.2655,3.2655,3.2414,3.1894,3.1875,3.1355,3.0281,3.0262,2.9983,2.9407,2.9407,2.9471,2.9608,2.9608,2.9732,3.8244,4.0297,4.2227,4.7345,4.8666,4.8666,4.8572,4.8496,4.751,4.4251,4.3472,4.2338,0.0,0.0,3.8328,4.0724,4.1276,4.2286,4.4903,4.5935,4.6167,0.0,0.0,0.0,0.0,0.0,4.5736,4.6519,4.7636,4.8677,4.9548,4.9897,5.008,5.0102,4.8496,4.8006,4.8782,4.799,4.7608,4.7608,4.7549,4.711,4.6301,4.629,4.6297,4.6308,4.6308,4.6308,4.6308,4.6308,4.6267,4.6201,4.6201,4.6104,4.6007,4.5988,4.5432,4.4775,4.5529,4.5239,4.4659,4.5413,4.5181,4.4736,4.551,4.5239,4.4813,4.5587,4.58,4.58,4.58,4.5791,4.5795,4.5786,4.5742,4.5712,4.5786,4.5791,4.58,4.5781,4.5524,4.5017,4.4193,4.2212,4.0408,3.9342,3.8432,3.7336,3.5813,3.4829,3.4271,3.4271,3.4234,3.4197,3.4197,3.4197,3.4197,3.4197,3.4197,3.4179,3.4141,3.4141,3.3398,3.1819,3.1745,3.1002,2.9518,2.9444,2.951,2.9682,2.9682,2.9874,4.0197,4.2986,4.541,4.7273,4.8211,4.8363,4.7112,4.5862,4.4364,4.2268,3.9447,3.6863,3.5397,3.547,0.0,3.8233,4.0671,0.0,4.5821,4.6361,0.0,4.7111,0.0,4.7169,4.7169,4.7169,4.7264,4.7455,4.7983,4.8677,4.9548,5.048,5.0704,5.0121,4.9672,4.9235,4.8801,4.799,4.7608,4.7588,4.6944,4.6524,4.6301,4.6306,4.6307,4.6308,4.6308,4.6308,4.6308,4.6259,4.6232,4.6201,4.6085,4.6027,4.5988,4.5877,4.5703,4.551,4.5722,4.4852,4.3672,4.3866,4.4233,4.4639,4.4833,4.5181,4.5529,4.5742,4.58,4.58,4.581,4.5795,4.5781,4.5746,4.5746,4.5781,4.5795,4.5791,4.5742,4.5543,4.4607,4.3748,4.3466,4.1804,4.0402,4.0114,3.8822,3.7745,3.7336,3.6036,3.5163,3.5163,3.4587,3.4197,3.4197,3.4197,3.4197,3.4197,3.4197,3.3918,3.3324,3.3305,3.2823,3.1819,3.1229,3.1005,3.1191,3.0071,2.9945,3.0727,3.0877,3.1083,4.2841,4.5034,4.665,4.77,4.7776,4.6961,4.4559,4.3004,4.1092,3.7584,3.5038,3.2997,3.1428,3.1825,3.3195,0.0,0.0,0.0,4.4472,4.581,4.6691,0.0,4.7895,0.0,4.8372,4.8372,4.8551,4.9003,4.8924,4.9083,4.9567,5.0685,5.1108,5.0674,5.0302,4.9869,4.9376,4.8912,4.8505,4.8115,4.7276,4.668,4.6301,4.6308,4.6308,4.6308,4.6308,4.6308,4.6288,4.6231,4.6181,4.6143,4.6046,4.5969,4.5896,4.5819,4.58,4.58,4.58,4.5181,4.4407,4.4407,4.4736,4.5123,4.5123,4.5432,4.58,4.58,4.58,4.5791,4.5795,4.5781,4.5765,4.575,4.5765,4.5795,4.581,4.5791,4.5677,4.5246,4.4426,4.3622,4.3119,4.1837,4.081,4.0438,3.9268,3.8432,3.8432,3.7021,3.5739,3.4996,3.4829,3.4606,3.4234,3.4197,3.4197,3.4197,3.4197,3.3993,3.3547,3.3528,3.3138,3.234,3.1968,3.1827,3.1939,3.1186,3.1142,3.1803,3.1932,3.2048,4.5268,4.6341,4.6712,4.804,4.7112,4.4995,4.1623,3.9975,3.7641,3.226,3.1016,3.0189,2.7859,2.8324,3.0166,3.3452,0.0,3.8973,4.2622,4.5086,4.6596,4.6825,4.8277,4.9251,4.9251,4.9296,4.9652,5.0548,5.0107,4.9809,4.9809,5.0744,5.1323,5.1394,5.0669,5.0211,5.0106,4.9989,4.9481,4.8623,4.7822,4.7029,4.63,4.6307,4.6308,4.6308,4.6308,4.6288,4.6276,4.6202,4.6151,4.6085,4.6007,4.5896,4.58,4.58,4.58,4.58,4.58,4.58,4.58,4.58,4.58,4.58,4.58,4.58,4.58,4.58,4.5791,4.58,4.5781,4.5731,4.5715,4.5781,4.5781,4.5795,4.5805,4.5727,4.5528,4.4966,4.4572,4.4036,4.3137,4.2296,4.1479,4.068,3.9825,3.9194,3.8971,3.7708,3.6296,3.4847,3.5163,3.5182,3.4439,3.4271,3.4197,3.4197,3.4197,3.4197,3.4197,3.4197,3.3863,3.3157,3.3256,3.3008,3.2425,3.2446,3.2597,3.2875,3.289,3.2957,4.4864,4.5881,4.6451,4.6603,4.5369,4.3246,3.9897,3.6881,0.0,3.094,2.9217,2.7929,2.681,2.8446,3.0854,3.3547,3.6069,3.9374,4.4188,4.5812,4.7035,0.0,4.95,5.0092,5.0092,5.0232,5.0413,5.0587,5.0743,5.0836,5.0836,5.1131,5.133,5.1391,5.1249,5.0824,5.0106,4.9384,4.8623,4.7803,4.6944,4.6459,4.6306,4.6307,4.6308,4.6308,4.6308,4.6264,4.6216,4.6143,4.6074,4.6007,4.5877,4.5819,4.58,4.58,4.58,4.58,4.58,4.58,4.58,4.58,4.58,4.58,4.58,4.58,4.58,4.581,4.5795,4.58,4.5731,4.5715,4.5715,4.5781,4.5765,4.5731,4.5795,4.5399,4.4966,4.4631,4.4289,4.4011,4.3819,4.3113,4.2314,4.1497,4.0698,3.9658,3.8284,3.7856,3.7578,3.7281,3.6185,3.5423,3.5274,3.4606,3.4197,3.4197,3.4197,3.4197,3.4197,3.4197,3.4123,3.3993,3.3537,3.359,3.4151,3.314,3.3016,3.37,3.3868,3.3955,4.5419,4.5788,4.5786,4.6131,4.3947,4.084,3.7527,0.0,0.0,2.8126,2.6912,2.6237,2.5848,2.7861,0.0,3.1766,3.4136,3.7405,4.2049,4.3787,4.5526,4.8124,4.9538,5.0646,5.1525,5.1003,5.0991,5.1932,5.1441,5.1086,5.1109,5.1261,5.1366,5.1406,5.139,5.1199,5.0789,4.9462,4.8623,4.8252,4.6934,4.6309,4.6303,4.6306,4.6308,4.6308,4.627,4.6231,4.6195,4.6088,4.6026,4.5988,4.5838,4.58,4.58,4.58,4.58,4.58,4.58,4.58,4.58,4.58,4.58,4.58,4.58,4.5786,4.5791,4.5795,4.5765,4.5731,4.5715,4.5715,4.5765,4.5781,4.5765,4.5715,4.556,4.5204,4.48,4.4519,4.4192,4.4005,4.4005,4.3336,4.2667,4.2277,4.1181,4.0104,3.9287,3.8804,3.8191,3.7355,3.6946,3.6408,3.5553,3.5107,3.468,3.4234,3.4197,3.4197,3.4197,3.434,3.4404,3.4404,3.4337,3.4491,3.4908,3.4404,3.4371,3.4721,3.4845,3.4622,4.534,4.5444,4.5196,4.5693,4.2688,3.8833,3.5704,3.2281,0.0,2.5817,2.5191,2.5191,2.5191,2.6993,2.8843,3.0048,3.2058,3.5066,3.9677,4.1743,4.4036,4.7398,4.9289,0.0,5.2136,5.1275,5.1238,5.2652,5.1774,5.1152,5.1152,5.1317,5.1401,5.1394,5.1219,5.1023,5.0848,4.9306,4.8486,4.833,4.6939,4.6297,4.6293,4.6307,4.6286,4.6284,4.6219,4.6181,4.6143,4.6046,4.5988,4.5949,4.5838,4.58,4.58,4.58,4.58,4.58,4.58,4.58,4.58,4.58,4.58,4.58,4.58,4.5791,4.5795,4.5781,4.575,4.5715,4.5715,4.5765,4.58,4.58,4.575,4.5596,4.5285,4.4992,4.4701,4.4374,4.4151,4.4005,4.4005,4.3485,4.3002,4.2835,4.1571,4.0587,4.042,3.964,3.8618,3.7336,3.7634,3.7392,3.611,3.5683,3.52,3.4513,3.429,3.4197,3.4197,3.4386,3.4539,3.4602,3.4945,3.5176,3.5209,3.5403,3.5493,3.5493,3.5493,3.5141,4.3355,4.4376,4.5015,4.4655,4.1666,3.8134,3.559,0.0,2.8284,2.5734,2.5191,2.5191,2.5191,2.6037,2.752,2.9979,3.113,3.3772,3.9576,4.1779,4.4036,4.7398,0.0,0.0,5.0512,5.0682,5.0851,5.1022,5.124,5.1362,5.1362,5.1386,5.1401,5.1394,5.0633,4.9833,4.9052,4.8154,4.7315,4.6534,4.6376,4.6305,4.6308,4.6308,4.6279,4.621,4.6209,4.6123,4.6027,4.6007,4.593,4.5819,4.58,4.58,4.58,4.58,4.58,4.58,4.58,4.58,4.58,4.58,4.58,4.58,4.581,4.5791,4.5786,4.5731,4.575,4.5781,4.5781,4.58,4.58,4.58,4.558,4.5265,4.5011,4.4676,4.4374,4.4109,4.4036,4.4005,4.4005,4.3949,4.3633,4.2909,4.2054,4.1219,4.0476,3.964,3.9045,3.8897,3.8284,3.7838,3.7689,3.6333,3.546,3.5386,3.4624,3.4197,3.4197,3.4221,3.434,3.4602,3.4831,3.5019,3.5209,3.5403,3.5493,3.5493,3.5493,3.5468,4.2145,4.3527,4.4271,4.3793,4.0415,3.6672,3.4716,0.0,2.6982,2.5504,2.5191,2.5191,2.5191,2.5914,2.6995,2.8526,2.907,3.0996,3.5921,3.7584,4.0099,4.4973,4.7016,4.8831,5.0894,5.0894,5.0879,5.1089,5.1281,5.1394,5.1394,5.1396,5.139,5.1394,5.0555,4.993,4.9599,4.8252,4.7432,4.7081,4.6549,4.6306,4.6308,4.6254,4.624,4.6201,4.6104,4.6046,4.5988,4.591,4.5838,4.58,4.58,4.58,4.58,4.58,4.58,4.58,4.58,4.58,4.58,4.58,4.5805,4.5791,4.5805,4.5757,4.5727,4.5765,4.575,4.575,4.5781,4.581,4.5776,4.5665,4.5454,4.5186,4.4781,4.4546,4.4318,4.4048,4.4005,4.4005,4.4005,4.4005,4.3893,4.3578,4.2426,4.1479,4.1144,3.9937,3.9101,3.9101,3.8804,3.8432,3.7931,3.7299,3.6519,3.5553,3.5163,3.4736,3.4216,3.434,3.4561,3.4791,3.4982,3.5193,3.5369,3.5446,3.5493,3.5493,3.5493,3.5218,3.9611,4.1525,4.2765,4.2389,3.9062,3.5438,0.0,0.0,2.6155,2.5371,2.5191,2.5191,2.5191,2.5696,2.6381,2.7228,2.7604,2.9221,3.3237,3.4913,3.7536,4.2411,0.0,4.672,4.9879,5.0617,5.1004,5.1308,5.1369,5.1405,5.1405,5.1406,5.1277,5.1023,5.0165,4.9599,4.9364,4.7939,4.7217,4.7217,4.6585,4.6303,4.6308,4.6231,4.6201,4.6162,4.6046,4.5988,4.593,4.5838,4.58,4.58,4.58,4.58,4.58,4.58,4.58,4.58,4.58,4.58,4.58,4.58,4.5805,4.581,4.58,4.5776,4.5731,4.58,4.5781,4.5746,4.5795,4.5805,4.5737,4.5524,4.5323,4.5063,4.4657,4.443,4.4221,4.4048,4.4005,4.4005,4.4005,4.4005,4.4005,4.4005,4.263,4.159,4.159,4.0141,3.9101,3.9101,3.9101,3.8859,3.8302,3.8042,3.7411,3.6278,3.598,3.546,3.4606,3.4778,3.4889,3.4908,3.5037,3.5242,3.5493,3.5493,3.5493,3.5493,3.5493,3.5026,3.5229,3.8051,4.0337,4.0243,3.7648,3.4675,3.2909,2.9336,2.6173,2.5363,2.5191,2.5191,2.5191,2.5214,2.551,2.6458,2.7294,2.9044,3.2618,3.5168,3.7616,0.0,4.1989,4.4045,4.6604,4.9439,5.1191,5.1388,5.1411,5.1401,5.1394,5.1394,5.1004,5.0145,4.9267,4.8427,4.7627,4.6749,4.63,4.63,4.63,4.6297,4.6308,4.6231,4.6162,4.6104,4.6027,4.593,4.58,4.58,4.58,4.58,4.58,4.58,4.58,4.58,4.58,4.58,4.58,4.58,4.58,4.58,4.58,4.58,4.58,4.5805,4.58,4.58,4.5791,4.58,4.58,4.58,4.5737,4.5453,4.5147,4.482,4.4553,4.425,4.4005,4.4005,4.4005,4.4005,4.4005,4.4005,4.4005,4.4005,4.263,4.159,4.159,4.0141,3.9101,3.9101,3.9101,3.9101,3.9082,3.8358,3.7894,3.7875,3.7132,3.6315,3.5516,3.5479,3.5292,3.4927,3.4889,3.5107,3.5493,3.5493,3.5493,3.5493,3.5493,3.5026,3.125,3.3179,3.4498,3.4573,3.2675,3.0655,3.016,2.7739,2.5516,2.5249,2.5191,2.5191,2.5191,2.5206,2.5691,2.7185,2.8137,2.9486,3.1765,0.0,0.0,4.0858,4.5359,4.8545,4.9454,5.0481,5.1162,5.1317,5.1366,5.1401,5.1401,5.139,5.1004,5.0126,4.9247,4.8408,4.7608,4.6749,4.6306,4.6297,4.6306,4.6286,4.6241,4.6153,4.6091,4.6027,4.591,4.5838,4.58,4.58,4.58,4.58,4.58,4.58,4.58,4.58,4.58,4.58,4.58,4.58,4.58,4.5791,4.5761,4.5727,4.5795,4.5795,4.58,4.58,4.5791,4.58,4.58,4.5658,4.547,4.5245,4.4905,4.4553,4.4345,4.4128,4.4005,4.4005,4.4005,4.4005,4.4005,4.4005,4.4005,4.4005,4.263,4.1794,4.2352,4.0996,3.9974,3.9974,4.0476,4.0346,3.9194,3.8859,3.8488,3.7931,3.7652,3.7151,3.6333,3.5776,3.5572,3.5722,3.5192,3.5089,3.5493,3.5493,3.5493,3.5493,3.5493,3.5347,0.0,2.9418,3.1029,3.1071,2.9969,0.0,2.8474,2.674,2.5191,2.5191,2.5191,2.5191,2.5191,2.5206,2.5565,2.665,2.7827,2.9102,3.0498,3.3859,0.0,4.13,4.5635,4.8604,4.9406,5.0236,5.0895,5.1317,5.1391,5.1406,5.1406,5.1098,5.0516,4.9638,4.9072,4.8252,4.712,4.6573,4.6306,4.6295,4.6297,4.6261,4.6201,4.613,4.6061,4.5988,4.5858,4.58,0.0,4.58,4.58,4.58,4.58,4.58,4.58,4.58,4.58,4.58,4.58,4.58,4.5805,4.5795,4.5765,4.575,4.5795,4.581,4.581,4.581,4.5805,4.5766,4.5708,4.5541,4.5323,4.4988,4.4701,4.443,4.4177,4.4055,4.4005,4.4005,4.4005,4.4005,4.4005,4.4005,4.4005,4.4005,4.289,4.2222,4.2742,4.1664,4.0847,4.0847,4.1293,4.1051,3.9714,3.9584,3.9231,3.8414,3.8339,3.7986,3.7188,3.6668,3.6272,3.5998,3.5569,3.5359,3.5403,3.546,3.5493,3.5493,3.5493,3.5501,0.0,2.643,2.9097,2.9098,2.8828,2.836,2.7597,2.6263,0.0,2.5191,2.5191,2.5229,2.5268,2.5233,2.5256,2.5442,2.6894,2.8332,2.9332,3.3191,0.0,4.1821,4.3776,4.5486,4.731,4.9001,5.036,5.1238,5.1245,5.1238,5.1297,5.0477,4.9638,4.8837,4.874,4.7939,4.6319,4.63,4.63,4.63,4.6308,4.6265,4.6189,4.6104,4.6046,4.5988,4.5838,4.58,4.58,4.58,4.58,4.58,4.58,4.58,4.58,4.58,4.58,4.58,4.58,4.5791,4.5781,4.5781,4.58,4.5795,4.5786,4.58,4.58,4.58,4.58,4.5752,4.556,4.5417,4.5227,4.4726,4.4519,4.4374,4.4079,4.4005,4.4005,4.4005,4.4005,4.4005,4.4005,4.4005,4.4005,4.4005,4.3318,4.2816,4.2872,4.2184,4.1683,4.1683,4.1739,4.1386,4.0476,4.0401,4.003,3.9157,3.9101,3.8767,3.8024,3.7931,3.7261,3.5893,3.5981,3.5761,3.5226,3.5417,3.5493,3.5493,3.5493,3.5501,2.0559,0.0,2.3373,2.4068,2.4662,2.5194,0.0,2.5466,2.5191,2.5191,0.0,2.5382,2.6001,2.5608,2.5833,2.7781,2.9056,3.029,3.1744,3.6658,4.1485,4.5233,4.6692,4.7876,4.9098,4.9157,4.9469,5.0338,4.9786,4.9696,5.0379,4.9579,4.9013,4.8818,4.8193,4.7373,4.63,4.63,4.63,4.6303,4.6242,4.6183,4.6113,4.6041,4.5969,4.5838,4.58,4.58,4.58,4.58,4.58,4.58,4.58,4.58,4.58,4.58,4.5805,4.5795,4.5795,4.5781,4.5715,4.5715,4.5765,4.5815,4.5795,4.5805,4.58,4.58,4.58,4.5737,4.549,4.5227,4.4935,4.4606,4.4336,4.4109,4.4036,4.4005,4.4005,4.4005,4.4005,4.4005,4.4005,4.4005,4.4005,4.4005,4.3318,4.302,4.3633,4.302,4.2519,4.2519,4.3076,4.2612,4.0568,4.0401,4.003,3.9157,3.9101,3.9027,3.8822,3.8228,3.7541,3.6738,3.5875,3.5417,3.5432,3.5479,3.5493,3.5493,3.5493,3.5501,1.9656,2.0797,2.1964,2.2475,2.3556,2.4606,2.5096,0.0,0.0,0.0,0.0,0.0,0.0,2.5493,2.591,2.8107,2.9186,3.0887,3.4088,3.7915,4.1738,4.5372,4.6612,4.7765,4.9205,4.901,4.9006,4.9464,4.9064,4.9013,4.9481,4.872,4.8252,4.8252,4.7432,4.6772,4.6293,4.6303,4.6287,4.624,4.6208,4.6145,4.6046,4.6016,4.593,4.58,4.58,4.58,4.58,4.58,4.58,4.58,4.58,4.58,4.58,4.5805,4.581,4.58,4.5765,4.5731,4.5715,4.575,4.5765,4.5795,4.581,4.5805,4.58,4.58,4.5703,4.5558,4.5323,4.4995,4.4663,4.4421,4.417,4.4005,4.4005,4.4005,4.4005,4.4005,4.4005,4.4005,4.4005,4.4005,4.4005,4.4005,4.3633,4.3503,4.3949,4.3615,4.3355,4.3355,4.3745,4.3169,4.1107,4.094,4.042,3.9175,3.9101,3.9101,3.9101,3.8674,3.8226,3.7743,3.661,3.6231,3.6661,3.6055,3.5879,3.6031,3.559,3.5407,1.9604,2.1183,2.2558,2.259,2.3911,2.5191,2.5191,0.0,0.0,0.0,0.0,0.0,0.0,2.5386,0.0,0.0,0.0,3.191,3.6884,3.8818,4.0981,4.4408,4.5475,4.661,4.8425,4.8493,4.8469,4.8606,4.8482,4.8486,4.8603,4.7842,4.7451,4.7608,4.6752,4.629,4.63,4.6293,4.6273,4.6201,4.6201,4.6123,4.6007,4.5988,4.591,4.58,4.58,4.58,4.58,4.58,4.58,4.58,4.58,4.5722,4.5626,4.5737,4.5703,4.5592,4.5677,4.57,4.5715,4.5781,4.5795,4.5795,4.58,4.58,4.578,4.5752,4.5574,4.5361,4.5161,4.48,4.4457,4.4255,4.4104,4.4005,4.4005,4.4005,4.4005,4.4005,4.4005,4.4005,4.4005,4.4005,4.4005,4.4005,4.4005,4.4005,4.4005,4.4005,4.4005,4.4005,4.4005,4.3355,4.1739,4.159,4.0884,3.9212,3.9101,3.9101,3.9101,3.8971,3.8801,3.8537,3.7529,3.7272,3.7894,3.6805,3.6387,3.6592,3.5774,3.5419,1.9632,2.0978,2.2331,2.2528,2.3911,2.5191,2.5191,0.0,0.0,0.0,0.0,0.0,0.0,2.627,2.7091,0.0,3.3108,3.7122,4.1497,4.2367,4.3381,4.5541,4.5901,4.6438,4.7596,4.7084,4.6991,4.7721,4.71,4.7002,4.7744,4.6963,4.6846,4.7588,4.6742,4.6295,4.6303,4.6303,4.6264,4.6201,4.6143,4.6065,4.6007,4.5877,4.5819,4.58,4.58,4.58,4.58,4.58,4.58,4.58,4.58,4.5374,4.4871,4.5544,4.5302,4.4716,4.5456,4.5703,4.5715,4.5781,4.581,4.58,4.58,4.58,4.5752,4.5594,4.549,4.5361,4.5161,4.48,4.4457,4.4255,4.4104,4.4005,4.4005,4.4005,4.4005,4.4005,4.4005,4.4005,4.4005,4.4005,4.4005,4.4005,4.4005,4.4005,4.4005,4.4005,4.4005,4.4005,4.4005,4.3355,4.1739,4.159,4.0884,3.9212,3.9101,3.9101,3.9101,3.8451,3.8137,3.8268,3.7437,3.714,3.7413,3.722,3.6803,3.6198,3.6212,3.5878,1.9518,2.0921,2.2254,2.2528,2.3835,2.5069,2.518,2.5191,0.0,0.0,0.0,0.0,0.0,0.0,2.844,3.2417,3.6318,3.9561,4.1564,4.2288,4.3112,4.4478,4.5484,4.6261,4.6806,4.6932,4.6979,4.6905,4.6534,4.6475,4.6885,4.6515,4.6475,4.6885,4.651,4.6297,4.63,4.6257,4.6208,4.6153,4.6113,4.6027,4.5877,4.5819,4.58,4.578,4.5336,4.5142,4.5123,4.4639,4.4446,4.4446,4.4446,4.42,4.3954,4.4766,4.4774,4.4508,4.5395,4.5719,4.5765,4.5791,4.5786,4.58,4.58,4.5786,4.5742,4.5507,4.5285,4.5084,4.4877,4.4519,4.421,4.4097,4.4036,4.4005,4.4005,4.4005,4.4005,4.4005,4.4005,4.4005,4.4005,4.4005,4.4005,4.4005,4.4005,4.4005,4.4005,4.4005,4.4005,4.4005,4.4005,4.3522,4.2352,4.185,4.0884,3.9212,3.9101,3.9101,3.9101,3.8729,3.8659,3.8895,3.8415,3.8314,3.8639,3.7957,3.7544,3.7427,3.6516,3.6178,1.9436,2.0907,2.2227,2.2528,0.0,2.5057,2.5397,2.565,0.0,0.0,0.0,0.0,0.0,2.7649,3.0503,3.5265,3.88,4.1219,4.1917,4.2635,4.3339,4.4079,4.5325,4.6187,4.6288,4.6901,4.7022,4.6358,4.63,4.6202,4.6007,4.6183,4.6202,4.6007,4.6195,4.6187,4.5976,4.592,4.5856,4.5806,4.5786,4.5678,4.551,4.551,4.551,4.5471,4.4871,4.4485,4.4253,4.3576,4.3305,4.3305,4.3305,4.3258,4.3255,4.3659,4.3933,4.4218,4.5102,4.5441,4.5505,4.5496,4.5645,4.5761,4.5568,4.5621,4.5665,4.5418,4.5104,4.4768,4.465,4.4308,4.4005,4.4036,4.4005,4.4005,4.4005,4.4005,4.4005,4.4005,4.4005,4.4005,4.4005,4.4005,4.4005,4.4005,4.4005,4.4005,4.4005,4.4005,4.4005,4.4005,4.4005,4.3596,4.2593,4.1776,4.068,3.9194,3.9101,3.9101,3.9101,3.9101,3.9192,3.9383,3.9192,3.9279,3.9641,3.8644,3.8271,3.8411,3.7013,3.666,1.9585,2.083,2.2106,2.2494,2.39,0.0,2.6135,2.6937,0.0,2.8471,0.0,0.0,0.0,3.0852,3.3782,3.7332,4.0257,4.2902,4.5296,4.5839,4.6026,4.6084,4.6214,4.6296,4.63,4.6358,4.6378,4.63,4.63,4.5948,4.5148,4.5851,4.5929,4.5129,4.587,4.5875,4.5002,4.5013,4.4957,4.4884,4.4816,4.4755,4.4697,4.4697,4.4697,4.4678,4.4639,4.4136,4.3401,4.3324,4.3305,4.3305,4.3305,4.3264,4.311,4.2362,4.2545,4.3339,4.4272,4.4592,4.4602,4.4664,4.5181,4.5664,4.491,4.5028,4.5399,4.5244,4.4877,4.4546,4.4591,4.4308,4.4036,4.4153,4.4085,4.4005,4.4005,4.4005,4.4005,4.4005,4.4005,4.4005,4.4005,4.4005,4.4005,4.4005,4.4005,4.4005,4.4005,4.4005,4.4005,4.4005,4.4005,4.3373,4.1813,4.094,4.0085,3.9157,3.9101,3.9101,3.9101,3.9101,3.9101,3.9129,3.9101,3.9129,3.9137,3.9073,3.8645,3.7955,3.801,3.7676,1.9643,2.096,2.2306,2.2539,2.3911,0.0,0.0,2.7854,2.8376,2.8198,2.9369,0.0,0.0,3.3261,3.6047,3.7909,4.1349,4.4129,4.5222,4.5904,4.6296,4.6296,4.63,4.63,4.63,4.63,4.6085,4.5539,4.55,4.5109,4.4247,4.4494,4.4533,4.4211,4.4504,4.4485,4.4098,4.4047,4.3715,4.3131,4.364,4.386,4.3788,4.3788,4.3788,4.3769,4.3227,4.2802,4.2454,4.1951,4.1738,4.1738,4.1693,4.1666,4.1677,4.1846,4.2116,4.2628,4.4017,4.453,4.4573,4.4587,4.4813,4.4891,4.3993,4.3779,4.3788,4.3514,4.3242,4.3119,4.3492,4.3807,4.3875,4.3423,4.3683,4.4005,4.4005,4.4005,4.4005,4.4005,4.4005,4.4005,4.4005,4.4005,4.4005,4.4005,4.4005,4.4005,4.4005,4.4005,4.4005,4.4005,4.4005,4.3559,4.2445,4.1609,4.1014,4.068,3.9677,3.9101,3.9101,3.9101,3.9101,3.9101,3.9101,3.9101,3.9101,3.9101,3.8934,3.8637,3.8223,3.8126,2.0057,2.1273,2.2505,2.2923,0.0,0.0,2.8045,2.9134,2.9789,3.0032,3.1254,3.239,3.2748,0.0,3.707,3.85,4.1922,4.452,4.4938,4.575,4.63,4.63,4.63,4.63,4.63,4.6046,4.5636,4.5051,4.4758,4.4208,4.3349,4.3557,4.3562,4.3305,4.3559,4.3527,4.3149,4.3121,4.2627,4.1705,4.2293,4.2699,4.2899,4.2899,4.2899,4.286,4.226,4.1854,4.1583,4.1023,4.079,4.079,4.0733,4.0687,4.0731,4.1292,4.1519,4.1793,4.3496,4.4139,4.4194,4.4194,4.4388,4.4355,4.3072,4.2722,4.268,4.2408,4.2165,4.1975,4.2137,4.2917,4.3485,4.2927,4.341,4.4005,4.4005,4.4005,4.4005,4.4005,4.4005,4.4005,4.4005,4.4005,4.4005,4.4005,4.4005,4.4005,4.4005,4.4005,4.4005,4.4005,4.4005,4.367,4.2872,4.2296,4.1757,4.1237,4.0141,3.951,3.951,3.925,3.9101,3.9101,3.9101,3.9101,3.9101,3.9101,3.9101,3.9082,3.8544,3.8562,2.0937,2.1798,2.2638,0.0,0.0,0.0,2.9612,3.0873,3.2191,3.4694,3.4669,3.448,3.5345,3.5743,3.676,3.9277,4.1935,4.3986,4.4852,4.5734,4.628,4.628,4.628,4.628,4.628,4.55,4.4972,4.4953,4.4149,4.3271,4.2412,4.3173,4.3269,4.2402,4.3203,4.3173,4.2182,4.2168,4.1705,4.079,4.079,4.1216,4.199,4.199,4.199,4.199,4.199,4.1545,4.079,4.079,4.079,4.079,4.0733,4.0654,4.0607,4.0603,4.0598,4.0839,4.2575,4.3231,4.3285,4.3285,4.3866,4.4192,4.2181,4.1934,4.2357,4.2224,4.1882,4.1415,4.0682,4.163,4.2797,4.2797,4.341,4.4005,4.4005,4.4005,4.4005,4.4005,4.4005,4.4005,4.4005,4.4005,4.4005,4.4005,4.4005,4.4005,4.4005,4.4005,4.4005,4.4005,4.4005,4.367,4.2872,4.2797,4.211,4.0513,4.0401,4.0401,4.0383,3.9547,3.9101,3.9101,3.9101,3.9101,3.9101,3.9101,3.9101,3.9101,3.9101,3.9101,2.0941,2.1855,0.0,2.3678,0.0,0.0,0.0,3.0395,0.0,0.0,3.522,3.5445,3.6328,3.7676,3.8701,3.8908,4.1101,4.2881,4.3138,4.3918,4.4465,4.4465,4.4465,4.4465,4.4465,4.3681,4.292,4.2295,4.1495,4.0652,3.9777,3.9971,4.0244,4.0555,4.0221,4.0146,4.0373,4.0374,4.0203,3.9894,4.05,4.0906,4.1158,4.1158,4.1158,4.1158,4.1158,4.1023,4.079,4.079,4.079,4.079,4.0733,4.0654,4.0588,4.0593,4.0607,4.0775,4.1947,4.2375,4.2363,4.2227,4.2337,4.229,4.0901,4.0515,4.053,4.0339,4.0106,3.9844,3.9584,4.0746,4.1962,4.1962,4.3002,4.4005,4.4005,4.4005,4.4005,4.4005,4.4005,4.4005,4.4005,4.4005,4.4005,4.4005,4.4005,4.4005,4.4005,4.4005,4.4005,4.4005,4.4005,4.3893,4.3652,4.3132,4.2593,4.211,4.1033,4.0123,3.951,3.9231,3.9101,3.9101,3.9101,3.9101,3.9101,3.9101,3.9101,3.9101,3.9101,3.8804,2.1532,2.2424,0.0,2.4606,2.6555,2.8618,3.03,0.0,0.0,0.0,3.6916,3.6978,3.822,3.8942,3.9387,3.9566,4.1166,4.2396,4.2396,4.3157,4.3704,4.3704,4.3704,4.3704,4.37,4.2594,4.1677,4.1143,4.0031,3.9159,3.8624,3.8592,3.8811,3.9267,3.8756,3.8689,3.9081,3.9081,3.9062,3.8992,3.9514,3.9765,3.9785,4.0133,4.0268,4.0268,4.0268,4.0268,4.0307,4.0655,4.079,4.079,4.0612,4.0579,4.0588,4.0481,4.0511,4.0737,4.1672,4.1942,4.1856,4.1748,4.1649,4.1356,4.0191,3.9772,3.9675,3.9408,3.9245,3.923,3.9528,4.0364,4.12,4.1516,4.2835,4.4005,4.4005,4.4005,4.4005,4.4005,4.4005,4.4005,4.4005,4.4005,4.4005,4.4005,4.4005,4.4005,4.4005,4.4005,4.4005,4.4005,4.4005,4.4005,4.4005,4.3559,4.3132,4.2816,4.159,4.0494,3.964,3.9287,3.9101,3.9101,3.9101,3.9101,3.9101,3.9101,3.9101,3.9101,3.9101,3.8674,2.2352,2.3174,2.4205,2.5963,2.7778,0.0,3.135,3.477,3.8014,3.9444,3.8954,3.8732,4.0393,3.9616,3.9214,4.0737,4.1576,4.2084,4.2142,4.2786,4.3294,4.345,4.3391,4.3349,4.3349,4.1861,4.0848,4.0756,3.9273,3.8329,3.8242,3.8319,3.8319,3.8267,3.8255,3.8214,3.8172,3.8172,3.8141,3.8083,3.816,3.8199,3.8237,3.9011,3.9379,3.9379,3.9379,3.9429,3.9565,4.0268,4.0597,4.063,4.0319,4.0319,4.0444,4.0296,4.0383,4.0703,4.1561,4.1735,4.1569,4.1533,4.1414,4.1035,3.9917,3.9576,3.95,3.9173,3.9101,3.9287,4.0067,4.0383,4.068,4.1423,4.276,4.3912,4.3986,4.4005,4.4005,4.4005,4.4005,4.4005,4.4005,4.4005,4.4005,4.4005,4.4005,4.4005,4.4005,4.4005,4.4005,4.4005,4.4005,4.4005,4.4005,4.4005,4.3652,4.2853,4.211,4.1349,4.0531,3.9602,3.9101,3.9101,3.9101,3.9101,3.9101,3.9101,3.9101,3.9101,3.9027,3.8562,2.2199,2.2734,0.0,2.581,2.8657,3.1484,3.3903,3.564,3.6511,3.5688,3.7475,3.9344,3.9863,3.9726,3.9663,4.0015,3.9702,3.9644,4.0268,3.9976,4.019,4.1498,4.1108,4.0717,4.0717,3.9764,3.8854,3.8162,3.7147,3.6269,3.5586,3.6142,3.6456,3.6378,3.6328,3.6585,3.7193,3.7193,3.7193,3.7193,3.787,3.8199,3.8218,3.8392,3.8489,3.8489,3.8489,3.8876,3.9468,3.8953,3.9065,3.9562,3.9586,3.9557,3.9565,4.0265,4.0481,4.0473,4.0731,4.0674,4.0499,4.0328,4.0205,4.0056,3.9596,3.9369,3.9272,3.9156,3.9101,3.9138,3.9324,4.0364,4.1386,4.1553,4.2352,4.3225,4.3856,4.4005,4.4005,4.4005,4.4005,4.4005,4.4005,4.4005,4.4005,4.4005,4.4005,4.4005,4.4005,4.4005,4.4005,4.4005,4.4005,4.4005,4.4005,4.4005,4.3652,4.2853,4.263,4.2184,4.1367,3.99,3.9101,3.9101,3.9101,3.9101,3.9101,3.9101,3.9101,3.9082,3.8451,3.7726,2.2257,0.0,0.0,2.6905,0.0,3.1603,3.4151,3.5114,3.5263,3.4466,3.6736,3.8926,3.9046,3.9169,3.9234,3.9234,3.8863,3.8746,3.9175,3.8512,3.8294,3.9175,3.8902,3.8665,3.8665,3.8249,3.7614,3.6738,3.5879,3.4995,3.412,3.4489,3.4661,3.4552,3.4516,3.4883,3.5704,3.5704,3.5916,3.6323,3.6787,3.6787,3.6419,3.7212,3.7367,3.7019,3.7406,3.7831,3.8237,3.8119,3.8556,3.9295,3.8712,3.9092,3.9914,3.9753,3.9989,4.0406,4.0372,4.0233,4.004,3.9916,3.98,3.9631,3.9451,3.9301,3.9183,3.9129,3.9101,3.9194,3.9602,4.0048,4.0698,4.1887,4.2797,4.3485,4.3912,4.4005,4.4005,4.4005,4.4005,4.4005,4.4005,4.4005,4.4005,4.4005,4.4005,4.4005,4.4005,4.4005,4.4005,4.4005,4.4005,4.4005,4.4005,4.4005,4.3819,4.3392,4.3002,4.2612,4.2184,4.0958,4.0123,3.9733,3.9305,3.9101,3.9101,3.9101,3.9101,3.9082,3.8265,3.7466,2.2201,0.0,2.4862,2.7834,2.9494,0.0,3.3032,3.3854,3.4223,3.4404,3.6334,3.8019,3.7987,3.8198,3.8375,3.8375,3.8121,3.8024,3.8336,3.7497,3.7025,3.7474,3.7265,3.7072,3.7072,3.693,3.6484,3.5625,3.4883,3.4098,3.3218,3.3316,3.3248,3.2977,3.3113,3.349,3.4176,3.4176,3.4543,3.524,3.524,3.4872,3.4214,3.5607,3.5878,3.5317,3.6265,3.6679,3.6694,3.7236,3.8059,3.8846,3.7781,3.8501,4.0024,3.8951,3.9298,4.0247,3.9852,3.9678,3.9621,3.9599,3.9453,3.9282,3.9335,3.9275,3.9183,3.9129,3.9101,3.9268,3.9974,3.9751,3.9881,4.2073,4.3206,4.3838,4.3968,4.4005,4.4005,4.4005,4.4005,4.4005,4.4005,4.4005,4.4005,4.4005,4.4005,4.4005,4.4005,4.4005,4.4005,4.4005,4.4005,4.4005,4.4005,4.4005,4.4005,4.4005,4.3373,4.3002,4.3002,4.2092,4.1293,4.0606,3.9751,3.9324,3.9324,3.9175,3.9101,3.9082,3.8265,3.7466,2.1413,0.0,2.539,0.0,2.8674,3.0509,0.0,0.0,3.3522,3.4393,3.6008,3.7058,3.6426,3.6947,3.7477,3.7477,3.6208,3.5757,3.7262,3.6069,3.5893,3.8157,3.7084,3.6171,3.6171,3.5488,3.4687,3.3809,3.3633,3.32,3.2318,3.2919,3.2938,3.2106,3.2745,3.317,3.3256,3.3256,3.3334,3.345,3.345,3.3392,3.3276,3.3508,3.3546,3.3538,3.5162,3.5763,3.5624,3.5694,3.6161,3.6799,3.6734,3.7255,3.801,3.8019,3.8839,3.9749,3.8287,3.8102,3.8498,3.845,3.8371,3.842,3.9032,3.9183,3.9101,3.9101,3.9101,3.912,3.9231,3.9751,4.0476,4.1516,4.237,4.315,4.3856,4.4005,4.4005,4.4005,4.4005,4.4005,4.4005,4.4005,4.4005,4.4005,4.4005,4.4005,4.4005,4.4005,4.4005,4.4005,4.4005,4.4005,4.4005,4.4005,4.4005,4.4005,4.3893,4.3838,4.3838,4.2389,4.1553,4.1441,4.0624,4.0215,4.0215,3.9472,3.9101,3.9082,3.8265,3.7466,2.132,2.3086,2.4892,0.0,2.721,2.8824,3.0273,3.1229,3.206,3.2956,3.4155,3.5233,3.5874,3.6306,3.6579,3.6579,3.5522,3.4976,3.5737,3.4761,3.4212,3.4875,3.4703,3.4375,3.3906,3.3926,3.3607,3.2732,3.2664,3.2052,3.0664,3.0926,3.0674,2.9747,3.0056,3.0714,3.17,3.17,3.2184,3.3082,3.2599,3.2367,3.2367,3.2367,3.2638,3.316,3.4311,3.4719,3.4658,3.5062,3.5722,3.6415,3.6074,3.6688,3.7715,3.7187,3.7641,3.8376,3.753,3.742,3.7699,3.8078,3.8153,3.8245,3.8968,3.9156,3.9101,3.9101,3.9101,3.9101,3.9101,3.938,3.9993,4.1293,4.1869,4.2463,4.3726,4.4005,4.4005,4.4005,4.4005,4.4005,4.4005,4.4005,4.4005,4.4005,4.4005,4.4005,4.4005,4.4005,4.4005,4.4005,4.4005,4.4005,4.4005,4.4005,4.4005,4.4005,4.4005,4.4005,4.4005,4.289,4.2482,4.2946,4.0791,3.9658,3.9658,3.9287,3.9101,3.9082,3.8265,3.7708,0.0,0.0,2.3803,2.4657,2.5722,2.7059,0.0,2.9764,3.0462,3.1484,3.2244,3.328,3.5015,3.5525,3.5603,3.5386,3.4781,3.4371,3.4371,3.3634,3.2936,3.2485,3.2829,3.2851,3.2266,3.2539,3.2497,3.1833,3.1554,3.0838,2.9465,2.9195,2.875,2.8014,2.7995,2.8625,2.9921,3.0153,3.1004,3.2474,3.1816,3.1507,3.1507,3.1507,3.1816,3.2441,3.339,3.3621,3.3403,3.4155,3.5012,3.578,3.5205,3.601,3.7319,3.6306,3.654,3.7251,3.666,3.661,3.6911,3.7641,3.7829,3.7965,3.8894,3.9129,3.9101,3.9101,3.9101,3.9101,3.9101,3.9101,3.9472,4.094,4.1441,4.2036,4.3652,4.4005,4.4005,4.4005,4.4005,4.4005,4.4005,4.4005,4.4005,4.4005,4.4005,4.4005,4.4005,4.4005,4.4005,4.4005,4.4005,4.4005,4.4005,4.4005,4.4005,4.4005,4.4005,4.4005,4.4005,4.3225,4.3076,4.367,4.1089,3.9844,4.003,3.9621,3.9435,3.9417,3.8581,3.8098,0.0,2.1862,0.0,2.2941,2.4409,2.5726,2.5913,2.7247,2.8889,3.0526,3.0897,3.1465,3.3202,3.4217,3.4491,3.3671,3.3492,3.347,3.347,3.2768,3.2539,3.3242,3.2695,3.2246,3.2207,3.1484,3.0972,3.0886,3.01,2.9566,2.9407,2.8623,2.812,2.7995,2.7995,2.8053,2.8131,2.8954,2.9824,3.0733,3.0675,3.0656,3.0656,3.0656,3.0588,3.0537,3.223,3.2409,3.1603,3.2393,3.3249,3.4028,3.392,3.4827,3.6083,3.5287,3.5886,3.6878,3.5281,3.5259,3.6062,3.675,3.6963,3.7237,3.8672,3.9101,3.9101,3.9101,3.9101,3.9101,3.9101,3.9101,3.9324,4.0234,4.1051,4.2036,4.3652,4.4005,4.4005,4.4005,4.4005,4.4005,4.4005,4.4005,4.4005,4.4005,4.4005,4.4005,4.4005,4.4005,4.4005,4.4005,4.4005,4.4005,4.4005,4.4005,4.4005,4.4005,4.4005,4.4005,4.4005,4.3225,4.2816,4.2853,4.1943,4.185,4.2593,4.107,4.0327,4.0308,3.9435,3.8618,0.0,0.0,0.0,2.2218,2.3567,2.4976,2.5568,2.6624,2.7795,2.8967,2.9201,2.9396,3.0001,3.2187,3.3768,3.3456,3.2926,3.2572,3.2572,3.2358,3.2109,3.1836,3.2031,3.1973,3.1426,3.1047,3.058,2.9958,2.9606,2.8913,2.7735,2.7368,2.6942,2.6401,2.6401,2.6633,2.7155,2.8025,2.8625,2.8934,2.9495,2.9766,2.9785,3.02,3.0314,3.0209,3.0822,3.1188,3.139,3.2244,3.3048,3.3775,3.3789,3.441,3.5229,3.4983,3.5148,3.5409,3.4808,3.4789,3.518,3.5909,3.6478,3.7088,3.8059,3.8692,3.9101,3.9101,3.9101,3.9101,3.9101,3.9101,3.9454,4.0828,4.1776,4.2667,4.3763,4.4005,4.4005,4.4005,4.4005,4.4005,4.4005,4.4005,4.4005,4.4005,4.4005,4.4005,4.4005,4.4005,4.4005,4.4005,4.4005,4.4005,4.4005,4.4005,4.4005,4.4005,4.4005,4.4005,4.4005,4.3225,4.3039,4.3559,4.2779,4.1999,4.1256,4.068,4.0104,3.9547,3.925,3.8952,2.0593,0.0,0.0,0.0,2.2527,2.3776,2.4633,2.5492,2.6468,2.762,2.7854,2.7952,2.8244,3.0157,3.1777,3.2075,3.1873,3.1599,3.1296,3.1053,3.0684,3.0098,3.0788,3.0947,3.0072,3.0203,2.9945,2.903,2.8686,2.7995,2.676,2.6431,2.6044,2.553,2.5511,2.5898,2.6683,2.7271,2.7716,2.8014,2.8586,2.8994,2.9245,2.9663,2.9941,3.0109,3.008,3.0361,3.089,3.1504,3.2178,3.2855,3.3173,3.3713,3.4373,3.4678,3.471,3.4602,3.4602,3.4602,3.4711,3.546,3.6067,3.6621,3.7296,3.8061,3.8692,3.8692,3.8897,3.9101,3.9101,3.9101,3.9454,4.0847,4.1813,4.2612,4.3429,4.3819,4.4005,4.4005,4.4005,4.4005,4.4005,4.4005,4.4005,4.4005,4.4005,4.4005,4.4005,4.4005,4.4005,4.4005,4.4005,4.4005,4.4005,4.4005,4.4005,4.4005,4.4005,4.4005,4.4005,4.3485,4.3448,4.3986,4.3485,4.2537,4.12,4.0921,4.0364,3.9528,3.9231,3.925,0.0,0.0,0.0,0.0,2.1262,2.2119,2.2917,2.3775,2.4885,2.6568,2.6919,2.7173,2.803,2.8205,2.8502,2.9389,3.0259,3.053,2.9687,2.8828,2.8301,2.83,2.8985,2.9128,2.828,2.8893,2.9002,2.8136,2.7276,2.6765,2.6663,2.5917,2.5511,2.5511,2.5511,2.5878,2.6663,2.6663,2.7097,2.7937,2.7948,2.8357,2.9071,2.9029,2.9398,3.0075,3.0037,2.9965,2.9905,3.0049,3.0494,3.1214,3.1994,3.275,3.3531,3.4301,3.4602,3.4602,3.4602,3.4602,3.4711,3.5423,3.5675,3.5819,3.6496,3.7262,3.7894,3.7931,3.8488,3.9101,3.9101,3.9101,3.9324,4.0178,4.0996,4.1813,4.2593,4.3429,4.4005,4.4005,4.4005,4.4005,4.4005,4.4005,4.4005,4.4005,4.4005,4.4005,4.4005,4.4005,4.4005,4.4005,4.4005,4.4005,4.4005,4.4005,4.4005,4.4005,4.4005,4.4005,4.4005,4.4005,4.4005,4.4005,4.4005,4.3596,4.2797,4.2017,4.12,4.0364,3.951,3.9547,2.0599,0.0,0.0,0.0,0.0,0.0,2.2925,2.3778,2.4534,2.5026,2.5121,2.5199,2.5434,2.598,2.6704,2.7586,2.8451,2.8944,2.8691,2.8457,2.8274,2.8237,2.8422,2.8457,2.8216,2.8361,2.8097,2.7237,2.6892,2.6478,2.5859,2.5627,2.5511,2.5511,2.5511,2.5608,2.584,2.584,2.5956,2.6207,2.6771,2.7422,2.8115,2.8713,2.9385,3.0022,3.0007,2.995,2.9893,2.9836,3.0705,3.2049,3.2127,3.3006,3.4282,3.4508,3.4602,3.4602,3.4602,3.4602,3.4617,3.4731,3.5189,3.5819,3.6496,3.7262,3.8024,3.8599,3.8934,3.9101,3.9101,3.9101,3.9324,4.0178,4.0996,4.1664,4.1869,4.302,4.4005,4.4005,4.4005,4.4005,4.4005,4.4005,4.4005,4.4005,4.4005,4.4005,4.4005,4.4005,4.4005,4.4005,4.4005,4.4005,4.4005,4.4005,4.4005,4.4005,4.4005,4.4005,4.4005,4.4005,4.4005,4.4005,4.4005,4.3596,4.2797,4.2575,4.1757,4.0364,3.951,3.9231,0.0,0.0,0.0,0.0,0.0,0.0,2.2831,2.3203,2.3515,2.4251,2.411,2.3853,2.3853,2.4262,2.4788,2.5297,2.6109,2.6927,2.7656,2.7448,2.7191,2.7164,2.7431,2.7462,2.7105,2.7337,2.7163,2.632,2.6227,2.5986,2.553,2.5511,2.5511,2.5511,2.5511,2.5511,2.5511,2.5511,2.5484,2.5456,2.5931,2.6516,2.7236,2.8044,2.8849,2.9584,2.9779,2.9921,2.9975,2.9753,3.0301,3.1298,3.1504,3.2216,3.31,3.3419,3.3794,3.4095,3.4073,3.4277,3.4539,3.4386,3.496,3.5739,3.6105,3.7002,3.7986,3.8469,3.8841,3.9101,3.9101,3.9101,3.9231,3.9733,4.0736,4.1497,4.1163,4.263,4.3893,4.3559,4.3763,4.4005,4.4005,4.4005,4.4005,4.4005,4.4005,4.4005,4.4005,4.4005,4.4005,4.4005,4.4005,4.4005,4.4005,4.4005,4.4005,4.4005,4.4005,4.4005,4.4005,4.4005,4.4005,4.4005,4.4005,4.3763,4.3299,4.2965,4.1962,4.0364,3.951,3.9472,0.0,0.0,0.0,0.0,2.0721,0.0,2.262,2.2433,2.2348,2.3809,2.3493,2.2961,2.2958,2.3038,2.3117,2.3215,2.3871,2.4935,2.6495,2.6126,2.5689,2.5685,2.6265,2.6362,2.5588,2.6141,2.6276,2.555,2.5511,2.5511,2.5511,2.5511,2.5511,2.5511,2.5511,2.5511,2.5511,2.5484,2.5456,2.5401,2.5393,2.5784,2.65,2.7178,2.8051,2.9009,2.9415,2.9777,3.006,2.9737,2.9683,2.9889,3.0621,3.094,3.1109,3.1842,3.2591,3.3266,3.3278,3.3765,3.4342,3.4321,3.4889,3.5597,3.5615,3.6686,3.7912,3.8005,3.8544,3.9101,3.9101,3.9101,3.9101,3.9101,4.0308,4.1237,4.042,4.2092,4.3522,4.2816,4.3392,4.4005,4.4005,4.4005,4.4005,4.4005,4.4005,4.4005,4.4005,4.4005,4.4005,4.4005,4.4005,4.4005,4.4005,4.4005,4.4005,4.4005,4.4005,4.4005,4.4005,4.4005,4.4005,4.4005,4.4005,4.4005,4.4005,4.3188,4.2054,4.0643,3.977,4.0178,0.0,0.0,0.0,2.17,2.2023,0.0,2.2117,2.2419,2.2675,2.2363,2.2179,2.2053,2.2045,2.258,2.3247,2.3951,2.4206,2.4462,2.4845,2.5327,2.5599,2.5546,2.5666,2.5685,2.553,2.5646,2.5666,2.5511,2.5511,2.5511,2.5511,2.5511,2.5511,2.5511,2.5511,2.5511,2.5511,2.5456,2.5401,2.5401,2.5406,2.5764,2.6438,2.6672,2.757,2.8924,2.8852,2.9273,2.9977,2.9663,2.9982,3.0696,3.0827,3.1295,3.1894,3.2044,3.2173,3.2355,3.2988,3.3306,3.3549,3.4111,3.4889,3.5708,3.6285,3.7132,3.8042,3.8674,3.8971,3.9101,3.9101,3.9101,3.9101,3.9101,3.9881,4.0401,3.9547,4.0773,4.2017,4.185,4.3002,4.4005,4.4005,4.4005,4.4005,4.4005,4.4005,4.4005,4.4005,4.4005,4.4005,4.4005,4.4005,4.4005,4.4005,4.4005,4.4005,4.4005,4.4005,4.4005,4.4005,4.4005,4.4005,4.4005,4.4005,4.4005,4.4005,4.3188,4.263,4.2314,4.1479,4.1293,2.3045,2.3037,2.2893,2.2495,2.2365,0.0,0.0,2.2034,2.1843,2.2294,2.1736,2.1284,2.1718,2.2139,2.2536,2.299,2.3381,2.3667,2.3693,2.4051,2.4288,2.4249,2.4215,2.4196,2.4196,2.4602,2.5027,2.5472,2.5511,2.5511,2.5511,2.5511,2.5511,2.5511,2.5511,2.5484,2.5456,2.5429,2.5393,2.5406,2.5407,2.5563,2.5874,2.6369,2.7031,2.7795,2.8398,2.8928,2.9361,2.9457,2.9793,3.0206,3.0245,3.0469,3.0803,3.0803,3.1306,3.2051,3.2422,3.3071,3.3799,3.4139,3.5101,3.6217,3.6601,3.7541,3.8581,3.899,3.9101,3.9101,3.9101,3.9101,3.9101,3.9101,3.977,4.016,3.9287,4.042,4.159,4.159,4.2575,4.3392,4.3392,4.3392,4.3392,4.3392,4.3392,4.3559,4.3949,4.4005,4.4005,4.4005,4.4005,4.4005,4.4005,4.4005,4.4005,4.4005,4.4005,4.4005,4.4005,4.4005,4.4005,4.4005,4.4005,4.4005,4.4005,4.3596,4.3188,4.2779,4.1962,4.1813,2.3628,2.347,2.3388,2.306,2.2576,2.2216,0.0,0.0,0.0,2.2436,2.1655,2.0985,2.1849,2.201,2.1963,2.1818,2.233,2.2699,2.2499,2.2474,2.2681,2.3165,2.3042,2.2958,2.3132,2.3635,2.4227,2.495,2.5155,2.5252,2.526,2.5414,2.5511,2.5511,2.5511,2.5464,2.5401,2.5393,2.5395,2.5398,2.5389,2.5351,2.5322,2.6024,2.6504,2.6856,2.7951,2.8613,2.8906,2.9326,2.9472,2.9492,2.955,2.9531,2.9472,2.9472,3.0331,3.1542,3.1797,3.2724,3.3897,3.4314,3.5572,3.6946,3.7113,3.8061,3.9101,3.9101,3.9101,3.9101,3.9101,3.9101,3.9101,3.9101,3.964,3.9955,3.925,4.016,4.12,4.1534,4.211,4.2667,4.2983,4.302,4.302,4.302,4.289,4.3095,4.3893,4.3856,4.3838,4.3986,4.4005,4.4005,4.4005,4.4005,4.4005,4.4005,4.4005,4.4005,4.4005,4.4005,4.4005,4.4005,4.4005,4.4005,4.4005,4.4005,4.367,4.302,4.2352,4.2407,2.5026,2.5161,2.4764,2.328,2.3369,2.3253,2.1092,0.0,2.1524,2.1719,0.0,2.1745,2.261,0.0,0.0,2.1836,2.1797,2.1565,2.0714,2.0618,2.1475,2.379,2.3364,2.319,2.3983,2.3446,2.3098,2.319,2.391,2.4355,2.435,2.5085,2.5511,2.5511,2.5511,2.5464,2.5401,2.5404,2.5397,2.5398,2.5351,2.5313,2.5303,2.5399,2.6181,2.7478,2.7466,2.8272,2.9585,2.9456,2.9412,2.9412,2.9472,2.9472,2.9412,2.9412,2.9522,2.9911,3.1321,3.1935,3.2455,3.4624,3.6445,3.7894,3.8599,3.8952,3.9101,3.9101,3.9101,3.9101,3.9101,3.9101,3.9101,3.9101,3.9175,3.9212,3.912,3.925,3.9825,4.1311,4.1664,4.2184,4.3615,4.3856,4.3856,4.3856,4.3262,4.3095,4.3893,4.3373,4.3206,4.3912,4.4005,4.4005,4.4005,4.4005,4.4005,4.4005,4.4005,4.4005,4.4005,4.4005,4.4005,4.4005,4.4005,4.4005,4.4005,4.4005,4.3949,4.3856,4.3763,4.3782,2.5346,2.5056,2.4477,2.3774,2.311,2.2358,2.1297,2.0945,2.099,2.1499,0.0,0.0,0.0,0.0,0.0,0.0,2.1629,2.1506,2.1106,2.0617,2.072,2.1809,2.206,2.2485,2.3369,2.2666,2.2364,2.2861,2.3234,2.3446,2.3441,2.4273,2.4749,2.4761,2.5205,2.544,2.5406,2.5397,2.5379,2.5351,2.5313,2.5303,2.5303,2.5303,2.5606,2.618,2.6479,2.722,2.8181,2.8016,2.8516,2.9353,2.8871,2.8983,2.9409,2.9409,2.9686,3.0262,3.1392,3.2098,3.2823,3.4847,3.6575,3.7875,3.7745,3.8358,3.9008,3.8544,3.8729,3.9101,3.9101,3.9101,3.9101,3.9101,3.9101,3.9101,3.9101,3.9101,3.9602,4.1274,4.159,4.211,4.3726,4.3615,4.3299,4.3299,4.302,4.3095,4.3893,4.3708,4.3633,4.3968,4.4005,4.4005,4.4005,4.4005,4.4005,4.4005,4.4005,4.4005,4.4005,4.4005,4.4005,4.4005,4.4005,4.4005,4.4005,4.4005,4.4005,4.4005,4.4005,4.4005,2.5406,2.4934,2.4336,2.3865,2.2832,2.181,2.134,2.093,2.0836,2.1473,2.1326,0.0,0.0,0.0,2.1578,0.0,0.0,2.1157,2.093,2.0557,2.0383,2.0622,2.1201,2.1748,2.2149,2.1628,2.1519,2.2139,2.2415,2.255,2.2545,2.3608,2.42,2.4177,2.4968,2.5395,2.5398,2.5398,2.5361,2.5303,2.5303,2.5303,2.5303,2.5303,2.5327,2.5406,2.5896,2.6472,2.7063,2.7177,2.7957,2.9016,2.8626,2.8849,2.9407,2.9407,2.9909,3.0727,3.1504,3.2767,3.4179,3.5163,3.6723,3.8079,3.7262,3.7986,3.8971,3.8395,3.8655,3.9101,3.9101,3.9101,3.9101,3.9101,3.9101,3.9101,3.9101,3.9101,3.9602,4.1274,4.159,4.211,4.3726,4.3522,4.3132,4.3132,4.2946,4.3095,4.3893,4.3819,4.3763,4.3986,4.4005,4.4005,4.4005,4.4005,4.4005,4.4005,4.4005,4.4005,4.4005,4.4005,4.4005,4.4005,4.4005,4.4005,4.4005,4.4005,4.4005,4.4005,4.4005,4.4005,2.5407,2.5379,2.4946,2.3263,2.2799,2.2345,2.0704,2.0962,2.1564,2.1586,2.225,2.2837,2.2852,2.2163,0.0,0.0,0.0,0.0,0.0,1.9783,2.06,2.1451,2.1586,2.1278,2.0448,2.0357,2.0345,2.0379,2.1157,2.164,2.1642,2.3265,2.4177,2.4122,2.4943,2.5397,2.5398,2.5398,2.5361,2.5303,2.5303,2.5303,2.5303,2.5303,2.5578,2.6062,2.61,2.6408,2.6972,2.7752,2.8086,2.8216,2.9054,2.9388,2.9407,2.9407,2.9909,3.0727,3.1504,3.39,3.6445,3.5739,3.7113,3.8915,3.8098,3.8432,3.9082,3.9064,3.9082,3.9101,3.9101,3.9101,3.9101,3.9101,3.9101,3.9101,3.9101,3.9101,3.9602,4.1274,4.159,4.211,4.3726,4.3986,4.3968,4.3968,4.3299,4.3095,4.3893,4.3318,4.3132,4.3912,4.4005,4.4005,4.4005,4.4005,4.4005,4.4005,4.4005,4.4005,4.4005,4.4005,4.4005,4.4005,4.4005,4.4005,4.4005,4.4005,4.4005,4.4005,4.4005,4.4005,2.5351,2.4947,2.4408,2.3802,2.2782,2.1809,2.1278,2.1402,2.1448,2.0853,2.1432,2.1864,2.1292,2.0945,0.0,0.0,0.0,0.0,0.0,2.0041,2.0276,2.0572,2.0696,2.0858,2.1128,2.0111,1.9675,2.0269,2.0036,2.0133,2.0713,2.1852,2.2713,2.3229,2.4097,2.4792,2.5322,2.5322,2.5322,2.5303,2.5303,2.5303,2.5303,2.5222,2.522,2.5305,2.5205,2.5522,2.6098,2.5819,2.6674,2.8067,2.7845,2.8422,2.9407,2.9407,2.9909,3.0801,3.2117,3.4048,3.5757,3.4903,3.5943,3.7355,3.6556,3.7243,3.8302,3.8302,3.8692,3.9101,3.9101,3.9101,3.9101,3.9101,3.9101,3.9101,3.9101,3.9101,3.9602,4.1274,4.159,4.211,4.3726,4.4005,4.4005,4.4005,4.3763,4.3689,4.3968,4.3763,4.3708,4.3968,4.4005,4.4005,4.4005,4.4005,4.4005,4.4005,4.4005,4.4005,4.4005,4.4005,4.4005,4.4005,4.4005,4.4005,4.4005,4.4005,4.4005,4.4005,4.4005,4.4005,2.5313,2.4928,2.437,2.3802,2.2782,2.1886,2.1625,2.1575,2.1448,2.0877,2.1212,2.1328,2.046,2.0306,0.0,0.0,0.0,0.0,0.0,2.0079,2.004,2.004,2.0143,2.023,2.0172,1.9735,1.9456,1.94,1.9444,1.9714,2.0268,2.1405,2.2265,2.278,2.3916,2.4793,2.5284,2.5303,2.5303,2.5303,2.5303,2.5303,2.5303,2.516,2.5043,2.4902,2.4749,2.4912,2.5262,2.502,2.6024,2.766,2.7436,2.818,2.9407,2.9407,3.0095,3.1244,3.286,3.4327,3.5349,3.4476,3.5535,3.6965,3.6166,3.7039,3.8321,3.8321,3.8692,3.9101,3.9101,3.9101,3.9101,3.9101,3.9101,3.9101,3.9101,3.9101,3.951,4.0903,4.1386,4.2017,4.3355,4.3819,4.4005,4.4005,4.4005,4.4005,4.4005,4.4005,4.4005,4.4005,4.4005,4.4005,4.4005,4.4005,4.4005,4.4005,4.4005,4.4005,4.4005,4.4005,4.4005,4.4005,4.4005,4.4005,4.4005,4.4005,4.4005,4.4005,4.4005,4.4005]},{"header":{"parameterUnit":"m.s-1","parameterCategory":1,"la1":30.6,"la2":29.2853,"lo1":-89.7004,"lo2":-87.6739,"dy":0.0162,"dx":0.0183,"nx":112,"ny":82,"refTime":"2023-10-06T12:00:00:Z","depth":0,"parameterNumber":3,"parameterNumberName":"V-component_of_WINDS"},"data":[0.0,0.0,0.0,0.0,0.0,0.0,0.0,0.0,0.0,0.0,0.0,0.0,0.0,0.0,0.0,0.0,0.0,0.0,0.0,0.0,0.0,0.0,0.0,0.0,0.0,0.0,0.0,0.0,0.0,0.0,0.0,0.0,0.0,0.0,0.0,0.0,0.0,0.0,0.0,0.0,0.0,0.0,0.0,0.0,0.0,0.0,0.0,0.0,0.0,0.0,0.0,0.0,0.0,0.0,0.0,0.0,0.0,0.0,0.0,0.0,0.0,0.0,0.0,0.0,0.0,0.0,0.0,0.0,0.0,0.0,0.0,0.0,0.0,0.0,0.0,0.0,0.0,0.0,0.0,0.0,0.0,0.0,0.0,0.0,0.0,0.0,0.0,0.0,0.0,0.0,0.1529,0.4077,0.4895,0.4664,0.317,0.3418,0.4088,0.4996,0.0,0.0,0.0,0.0,0.0,0.0,0.0,0.0,0.0,0.0,0.0,0.0,0.0,0.0,0.0,0.0,0.0,0.0,0.0,0.0,0.0,0.0,0.0,0.0,0.0,0.0,0.0,0.0,0.0,0.0,0.0,0.0,0.0,0.0,0.0,0.0,0.0,0.0,0.0,0.0,0.0,0.0,0.0,0.0,0.0,0.0,0.0,0.0,0.0,0.0,0.0,0.0,0.0,0.0,0.0,0.0,0.0,0.0,0.0,0.0,0.0,0.0,0.0,0.0,0.0,0.0,0.0,0.0,0.0,0.0,0.0,0.0,0.0,0.0,0.0,0.0,0.0,0.0,0.0,0.0,0.0,0.0,0.0,0.0,0.0,0.0,0.0,0.0,0.0,0.0,0.0,0.0,0.0,0.0,0.0,0.0,0.0,0.0,0.0,0.0,0.0,0.0,0.0,0.0,0.3411,0.4383,0.4535,0.4529,0.4548,0.4307,0.4316,0.4793,0.0,0.0,0.0,0.0,0.0,0.0,0.0,0.0,0.0,0.0,0.0,0.0,0.0,0.0,0.0,0.0,0.0,0.0,0.0,0.0,0.0,0.0,0.0,0.0,0.0,0.0,0.0,0.0,0.0,0.0,0.0,0.0,0.0,0.0,0.0,0.0,0.0,0.0,0.0,0.0,0.0,0.0,0.0,0.0,0.0,0.0,0.0,0.0,0.0,0.0,0.0,0.0,0.0,0.0,0.0,0.0,0.0,0.0,0.0,0.0,0.0,0.0,0.0,0.0,0.0,0.0,0.0,0.0,0.0,0.0,0.0,0.0,0.0,0.0,0.0,0.0,0.0,0.0,0.0,0.0,0.0,0.0,0.0,0.0,0.0,0.0,0.0,0.0,0.0,0.0,0.0,0.0,0.0,0.0,0.0,0.0,0.0,0.0,0.0,0.0,0.0,0.0,0.0,0.2086,0.3219,0.4201,0.4503,0.4627,0.4703,0.4492,0.4642,0.528,0.5084,0.0,0.0,0.0,0.0,0.0,0.0,0.0,0.0,0.0,0.0,0.0,0.0,0.0,0.0,0.0,0.0,0.0,0.0,0.0,0.0,0.0,0.0,0.0,0.0,0.0,0.0,0.0,0.0,0.0,0.0,0.0,0.0,0.0,0.0,0.0,0.0,0.0,0.0,0.0,0.0,0.0,0.0,0.0,0.0,0.0,0.0,0.0,0.0,0.0,0.0,0.0,0.0,0.0,0.0,0.0,0.0,0.0,0.0,0.0,0.0,0.0,0.0,0.0,0.0,0.0,0.0,0.0,0.0,0.0,0.0,0.0,0.0,0.0,0.0,0.0,0.0,0.0,0.0,0.0,0.0,0.0,0.0,0.0,0.0,0.0,0.0,0.0,0.0,0.0,0.0,0.0,0.0,0.0,0.0,0.0,0.0,0.0,0.0,0.0,0.0,0.0,0.0,0.2423,0.295,0.4071,0.448,0.4636,0.4558,0.4505,0.4828,0.5687,0.5577,0.0,0.0,0.0,0.0,0.0,0.0,0.0,0.0,0.0,0.0,0.0,0.0,0.0,0.0,0.0,0.0,0.0,0.0,0.0,0.0,0.0,0.0,0.0,0.0,0.0,0.0,0.0,0.0,0.0,0.0,0.0,0.0,0.0,0.0,0.0,0.0,0.0,0.0,0.0,0.0,0.0,0.0,0.0,0.0,0.0,0.0,0.0,0.0,0.0,0.0,0.0,0.0,0.0,0.0,0.0,0.0,0.0,0.0,0.0,0.0,0.0,0.0,0.0,0.0,0.0,0.0,0.0,0.0,0.0,0.0,0.0,0.0,0.0,0.0,0.0,0.0,0.0,0.0,0.0,0.0,0.0,0.0,0.0,0.0,0.0,0.0,0.0,0.0,0.0,0.0,0.0,0.0,0.0,0.0,0.0,0.0,0.0,0.0,0.0,0.0,0.0,0.0,0.3483,0.3763,0.4405,0.4324,0.4324,0.4494,0.4351,0.4606,0.5574,0.5542,0.0,0.0,0.0,0.0,0.0,0.0,0.0,0.0,0.0,0.0,0.0,0.0,0.0,0.0,0.0,0.0,0.0,0.0,0.0,0.0,0.0,0.0,0.0,0.0,0.0,0.0,0.0,0.0,0.0,0.0,0.0,0.0,0.0,0.0,0.0,0.0,0.0,0.0,0.0,0.0,0.0,0.0,0.0,0.0,0.0,0.0,0.0,0.0,0.0,0.0,0.0,0.0,0.0,0.0,0.0,0.0,0.0,0.0,0.0,0.0,0.0,0.0,0.0,0.0,0.0,0.0,0.0,0.0,0.0,0.0,0.0,0.0,0.0,0.0,0.0,0.0,0.0,0.0,0.0,0.0,0.0,0.0,0.0,0.0,0.0,0.0,0.0,0.0,0.0,0.0,0.0,0.0,0.0,0.0,0.0,0.0,0.0,0.0,0.0,0.0,0.0,0.0,0.3614,0.3786,0.4268,0.4356,0.4408,0.4519,0.4501,0.4918,0.5916,0.0,0.0,0.0,0.0,0.0,0.0,0.0,0.0,0.0,0.0,0.0,0.0,0.0,0.0,0.0,0.0,0.0,0.0,0.0,0.0,0.0,0.0,0.0,0.0,0.0,0.0,0.0,0.0,0.0,0.0,0.0,0.0,0.0,0.0,0.0,0.0,0.0,0.0,0.0,0.0,0.0,0.0,0.0,0.0,0.0,0.0,0.0,0.0,0.0,0.0,0.0,0.0,0.0,0.0,0.0,0.0,0.0,0.0,0.0,0.0,0.0,0.0,0.0,0.0,0.0,0.0,0.0,0.0,0.0,0.0,0.0,0.0,0.0,0.0,0.0,0.0,0.0,0.0,0.0,0.0,0.0,0.0,0.0,0.0,0.0,0.0,0.0,0.0,0.0,0.0,0.0,0.0,0.0,0.0,0.0,0.0,0.0,0.0,0.0,0.0,0.0,0.0,0.369,0.3681,0.3826,0.4262,0.4574,0.4714,0.4613,0.4872,0.5395,0.6278,0.0,0.0,0.0,0.0,0.0,0.0,0.0,0.0,0.0,0.0,0.0,0.0,0.0,0.0,0.0,0.0,0.0,0.0,0.0,0.0,0.0,0.0,0.0,0.0,0.0,0.0,0.0,0.0,0.0,0.0,0.0,0.0,0.0,0.0,0.0,0.0,0.0,0.0,0.0,0.0,0.0,0.0,0.0,0.0,0.0,0.0,0.0,0.0,0.0,0.0,0.0,0.0,0.0,0.0,0.0,0.0,0.0,0.0,0.0,0.0,0.0,0.0,0.0,0.0,0.0,0.0,0.0,0.0,0.0,0.0,0.0,0.0,0.0,0.0,0.0,0.0,0.0,0.0,0.0,0.0,0.0,0.0,0.0,0.0,0.0,0.0,0.0,0.0,0.0,0.0,0.0,0.0,0.0,0.0,0.0,0.0,0.0,0.0,0.0,0.0,0.0,0.0,0.3932,0.3826,0.3885,0.4433,0.4952,0.5209,0.4931,0.5358,0.5926,0.0,0.0,0.0,0.0,0.0,0.0,0.0,0.0,0.0,0.0,0.0,0.0,0.0,0.0,0.0,0.0,0.0,0.0,0.0,0.0,0.0,0.0,0.0,0.0,0.0,0.0,0.0,0.0,0.0,0.0,0.0,0.0,0.0,0.0,0.0,0.0,0.0,0.0,0.0,0.0,0.0,0.0,0.0,0.0,0.0,0.0,0.0,0.0,0.0,0.0,0.0,0.0,0.0,0.0,0.0,0.0,0.0,0.0,0.0,0.0,0.0,0.0,0.0,0.0,0.0,0.0,0.0,0.0,0.0,0.0,0.0,0.0,0.0,0.0,0.0,0.0,0.0,0.0,0.0,0.0,0.0,0.0,0.0,0.0,0.0,0.0,0.0,0.0,0.0,0.0,0.0,0.0,0.0,0.0,0.0,0.0,0.0,0.0,0.0,0.0,0.0,0.0,0.0,0.3794,0.3621,0.3673,0.4216,0.4787,0.5097,0.4931,0.5653,0.6335,0.6951,0.0,0.0,0.0,0.0,0.0,0.0,0.0,0.0,0.0,0.0,0.0,0.0,0.0,0.0,0.0,0.0,0.0,0.0,0.0,0.0,0.0,0.0,0.0,0.0,0.0,0.0,0.0,0.0,0.0,0.0,0.0,0.0,0.0,0.0,0.0,0.0,0.0,0.0,0.0,0.0,0.0,0.0,0.0,0.0,0.0,0.0,0.0,0.0,0.0,0.0,0.0,0.0,0.0,0.0,0.0,0.0,0.0,0.0,0.0,0.0,0.0,0.0,0.0,0.0,0.0,0.0,0.0,0.0,0.0,0.0,0.0,0.0,0.0,0.0,0.0,0.0,0.0,0.0,0.0,0.0,0.0,0.0,0.0,0.0,0.0,0.0,0.0,0.0,0.0,0.0,0.0,0.0,0.0,0.0,0.0,0.0,0.0,0.0,0.0,0.0,0.0,0.0,0.3995,0.3963,0.4025,0.4484,0.5386,0.5797,0.5661,0.6256,0.6864,0.7369,0.0,0.0,0.0,0.0,0.0,0.0,0.0,0.0,0.0,0.0,0.0,0.0,0.0,0.0,0.0,0.0,0.0,0.0,0.0,0.0,0.0,0.0,0.0,0.0,0.0,0.0,0.0,0.0,0.0,0.0,0.0,0.0,0.0,0.0,0.0,0.0,0.0,0.0,0.0,0.0,0.0,0.0,0.0,0.0,0.0,0.0,0.0,0.0,0.0,0.0,0.0,0.0,0.0,0.0,0.0,0.0,0.0,0.0,0.0,0.0,0.0,0.0,0.0,0.0,0.0,0.0,0.0,0.0,0.0,0.0,0.0,0.0,0.0,0.0,0.0,0.0,0.0,0.0,0.0,0.0,0.0,0.0,0.0,0.0,0.0,0.0,0.0,0.0,0.0,0.0,0.0,0.0,0.0,0.0,0.0,0.0,0.0,0.0,0.0,0.0,0.0,0.0,0.4496,0.4504,0.4676,0.5124,0.6312,0.6988,0.6705,0.7031,0.7395,0.7797,0.0,0.0,0.0,0.0,0.0,0.0,0.0,0.0,0.0,0.0,0.0,0.0,0.0,0.0,0.0,0.0,0.0,0.0,0.0,0.0,0.0,0.0,0.0,0.0,0.0,0.0,0.0,0.0,0.0,0.0,0.0,0.0,0.0,0.0,0.0,0.0,0.0,0.0,0.0,0.0,0.0,0.0,0.0,0.0,0.0,0.0,0.0,0.0,0.0,0.0,0.0,0.0,0.0,0.0,0.0,0.0,0.0,0.0,0.0,0.0,-0.3029,-0.1728,0.0,0.0,0.0,0.0,0.0,0.0,0.0,0.0,0.0,0.0,0.0,0.0,0.0,0.0,0.0,0.0,0.0,0.0,0.0,0.0,0.0,0.0,0.0,0.0,0.0,0.0,0.0,0.0,0.0,0.0,0.0,0.0,0.0,0.0,0.0,0.0,0.0,0.0,0.0,0.0,0.4992,0.4652,0.4684,0.5567,0.6421,0.6871,0.6705,0.7193,0.7591,0.781,0.8383,0.0,0.0,0.0,0.0,0.0,0.0,0.0,0.0,0.0,0.0,0.0,0.0,0.0,0.0,0.0,0.0,0.0,0.0,0.0,0.0,0.0,0.0,0.0,0.0,0.0,0.0,0.0,0.0,0.0,0.0,0.0,0.0,0.0,0.0,0.0,0.0,0.0,0.0,0.0,0.0,0.0,0.0,0.0,0.0,0.0,0.0,0.0,0.0,0.0,0.0,0.0,0.0,0.0,0.0,0.0,0.0,0.0,0.0,0.0,-0.3599,-0.2808,0.0,0.0,0.0,0.0,0.0,0.0,0.0,0.0,0.0,0.0,0.0,0.0,0.0,0.0,0.0,0.0,0.0,0.0,0.0,0.0,0.0,0.0,0.0,0.0,0.0,0.0,0.0,0.0,0.0,0.0,0.0,0.0,0.0,0.0,0.0,0.0,0.0,0.0,0.0,0.0,0.5636,0.5485,0.5546,0.6117,0.6912,0.7351,0.7285,0.7469,0.7656,0.7847,0.8322,0.0,0.0,0.0,0.0,0.0,0.0,0.0,0.0,0.0,0.0,0.0,0.0,0.0,0.0,0.0,0.0,0.0,0.0,0.0,0.0,0.0,0.0,0.0,0.0,0.0,0.0,0.0,0.0,0.0,0.0,0.0,0.0,0.0,0.0,0.0,0.0,0.0,0.0,0.0,0.0,0.0,0.0,0.0,0.0,0.0,0.0,0.0,0.0,0.0,0.0,0.0,0.0,0.0,-0.5701,-0.5506,-0.5213,-0.4997,-0.5015,-0.5292,-0.3964,-0.3661,-0.3929,-0.1769,0.0,0.0,0.0,0.0,0.0,0.0,0.0,0.0,0.0,0.0,0.0,0.0,0.0,0.0,0.0,0.0,0.0,0.0,0.0,0.0,0.0,0.0,0.1821,0.1835,0.2422,0.3229,0.4225,0.0,0.0,0.0,0.0,0.0,0.0,0.0,0.0,0.0,0.0,0.0,0.6108,0.6257,0.6447,0.673,0.7461,0.7901,0.7901,0.7744,0.7713,0.7883,0.8249,0.8626,0.0,0.0,0.0,0.0,0.0,0.0,0.0,0.0,0.0,0.0,0.0,0.0,0.0,0.0,0.0,0.0,0.0,0.0,0.0,0.0,0.0,0.0,0.0,0.0,0.0,0.0,0.0,0.0,0.0,0.0,0.0,0.0,-0.3646,-0.3137,0.0,0.0,0.0,0.0,0.0,0.0,0.0,0.0,0.0,0.0,0.0,0.0,0.0,-0.4113,-0.4579,-0.5335,-0.624,-0.7458,-0.7257,-0.7167,-0.7102,-0.6878,-0.6257,-0.5413,-0.4977,0.0,-0.3661,-0.3113,0.0,0.0,0.0,0.0,0.0,0.0,0.0,0.0,0.0,0.0,0.0,0.0,0.0,0.0,0.0,0.0,0.0,0.0,0.0,0.0,0.0,0.0,0.0296,0.0305,0.0369,0.117,0.3798,0.3582,0.3124,0.3778,0.3974,0.4079,0.0,0.0,0.0,0.0,0.0,0.0,0.5944,0.5841,0.6129,0.7272,0.7681,0.7901,0.7901,0.7865,0.7865,0.7895,0.7972,0.8271,0.8974,0.8958,0.0,0.0,0.0,0.0,0.0,0.0,0.0,0.0,0.0,0.0,0.0,0.0,0.0,0.0,0.0,0.0,0.0,0.0,0.0,0.0,0.0,0.0,0.0,0.0,0.0,0.0,0.0,0.0,0.0,-0.3119,-0.3529,-0.4018,-0.3619,-0.3178,0.0,0.0,0.0,0.0,0.0,0.0,0.0,0.0,0.0,-0.5084,-0.5283,-0.5742,-0.6496,-0.6866,-0.7118,-0.7388,-0.7293,-0.7,-0.6644,-0.682,-0.6331,-0.523,-0.4863,-0.418,-0.3164,-0.2992,-0.2252,-0.1014,0.0,0.0,0.0,0.0,0.2513,0.3283,0.3595,0.3225,0.2365,0.1508,0.0,0.0,0.0,0.0,0.0,0.0,0.0,0.3898,0.4464,0.3242,0.176,0.1454,0.141,0.1683,0.2807,0.3332,0.3693,0.3946,0.4022,0.4134,0.4532,0.4793,0.0,0.0,0.0,0.5797,0.6284,0.6549,0.6908,0.7557,0.7788,0.7901,0.7901,0.7901,0.7901,0.7901,0.7901,0.8055,0.8362,0.8468,0.8732,0.0,0.0,0.0,0.0,0.0,0.0,0.0,0.0,0.0,0.0,0.0,0.0,0.0,0.0,0.0,0.0,0.0,0.0,0.0,0.0,0.0,0.0,0.0,0.0,0.0,0.0,0.0,0.0,-0.3285,-0.3924,-0.448,-0.4104,-0.3516,0.0,0.0,0.0,0.0,0.0,0.0,-0.4878,-0.5018,-0.562,-0.6714,-0.681,-0.7232,-0.8028,-0.8122,-0.7935,-0.749,-0.7164,-0.6734,-0.6255,-0.6258,-0.5777,-0.4716,-0.4344,-0.3532,-0.2546,-0.2389,-0.212,-0.1678,0.027,0.1117,0.1353,0.1996,0.2023,0.1859,0.3179,0.3105,0.2233,0.1027,0.1381,0.239,0.2787,0.0,0.0,0.0,0.0,0.345,0.4483,0.4217,0.3574,0.3248,0.3162,0.3105,0.2861,0.3655,0.4375,0.4134,0.4051,0.4145,0.4574,0.4646,0.0,0.5516,0.5843,0.6188,0.6693,0.7099,0.7503,0.7775,0.7884,0.7901,0.7901,0.7901,0.7901,0.7901,0.7901,0.7901,0.7901,0.8062,0.8168,0.8221,0.0,0.0,0.0,0.0,0.0,0.0,0.0,0.0,0.0,0.0,0.0,0.0,0.0,0.0,0.0,0.0,0.0,0.0,0.0,0.0,0.0,0.0,0.0,0.0,0.0,0.0,0.0,0.0,0.0,-0.4182,-0.468,0.0,0.0,0.0,0.0,-0.5714,-0.5205,-0.5237,-0.6184,-0.6428,-0.6973,-0.7877,-0.8312,-0.8584,-0.8763,-0.8917,-0.8909,-0.8841,-0.7713,-0.7189,-0.7102,-0.581,-0.4712,-0.3706,-0.3345,-0.2638,-0.1648,-0.1456,-0.1356,-0.1164,-0.0,0.029,0.0362,0.268,0.2101,0.0217,0.1129,0.1398,0.1395,0.1254,0.2017,0.2969,0.3422,0.3394,0.0,0.0,0.3263,0.3502,0.466,0.4914,0.4886,0.4865,0.4899,0.4857,0.4878,0.4806,0.4652,0.417,0.4,0.395,0.401,0.0,0.4268,0.4959,0.5074,0.5595,0.7008,0.7087,0.73,0.7998,0.7997,0.7901,0.7901,0.7901,0.7901,0.7901,0.7901,0.7901,0.7901,0.7901,0.8008,0.8221,0.8221,0.0,0.0,0.0,0.0,0.0,0.0,0.0,0.0,0.0,0.0,0.0,0.0,0.0,0.0,0.0,0.0,0.0,0.0,0.0,0.0,0.0,0.0,0.0,0.0,0.0,0.0,0.0,0.0,-0.513,-0.6051,0.0,-0.586,-0.6205,-0.6471,-0.6396,-0.6636,-0.6983,-0.7562,-0.7749,-0.8225,-0.8861,-0.9007,-0.8871,-0.8268,-0.8975,-0.8241,-0.6067,-0.6307,-0.5627,-0.4124,-0.4128,-0.3627,-0.2622,-0.3002,-0.2595,-0.1594,-0.151,-0.1435,-0.1283,-0.0498,-0.0402,-0.0549,0.0784,0.0705,0.0078,0.0699,0.0929,0.1,0.1712,0.2159,0.2451,0.2677,0.3289,0.3979,0.4273,0.4426,0.4607,0.4956,0.5004,0.4997,0.4966,0.4974,0.4963,0.4925,0.4806,0.4703,0.4519,0.4278,0.4132,0.4072,0.3986,0.4171,0.4886,0.5359,0.6032,0.7171,0.7597,0.8021,0.8427,0.8459,0.8333,0.8165,0.8153,0.8081,0.7913,0.7901,0.7901,0.7901,0.7901,0.7955,0.8008,0.8008,0.8008,0.0,0.0,0.0,0.0,0.0,0.0,0.0,0.0,0.0,0.0,0.0,0.0,0.0,0.0,0.0,0.0,0.0,0.0,0.0,0.0,0.0,0.0,0.0,0.0,0.0,-0.5293,-0.639,-0.5872,-0.7383,-0.7959,-0.6659,-0.7202,-0.7533,-0.7346,-0.7843,-0.8272,-0.8629,-0.8763,-0.9023,-0.9433,-0.9445,-0.901,-0.8021,-0.8524,-0.7425,-0.4826,-0.4926,-0.4227,-0.2723,-0.2823,-0.2523,-0.1921,-0.2422,-0.222,-0.1615,-0.1595,-0.1551,-0.1399,-0.0817,-0.0709,-0.0694,-0.0172,0.0,0.0086,0.0338,0.1001,0.1802,0.2459,0.2764,0.2921,0.3345,0.4024,0.4776,0.5169,0.526,0.5291,0.5176,0.508,0.5086,0.5127,0.5075,0.5007,0.4963,0.4923,0.4871,0.4792,0.4583,0.4368,0.4208,0.4113,0.437,0.549,0.5875,0.6616,0.7995,0.8381,0.8585,0.8813,0.8651,0.8477,0.8303,0.8207,0.8087,0.7913,0.7901,0.7901,0.7901,0.7901,0.7901,0.7901,0.7901,0.7901,0.7895,0.0,0.0,0.0,0.0,0.0,0.0,0.0,0.0,0.0,0.0,0.0,0.0,0.0,0.0,0.0,0.0,0.0,0.0,0.0,0.0,0.0,0.0,0.0,-0.4657,-0.6304,-0.726,-0.6329,-0.8402,-0.9292,-0.7728,-0.8371,-0.8914,-0.8857,-0.8845,-0.8999,-0.9352,-0.9364,-0.9445,-0.962,-0.9628,-0.9027,-0.7922,-0.7422,-0.6623,-0.5522,-0.3924,-0.3224,-0.3123,-0.212,-0.1617,-0.1617,-0.1617,-0.1617,-0.1617,-0.1617,-0.1617,-0.151,-0.097,-0.0385,0.0,0.0,0.0,0.0,0.0091,0.1659,0.3626,0.3544,0.3878,0.4462,0.5555,0.5728,0.556,0.5638,0.5546,0.5404,0.5521,0.5371,0.5222,0.5336,0.5189,0.505,0.5159,0.5094,0.5018,0.5018,0.4825,0.466,0.4346,0.4303,0.4894,0.6662,0.6706,0.0,0.9397,0.9221,0.8965,0.9082,0.8627,0.8321,0.8303,0.8069,0.7919,0.7901,0.7901,0.7901,0.7901,0.7901,0.7901,0.7901,0.7907,0.7913,0.7913,0.0,0.0,0.0,0.0,0.0,0.0,0.0,0.0,0.0,0.0,0.0,0.0,0.0,0.0,0.0,0.0,0.0,0.0,0.0,0.0,0.0,-0.6078,-0.7177,-0.6943,-0.8325,-0.9415,-0.9548,-1.0232,-1.0556,-1.0087,-0.9827,-0.9769,-0.9797,-0.9527,-0.9502,-0.9726,-0.962,-0.9575,-0.9624,-0.9628,-0.8722,-0.6822,-0.7319,-0.6119,-0.3324,-0.3422,-0.3021,-0.2019,-0.1717,-0.1617,-0.1617,-0.1617,-0.1617,-0.1617,-0.1617,-0.1415,-0.1009,-0.1298,-0.0791,0.0,0.0,0.0,0.0183,0.1648,0.3395,0.5028,0.4559,0.4793,0.5357,0.5697,0.5725,0.5638,0.5722,0.557,0.551,0.5456,0.5436,0.5303,0.5249,0.5186,0.5127,0.5075,0.504,0.5015,0.5168,0.5038,0.4811,0.448,0.4487,0.502,0.6523,0.6746,0.7404,0.9167,0.9262,0.9231,0.9364,0.9244,0.8998,0.8603,0.8507,0.8303,0.7925,0.7901,0.7901,0.7901,0.7901,0.7901,0.7901,0.8087,0.8183,0.0,0.0,0.0,0.0,0.0,0.0,0.0,0.0,0.0,0.0,0.0,0.0,0.0,0.0,0.0,0.0,0.0,0.0,0.0,0.0,0.0,0.0,-0.7757,-0.8909,-0.9311,-0.9886,-1.0378,-1.0897,-1.0959,-1.0972,-1.0876,-1.0484,-1.0209,-1.0034,-0.9851,-0.9746,-0.9774,-0.9681,-0.9628,-0.9628,-0.9628,-0.8524,-0.6423,-0.662,-0.5322,-0.2422,-0.2621,-0.232,-0.1617,-0.1617,-0.1617,-0.1617,-0.1617,-0.1617,-0.1617,-0.1617,-0.1415,-0.1212,0.0,0.0,0.0,0.0,0.1049,0.2585,0.3642,0.4754,0.5667,0.527,0.5422,0.5736,0.5714,0.5733,0.5733,0.5733,0.5684,0.5638,0.5687,0.5572,0.5439,0.542,0.5339,0.5233,0.5113,0.5089,0.5151,0.5254,0.5126,0.0,0.4801,0.5008,0.5603,0.6895,0.7301,0.7945,0.9319,0.9443,0.9397,0.9426,0.9376,0.9178,0.8867,0.8741,0.0,0.0,0.0,0.8225,0.8225,0.8225,0.0,0.0,0.0,0.8453,0.8453,0.8453,0.0,0.0,0.8003,0.7901,0.0,0.0,0.0,0.0,0.0,0.0,0.0,0.0,0.0,0.0,0.0,0.0,0.0,0.0,0.0,0.0,-0.9527,-1.0518,-1.1344,-1.0981,-1.0799,-1.1019,-1.0928,-1.0824,-1.0636,-1.0581,-1.0389,-0.9957,-0.9892,-0.9799,-0.9665,-0.964,0.0,0.0,0.0,-0.8524,-0.6423,-0.5824,-0.4524,-0.2422,-0.1818,-0.1617,-0.1617,-0.1617,-0.1617,-0.1617,-0.1617,-0.1617,-0.1617,-0.1617,-0.1516,-0.1415,-0.1415,-0.0807,0.0,0.0,0.2457,0.5721,0.5718,0.0,0.0,0.5657,0.5741,0.5733,0.5733,0.5733,0.5735,0.5749,0.5744,0.576,0.5874,0.5738,0.5507,0.5689,0.5548,0.5358,0.5233,0.5197,0.5236,0.5364,0.5237,0.5144,0.5127,0.5599,0.6294,0.7367,0.7919,0.8554,0.9539,0.9627,0.9513,0.9409,0.9211,0.0,0.9132,0.8855,0.8711,0.8681,0.8681,0.8681,0.8681,0.8681,0.8681,0.8681,0.8705,0.8723,0.8723,0.8723,0.8723,0.8711,0.8219,0.7991,0.0,0.0,0.0,0.0,0.0,0.0,0.0,0.0,0.0,0.0,0.0,0.0,0.0,0.0,0.0,-0.9087,-1.0676,-1.1694,-1.1836,-1.1751,-1.1555,-1.1467,-1.1108,-1.0971,-1.1008,-1.0402,-1.0149,-1.0306,-0.9925,-0.9726,-0.9827,-0.9701,-0.9628,-0.9628,-0.9628,-0.8524,-0.6423,-0.5824,-0.4524,-0.2422,-0.1818,0.0,-0.1617,-0.1617,-0.1617,-0.1617,-0.1617,-0.1617,-0.1617,-0.1617,-0.1111,-0.0303,-0.0303,-0.02,0.0,0.0,0.2408,0.5696,0.5689,0.5686,0.5657,0.5738,0.5735,0.5733,0.5733,0.5733,0.0,0.5844,0.5803,0.576,0.5874,0.5801,0.5678,0.5518,0.5548,0.5483,0.536,0.5257,0.5339,0.5636,0.5373,0.5177,0.552,0.546,0.5581,0.6219,0.7116,0.7958,0.885,0.9349,0.965,0.9796,0.9562,0.931,0.9144,0.9083,0.8902,0.8693,0.8681,0.8681,0.8681,0.8681,0.8681,0.8681,0.8884,0.9053,0.9053,0.9053,0.9053,0.9041,0.8669,0.8531,0.0,0.0,0.0,0.0,0.0,0.0,0.0,0.0,0.0,0.0,0.0,-0.601,-0.6783,0.0,-0.9393,-1.0654,-1.1549,-1.2156,-1.1926,-1.1913,-1.1792,-1.159,-1.1159,-1.0925,-1.1118,-1.0663,-1.0331,-1.0428,-1.0099,-0.9892,-0.9884,-0.9721,-0.9327,-0.8825,-0.8825,-0.7723,-0.5427,-0.5024,-0.3925,-0.2222,-0.1818,-0.1617,-0.1617,-0.1617,-0.1617,-0.1617,-0.1617,-0.1617,-0.1617,-0.1617,-0.101,0.0,0.0,0.0,0.0,0.0,0.1857,0.4569,0.5376,0.575,0.5814,0.5754,0.5733,0.5733,0.5733,0.5733,0.5744,0.5803,0.5776,0.5746,0.5803,0.5776,0.5716,0.5742,0.5813,0.5779,0.5829,0.5832,0.5764,0.5861,0.5716,0.5574,0.5665,0.5467,0.5708,0.6657,0.7933,0.8949,0.9317,0.971,0.9955,0.9837,0.976,0.9568,0.9298,0.9274,0.922,0.9088,0.9082,0.9082,0.9082,0.9082,0.9082,0.9082,0.9208,0.9274,0.9274,0.9274,0.9274,0.9274,0.9142,0.8938,0.0,0.0,0.0,0.0,0.0,0.0,0.0,0.0,-0.5864,-0.6463,-0.7086,-0.7962,-0.9051,-0.981,-1.0799,-1.2112,-1.2381,-1.2374,-1.2032,-1.2001,-1.1775,-1.1542,-1.1109,-1.0798,-1.1017,-1.0769,-1.0586,-1.0444,-1.0233,-1.0042,-0.9892,-0.9721,-0.9126,-0.8024,-0.8021,-0.6825,-0.4429,-0.4126,-0.3324,-0.2022,-0.1718,-0.1617,-0.1617,-0.1617,-0.1617,-0.1617,-0.1617,-0.1516,-0.1313,-0.1313,-0.0808,0.0,0.0,0.0505,0.1211,0.1102,0.1981,0.3416,0.5158,0.581,0.5888,0.5795,0.5752,0.5733,0.5733,0.5733,0.5733,0.5733,0.5749,0.5763,0.5738,0.5749,0.576,0.6002,0.6083,0.6145,0.6216,0.6257,0.6205,0.6095,0.5969,0.5871,0.5707,0.5703,0.6102,0.7203,0.8689,0.9699,0.9783,1.0103,1.026,0.987,0.9837,0.9766,0.9508,0.9484,0.9484,0.9484,0.9484,0.9484,0.9484,0.9484,0.9484,0.9484,0.9484,0.9484,0.9484,0.9484,0.9484,0.9484,0.9484,0.925,-0.4707,-0.4405,-0.4603,-0.5896,-0.5823,-0.5997,0.0,0.0,-0.8058,-0.8854,-0.9588,-1.0233,-1.0568,-1.133,-1.2119,-1.289,-1.3003,-1.2918,-1.2575,-1.2312,-1.2063,-1.1366,-1.1142,-1.1017,-1.0802,-1.0554,-1.0456,-1.0436,-1.0111,-0.9904,-0.9888,-0.9721,-0.9126,-0.8024,-0.8021,-0.6825,-0.4429,-0.4126,-0.3324,-0.2022,-0.1718,-0.1617,-0.1617,-0.1617,-0.1617,-0.1617,-0.1617,-0.101,-0.0202,-0.0202,-0.0101,0.0,0.0,0.2324,0.5651,0.5262,0.4264,0.3506,0.5356,0.5923,0.5901,0.5888,0.5814,0.5733,0.5733,0.5733,0.5733,0.5733,0.5806,0.586,0.576,0.5809,0.5858,0.5757,0.5908,0.608,0.6154,0.606,0.5972,0.6132,0.5782,0.5538,0.5707,0.6099,0.6522,0.652,0.7382,0.8344,0.9261,0.9979,1.0396,1.0251,1.0012,0.9766,0.9508,0.9484,0.9484,0.9484,0.9484,0.9484,0.9484,0.9484,0.9484,0.9484,0.9484,0.9484,0.9484,0.9484,0.9484,0.9484,0.9484,0.9454,-0.5956,-0.6149,-0.6479,-0.7125,-0.7671,-0.8252,-0.9131,-0.9575,-0.9952,-1.0536,-1.113,-1.1608,-1.1504,-1.2098,-1.2576,0.0,-1.2757,-1.2639,-1.2288,-1.2077,-1.1655,-1.0949,-1.0864,-1.0809,-1.0699,-1.0523,-1.0391,-1.0282,-1.0132,-0.9733,-0.9109,-0.8958,-0.8052,-0.6222,-0.5959,-0.5027,-0.3225,-0.2924,-0.2523,-0.1718,-0.1617,-0.1617,-0.1617,-0.1617,-0.1617,-0.1516,-0.0909,-0.0404,0.0,0.0,0.0,0.0,0.0,0.2628,0.6385,0.6179,0.5659,0.5163,0.5896,0.6124,0.6105,0.6032,0.5977,0.5937,0.5937,0.5937,0.5937,0.5937,0.5972,0.5999,0.595,0.5972,0.607,0.6224,0.6341,0.656,0.6575,0.6604,0.6493,0.6388,0.606,0.5863,0.6025,0.6592,0.721,0.7729,0.8365,0.913,1.0073,1.0564,1.0646,1.0375,0.9892,0.9604,0.9496,0.9484,0.9484,0.9484,0.9484,0.9484,0.9484,0.9484,0.9484,0.9484,0.9484,0.9484,0.9484,0.9484,0.9484,0.9484,0.9484,0.9484,-0.6711,-0.7296,0.0,-0.8295,-0.921,-0.9953,-0.9972,-1.064,-1.1304,-1.1657,-1.2032,-1.2293,-1.2123,-1.2395,-1.2655,-1.2427,-1.2496,-1.245,-1.2046,-1.1851,-1.1344,-1.0642,-1.0496,-1.0475,-1.0326,-1.0326,-1.0327,-1.0245,-0.9875,-0.9339,-0.8537,-0.8043,-0.6913,-0.4959,-0.4572,-0.3726,-0.2422,-0.2122,-0.1819,-0.1617,-0.1617,-0.1617,-0.1617,-0.1415,-0.1415,-0.1516,-0.0505,0.0,0.0,0.0,0.0,0.0,0.0,0.2223,0.5473,0.5468,0.5847,0.6302,0.6211,0.6252,0.6208,0.6154,0.6089,0.6043,0.6075,0.6062,0.6043,0.6075,0.6111,0.6127,0.6094,0.6111,0.62,0.6447,0.6674,0.6816,0.6808,0.6882,0.6817,0.6438,0.6219,0.6116,0.6173,0.6824,0.7778,0.8709,0.9365,1.0032,1.0813,1.095,1.0858,1.0478,0.9964,0.97,0.97,0.97,0.97,0.97,0.97,0.97,0.97,0.97,0.9664,0.9592,0.9592,0.9556,0.9484,0.9484,0.9484,0.9484,0.9484,0.9414,-0.6642,-0.7227,-0.7946,-0.926,-1.014,-1.0712,-1.1321,-1.1798,-1.211,-1.212,-1.2242,-1.2353,-1.237,-1.2395,-1.2427,-1.2767,-1.2592,-1.2346,-1.2119,-1.1846,-1.1357,-1.0442,-1.0298,-1.0129,-0.9661,-0.9965,-1.0241,-1.0412,-0.9199,-0.854,-0.8679,-0.736,-0.609,-0.4961,-0.4572,-0.3726,-0.2422,-0.2122,-0.1819,-0.1617,-0.1617,-0.1617,-0.1617,-0.1111,-0.1111,-0.1516,-0.0505,0.0,0.0,0.0,0.0,0.0,0.0,0.1311,0.3325,0.3324,0.4487,0.61,0.6276,0.6192,0.6111,0.6225,0.6102,0.5931,0.6048,0.6002,0.5934,0.6051,0.617,0.6236,0.6116,0.6173,0.6233,0.6111,0.6461,0.6744,0.6452,0.6643,0.6741,0.6455,0.6264,0.6037,0.5923,0.6891,0.7945,0.873,0.9848,1.069,1.1114,1.0908,1.0725,1.0713,1.0466,1.0309,1.0309,1.0309,1.0309,1.0309,1.0309,1.0309,1.0309,1.0309,1.0119,0.9868,0.9862,0.9736,0.9484,0.9484,0.9484,0.9484,0.9484,0.9151,-0.824,-0.9276,-1.0243,-1.0314,-1.0995,-1.1666,-1.1879,-1.2257,-1.2512,-1.237,-1.1903,-1.1485,-1.1417,-1.1239,-1.1152,-1.1294,-1.1481,-1.1668,-1.1435,-1.1039,-1.0591,-1.0137,-0.9913,-0.9788,-0.9632,-0.9738,-0.9831,-0.9896,-0.8916,-0.8075,-0.7375,-0.6313,-0.5116,-0.3906,-0.3421,-0.2859,-0.2422,-0.1919,-0.1718,-0.1617,-0.1617,-0.1617,-0.1617,-0.1415,-0.101,-0.0505,-0.0202,0.0,0.0,0.0,0.0,0.0303,0.3132,0.4653,0.5361,0.5349,0.5686,0.6184,0.6271,0.6189,0.6092,0.6132,0.6146,0.6154,0.6195,0.623,0.6265,0.6306,0.6347,0.6372,0.6328,0.635,0.6448,0.6623,0.6751,0.6792,0.6801,0.678,0.6707,0.6399,0.6381,0.6629,0.732,0.8329,0.9562,1.0942,1.119,1.1248,1.1397,1.0983,1.0719,1.0719,1.0484,1.0327,1.0327,1.0327,1.0327,1.0327,1.0327,1.0248,1.0012,1.0,0.988,0.9622,0.9616,0.9568,0.9484,0.9484,0.9285,0.8818,0.8818,0.8431,-0.9725,-1.0695,-1.1557,-1.1173,-1.1638,-1.2139,-1.2139,-1.2346,-1.2417,-1.1978,-1.136,-1.0699,-1.0414,-1.0001,-0.9898,-1.0143,-1.0506,-1.0803,-1.0793,-1.0453,-1.0222,-0.9846,-0.9723,-0.9628,-0.9628,-0.9628,-0.9652,-0.9713,-0.8543,-0.7443,-0.6741,-0.5418,-0.4237,-0.3338,-0.2733,-0.2483,-0.2264,-0.1843,-0.1633,-0.1633,-0.1633,-0.1525,-0.1314,-0.1516,-0.101,0.0,0.0,0.0,0.0,0.0,0.0909,0.2526,0.5367,0.6388,0.638,0.6366,0.6283,0.6282,0.6317,0.6249,0.6157,0.6198,0.6238,0.6276,0.6317,0.635,0.6385,0.6426,0.6437,0.6437,0.6437,0.6437,0.662,0.6741,0.688,0.6918,0.6836,0.6721,0.6744,0.6523,0.6899,0.7432,0.823,0.9509,1.0838,1.2259,1.2083,1.1745,1.1552,1.1141,1.0858,1.0858,1.0713,1.061,1.061,1.061,1.061,1.061,1.061,1.0532,1.0363,1.0357,1.0188,0.9766,0.976,0.967,0.9484,0.9484,0.9151,0.849,0.849,0.7967,-1.0966,-1.146,-1.181,-1.2024,-1.2134,-1.2134,-1.211,-1.2091,-1.1846,-1.1033,-1.0437,-0.9969,0.0,0.0,-0.8673,-0.9495,-0.9624,-0.9763,-1.0058,-1.0184,-1.0129,0.0,0.0,0.0,0.0,0.0,-0.9721,-0.9888,-0.7865,-0.6733,-0.6853,-0.4695,-0.3392,-0.3064,-0.2754,-0.2411,-0.213,-0.1886,-0.1662,-0.1662,-0.166,-0.1336,-0.0808,-0.1313,-0.101,0.0,0.0,0.0,0.0,0.0202,0.2729,0.639,0.639,0.6377,0.6364,0.6361,0.6385,0.6293,0.6399,0.6358,0.6276,0.6382,0.635,0.6287,0.6396,0.6358,0.6298,0.6407,0.6437,0.6437,0.6437,0.6639,0.6742,0.6537,0.6836,0.7036,0.6537,0.6639,0.6845,0.6842,0.7822,0.8648,0.879,1.0329,1.1778,1.2593,1.2487,1.2131,1.1636,1.1317,1.1135,1.1135,1.1123,1.1111,1.1111,1.1111,1.1111,1.1111,1.1111,1.1105,1.1093,1.1093,1.0852,1.0339,1.0315,1.0073,0.952,0.9496,0.9092,0.8441,0.8441,0.7657,-1.2481,-1.3245,-1.3667,-1.2226,-1.202,-1.2058,-1.1746,-1.1435,-1.1061,-1.0343,-0.9379,-0.8595,-0.8172,-0.8026,0.0,-0.8651,-0.9203,0.0,-1.0158,-1.0066,0.0,-1.0014,0.0,-1.0026,-1.0026,-1.0026,-1.0046,-1.0087,-0.7922,-0.6733,-0.6853,-0.475,-0.3434,-0.3066,-0.2712,-0.2473,-0.2131,-0.1886,-0.1662,-0.1662,-0.1639,-0.132,-0.0808,-0.0505,-0.0303,0.0,0.0,0.0,0.0202,0.3438,0.537,0.639,0.6374,0.6366,0.6361,0.6448,0.6423,0.6396,0.6426,0.6304,0.6138,0.6165,0.6217,0.6274,0.6301,0.635,0.6399,0.6429,0.6437,0.6437,0.6642,0.6742,0.6842,0.6939,0.6939,0.6842,0.6742,0.6639,0.6836,0.7826,0.9583,1.1111,1.1342,1.2086,1.2739,1.2937,1.2614,1.2264,1.2131,1.1709,1.1425,1.1425,1.1238,1.1111,1.1111,1.1111,1.1111,1.1111,1.1111,1.1021,1.0828,1.0822,1.0665,1.0339,1.0071,1.0,1.006,0.9194,0.8516,0.7947,0.7342,0.6607,-1.4023,-1.4416,-1.4485,-1.2447,-1.1912,-1.1709,-1.1007,-1.0623,-1.0055,-0.9023,-0.825,-0.7542,-0.7039,-0.7055,-0.7283,0.0,0.0,0.0,-0.9656,-0.9842,-0.9925,0.0,-1.018,0.0,-1.0282,-1.0282,-1.0099,-0.9636,-0.7858,-0.6789,-0.6856,-0.4657,-0.3238,-0.2988,-0.2636,-0.2286,-0.194,-0.1815,-0.1694,-0.168,-0.1651,-0.1324,-0.0808,-0.0202,0.0,0.0,0.0,0.0,0.0303,0.4655,0.6388,0.6382,0.6369,0.6358,0.645,0.6439,0.6437,0.6437,0.6437,0.635,0.6241,0.6241,0.6287,0.6342,0.6342,0.6385,0.6437,0.6437,0.6437,0.6639,0.6742,0.6842,0.6942,0.7042,0.6942,0.6742,0.6642,0.6639,0.7132,0.9103,1.0974,1.2405,1.2875,1.3191,1.326,1.3139,1.2759,1.2487,1.2487,1.2029,1.1612,1.1371,1.1317,1.1244,1.1123,1.1111,1.1111,1.1111,1.1111,1.1045,1.09,1.0894,1.0767,1.0508,1.0003,0.973,0.9765,0.8722,0.7981,0.7415,0.6933,0.6375,-1.5146,-1.4945,-1.4616,-1.2536,-1.1746,-1.1114,-1.0185,-0.9689,-0.9037,-0.7522,-0.7089,-0.6762,-0.6176,-0.615,-0.6412,-0.711,0.0,-0.8284,-0.906,-0.9583,-0.9904,-0.9953,-1.0262,-1.0469,-1.0469,-1.0254,-0.9876,-0.8913,-0.7489,-0.6668,-0.6668,-0.4439,-0.2914,-0.2693,-0.2323,-0.2083,-0.175,-0.1746,-0.1728,-0.1698,-0.167,-0.1437,-0.0909,-0.0303,0.0,0.0,0.0,0.0303,0.1111,0.4551,0.6178,0.6374,0.6364,0.645,0.6437,0.6437,0.6437,0.6437,0.6437,0.6437,0.6437,0.6437,0.6437,0.6437,0.6437,0.6437,0.6437,0.6437,0.6639,0.6845,0.6842,0.7039,0.7138,0.6842,0.6842,0.6742,0.6539,0.6936,0.8028,1.0485,1.2047,1.3149,1.3808,1.3743,1.3477,1.3218,1.294,1.2735,1.2662,1.2252,1.1793,1.1323,1.1425,1.1431,1.119,1.1135,1.1111,1.1111,1.1111,1.1111,1.1111,1.1111,1.1003,1.0773,0.993,0.9387,0.9221,0.824,0.7451,0.6913,0.6841,0.6406,-1.512,-1.4908,-1.4535,-1.2161,-1.1312,-1.0783,-0.9763,-0.894,0.0,-0.7072,-0.6544,-0.6128,-0.576,-0.6046,-0.6558,-0.7131,-0.7667,-0.8369,-0.9393,-0.9738,-0.9998,0.0,-1.0521,-1.0647,-1.0647,-0.9764,-0.9116,-0.892,-0.6906,-0.568,-0.568,-0.4024,-0.2802,-0.2356,-0.2014,-0.1886,-0.175,-0.1725,-0.1698,-0.1669,-0.1639,-0.1521,-0.1415,-0.0404,0.0,0.0,0.0,0.202,0.5164,0.4138,0.4843,0.6364,0.6448,0.6439,0.6437,0.6437,0.6437,0.6437,0.6437,0.6437,0.6437,0.6437,0.6437,0.6437,0.6437,0.6437,0.6437,0.6642,0.6742,0.6845,0.7039,0.7138,0.7138,0.6842,0.6942,0.7039,0.6742,0.8517,1.0485,1.175,1.3119,1.4088,1.4238,1.4008,1.3749,1.3483,1.3224,1.2886,1.2439,1.23,1.221,1.2113,1.1757,1.151,1.1461,1.1244,1.1111,1.1111,1.1111,1.1111,1.1111,1.1111,1.1087,1.1045,1.0014,0.9552,0.9793,0.7956,0.7093,0.7163,0.643,0.6064,-1.5307,-1.4877,-1.4436,-1.2038,-1.0957,-1.0182,-0.9096,0.0,0.0,-0.6235,-0.5843,-0.5637,-0.5494,-0.5795,0.0,-0.668,-0.7178,-0.7865,-0.8938,-0.9307,-0.9677,-1.0229,-1.053,-1.0765,-1.0952,-0.9683,-0.8762,-0.8341,-0.6544,-0.5369,-0.5146,-0.3585,-0.2467,-0.202,-0.1907,-0.1788,-0.1774,-0.1727,-0.1698,-0.1685,-0.1331,-0.1314,-0.1516,-0.0505,0.0,0.0101,0.2324,0.4452,0.6287,0.5251,0.5448,0.6361,0.6442,0.6437,0.6437,0.6437,0.6437,0.6437,0.6437,0.6437,0.6437,0.6437,0.6437,0.6437,0.6437,0.6537,0.6639,0.6742,0.6942,0.7039,0.7138,0.7138,0.6942,0.6842,0.6942,0.7138,0.7726,0.9402,1.117,1.2242,1.3511,1.4298,1.4298,1.4081,1.3863,1.3737,1.3381,1.3031,1.2765,1.2608,1.2409,1.2137,1.2005,1.183,1.1552,1.1407,1.1268,1.1123,1.1111,1.1111,1.1111,1.0663,1.0519,1.0519,0.912,0.852,0.8623,0.7234,0.6603,0.6749,0.6301,0.6105,-1.5722,-1.4985,-1.4359,-1.2243,-1.0841,-0.9592,-0.8572,-0.7601,0.0,-0.5546,-0.5297,-0.5297,-0.5297,-0.5553,-0.5868,-0.6113,-0.6522,-0.7214,-0.8163,-0.8778,-0.936,-1.0075,-1.0477,0.0,-1.1082,-0.9503,-0.823,-0.7634,-0.5899,-0.47,-0.4475,-0.3026,-0.2132,-0.1795,-0.1789,-0.1782,-0.1776,-0.1722,-0.1693,-0.1688,-0.1127,-0.101,-0.1212,-0.0404,0.0505,0.1515,0.496,0.6388,0.6382,0.6369,0.6361,0.6356,0.6442,0.6437,0.6437,0.6437,0.6437,0.6437,0.6437,0.6437,0.6437,0.6437,0.6437,0.6437,0.6437,0.6639,0.6742,0.6842,0.7042,0.7138,0.7138,0.6942,0.6845,0.6845,0.7042,0.763,0.8905,1.0284,1.156,1.2829,1.3709,1.4298,1.4298,1.4129,1.3972,1.3918,1.3507,1.3188,1.3133,1.288,1.2548,1.2131,1.2228,1.2149,1.1733,1.1594,1.1437,1.1214,1.1141,1.1111,1.1111,1.0513,1.0067,0.9922,0.847,0.7638,0.7484,0.6721,0.6338,0.6338,0.6338,0.6196,-1.5994,-1.528,-1.441,-1.291,-1.097,-0.9243,-0.8462,0.0,-0.6335,-0.547,-0.5297,-0.5297,-0.5297,-0.5356,-0.5412,-0.5219,-0.5981,-0.6718,-0.7246,-0.831,-0.936,-1.0075,0.0,0.0,-1.0737,-0.8595,-0.726,-0.7171,-0.4596,-0.2917,-0.2917,-0.2468,-0.2132,-0.1795,-0.1768,-0.174,-0.1713,-0.1682,-0.1652,-0.1625,-0.1012,-0.0606,-0.0101,-0.0,0.2122,0.5879,0.6186,0.638,0.6366,0.6364,0.6353,0.6439,0.6437,0.6437,0.6437,0.6437,0.6437,0.6437,0.6437,0.6437,0.6437,0.6437,0.6437,0.6437,0.6642,0.6639,0.6537,0.7039,0.7042,0.6842,0.6842,0.6845,0.6845,0.6845,0.773,0.9004,1.0288,1.1658,1.2829,1.3908,1.4202,1.4298,1.4298,1.428,1.4177,1.3942,1.3664,1.3393,1.3151,1.288,1.2687,1.2638,1.2439,1.2294,1.2246,1.1805,1.1522,1.1498,1.125,1.1111,1.1111,1.1037,1.0663,0.9922,0.9008,0.8246,0.7484,0.6721,0.6338,0.6338,0.6338,0.6254,-1.5548,-1.4988,-1.4171,-1.2868,-1.0735,-0.8889,-0.8254,0.0,-0.5982,-0.5421,-0.5297,-0.5297,-0.5297,-0.5272,-0.5247,-0.5351,-0.5519,-0.5955,-0.682,-0.7476,-0.8341,-0.9457,-0.9994,-1.0379,-1.0818,-0.8631,-0.6473,-0.5144,-0.3586,-0.2693,-0.2693,-0.2244,-0.1907,-0.1795,-0.1765,-0.1744,-0.1732,-0.1685,-0.1656,-0.1644,-0.1117,-0.0505,0.0101,0.2626,0.4758,0.639,0.6377,0.6369,0.6361,0.635,0.6442,0.6437,0.6437,0.6437,0.6437,0.6437,0.6437,0.6437,0.6437,0.6437,0.6437,0.6437,0.6539,0.6639,0.6539,0.6736,0.6936,0.6942,0.7042,0.7042,0.6842,0.6642,0.6739,0.7335,0.8219,0.9296,1.1165,1.2145,1.3022,1.41,1.4298,1.4298,1.4298,1.4298,1.4262,1.4159,1.3785,1.3477,1.3369,1.2976,1.2705,1.2705,1.2608,1.2487,1.2324,1.2119,1.1866,1.1552,1.1425,1.1286,1.1117,1.0663,0.9992,0.916,0.8399,0.7561,0.6795,0.649,0.6338,0.6338,0.6338,0.621,-1.4909,-1.4501,-1.3689,-1.2859,-1.065,-0.8508,0.0,0.0,-0.5739,-0.5393,-0.5297,-0.5297,-0.5297,-0.517,-0.5128,-0.5169,-0.5178,-0.535,-0.5861,-0.6471,-0.7211,-0.8436,0.0,-0.9399,-1.0035,-0.7904,-0.5586,-0.3475,-0.2805,-0.2469,-0.2469,-0.202,-0.1791,-0.1782,-0.1752,-0.1732,-0.1724,-0.1674,-0.1649,-0.1649,-0.122,-0.0707,0.0101,0.4452,0.639,0.6385,0.6369,0.6361,0.6353,0.6442,0.6437,0.6437,0.6437,0.6437,0.6437,0.6437,0.6437,0.6437,0.6437,0.6437,0.6437,0.6437,0.6539,0.6642,0.6437,0.6739,0.7039,0.6845,0.6842,0.6939,0.6742,0.6539,0.6734,0.7822,0.8707,0.9784,1.1653,1.2635,1.3414,1.41,1.4298,1.4298,1.4298,1.4298,1.4298,1.4298,1.3851,1.3513,1.3513,1.3043,1.2705,1.2705,1.2705,1.2626,1.2445,1.2361,1.2155,1.1787,1.1691,1.1522,1.1244,1.0633,0.984,0.8703,0.8169,0.733,0.6338,0.6338,0.6338,0.6338,0.6338,0.6176,-1.4055,-1.3662,-1.3009,-1.3173,-1.0706,-0.8085,-0.7749,-0.6638,-0.5563,-0.5333,-0.5297,-0.5297,-0.5297,-0.5187,-0.4901,-0.425,-0.4813,-0.5121,-0.4222,-0.5177,-0.621,0.0,-0.7404,-0.7667,-0.8113,-0.618,-0.4254,-0.2806,-0.2357,-0.2132,-0.1795,-0.1795,-0.1781,-0.1751,-0.172,-0.1691,-0.1663,-0.1633,-0.1617,-0.1617,-0.1617,-0.101,0.0101,0.4452,0.6385,0.6377,0.6366,0.6353,0.6437,0.6437,0.6437,0.6437,0.6437,0.6437,0.6437,0.6437,0.6437,0.6437,0.6437,0.6437,0.6437,0.6437,0.6437,0.6437,0.6437,0.6539,0.6845,0.6845,0.6639,0.6437,0.6437,0.6437,0.6734,0.8117,0.9391,1.076,1.2042,1.3318,1.4298,1.4298,1.4298,1.4298,1.4298,1.4298,1.4298,1.4298,1.3851,1.3513,1.3513,1.3043,1.2705,1.2705,1.2705,1.2705,1.2699,1.2463,1.2312,1.2306,1.2065,1.1799,1.154,1.1528,1.0622,0.8708,0.8699,0.7863,0.6338,0.6338,0.6338,0.6338,0.6338,0.6176,-1.184,-1.1505,-1.0877,-1.057,-0.8755,-0.7007,-0.6894,-0.6086,-0.5365,-0.5309,-0.5297,-0.5297,-0.5297,-0.5128,-0.4994,-0.4977,-0.5088,-0.5199,-0.5316,0.0,0.0,-0.8035,-0.8305,-0.8233,-0.7501,-0.5863,-0.4364,-0.3026,-0.2467,-0.2132,-0.2132,-0.1907,-0.1781,-0.175,-0.172,-0.169,-0.1662,-0.1633,-0.1415,-0.101,-0.1415,0.0505,0.4351,0.4241,0.5048,0.6366,0.635,0.6442,0.6437,0.6437,0.6437,0.6437,0.6437,0.6437,0.6437,0.6437,0.6437,0.6437,0.6437,0.6437,0.6437,0.6639,0.6839,0.6936,0.6742,0.6742,0.6845,0.6845,0.6639,0.6437,0.6437,0.7129,0.8018,0.9205,1.0574,1.2042,1.3136,1.3913,1.4298,1.4298,1.4298,1.4298,1.4298,1.4298,1.4298,1.4298,1.3851,1.358,1.3761,1.332,1.2988,1.2988,1.3151,1.3109,1.2735,1.2626,1.2506,1.2324,1.2234,1.2071,1.1805,1.1624,1.0706,0.8989,0.8774,0.794,0.6338,0.6338,0.6338,0.6338,0.6338,0.6153,0.0,-0.9701,-0.9265,-0.8983,-0.7681,0.0,-0.6378,-0.5806,-0.5297,-0.5297,-0.5297,-0.5297,-0.5297,-0.5128,-0.5027,-0.518,-0.5157,-0.5131,-0.5309,-0.6046,0.0,-0.7375,-0.7637,-0.7372,-0.6285,-0.4837,-0.3782,-0.3026,-0.2356,-0.202,-0.202,-0.1896,-0.1764,-0.1733,-0.1714,-0.1685,-0.1645,-0.1626,-0.1415,-0.1111,-0.101,0.1615,0.639,0.5052,0.5146,0.6361,0.6445,0.6437,0.0,0.6437,0.6437,0.6437,0.6437,0.6437,0.6437,0.6437,0.6437,0.6437,0.6437,0.6437,0.6539,0.6742,0.6942,0.7042,0.6742,0.6642,0.6642,0.6642,0.6539,0.6534,0.6933,0.7723,0.881,1.0386,1.156,1.2635,1.3823,1.4208,1.4298,1.4298,1.4298,1.4298,1.4298,1.4298,1.4298,1.4298,1.3936,1.3719,1.3888,1.3538,1.3272,1.3272,1.3417,1.3338,1.2904,1.2862,1.2747,1.2481,1.2457,1.2343,1.2083,1.1914,1.109,0.9561,0.9116,0.8163,0.6721,0.6412,0.6338,0.6338,0.6338,0.618,0.0,-0.8144,-0.8069,-0.8138,-0.7254,-0.6352,-0.6181,-0.5702,0.0,-0.5297,-0.5297,-0.5305,-0.5313,-0.5191,-0.5081,-0.4945,-0.5045,-0.4996,-0.458,-0.5183,0.0,-0.5692,-0.5958,-0.5686,-0.466,-0.3427,-0.2639,-0.2685,-0.2125,-0.1789,-0.1791,-0.1763,-0.1733,-0.1705,-0.1702,-0.1674,-0.1618,-0.1617,-0.1617,-0.1617,-0.0202,0.2425,0.6183,0.6377,0.6369,0.6361,0.6442,0.6437,0.6437,0.6437,0.6437,0.6437,0.6437,0.6437,0.6437,0.6437,0.6437,0.6437,0.6437,0.6639,0.6842,0.6842,0.6845,0.6742,0.6537,0.6437,0.6437,0.6437,0.6437,0.6634,0.7726,0.8315,0.9099,1.1463,1.2242,1.2829,1.4004,1.4298,1.4298,1.4298,1.4298,1.4298,1.4298,1.4298,1.4298,1.4298,1.4075,1.3912,1.393,1.3707,1.3544,1.3544,1.3562,1.3447,1.3151,1.3127,1.3006,1.2723,1.2705,1.2596,1.2355,1.2324,1.1659,1.0377,0.9473,0.8503,0.7407,0.6644,0.6338,0.6338,0.6338,0.618,-0.6237,0.0,-0.5882,-0.5667,-0.5524,-0.547,0.0,-0.5413,-0.5297,-0.5297,0.0,-0.5337,-0.5527,-0.521,-0.508,-0.54,-0.5385,-0.5477,-0.5883,-0.7126,-0.7876,-0.7671,-0.7082,-0.6091,-0.4836,-0.3437,-0.2484,-0.2308,-0.1956,-0.1735,-0.1759,-0.1731,-0.1712,-0.1705,-0.1683,-0.1654,-0.1617,-0.1617,-0.1617,-0.1516,0.2828,0.4549,0.4034,0.5653,0.6358,0.6442,0.6437,0.6437,0.6437,0.6437,0.6437,0.6437,0.6437,0.6437,0.6437,0.6437,0.6539,0.6742,0.6742,0.6842,0.7138,0.7138,0.6942,0.6745,0.6742,0.6539,0.6437,0.6437,0.6437,0.6734,0.8021,0.9099,1.0271,1.1848,1.3028,1.3908,1.4202,1.4298,1.4298,1.4298,1.4298,1.4298,1.4298,1.4298,1.4298,1.4298,1.4075,1.3978,1.4177,1.3978,1.3815,1.3815,1.3996,1.3845,1.3181,1.3127,1.3006,1.2723,1.2705,1.2681,1.2614,1.2421,1.1747,1.0621,0.8779,0.7447,0.6567,0.6416,0.6338,0.6338,0.6338,0.618,-0.5497,-0.5233,-0.497,-0.4829,-0.5007,-0.523,-0.5277,0.0,0.0,0.0,0.0,0.0,0.0,-0.5187,-0.5095,-0.5463,-0.5541,-0.5794,-0.6626,-0.7714,-0.8113,-0.7186,-0.6551,-0.5548,-0.4089,-0.2998,-0.2354,-0.216,-0.1928,-0.1712,-0.1728,-0.1701,-0.1685,-0.1685,-0.1656,-0.1531,-0.1212,-0.1516,-0.0404,0.212,0.5061,0.5768,0.4738,0.5854,0.6353,0.6437,0.6437,0.6437,0.6437,0.6437,0.6437,0.6437,0.6437,0.6437,0.6437,0.6539,0.6642,0.6845,0.6942,0.7039,0.7138,0.7042,0.6942,0.6742,0.6642,0.6539,0.6437,0.6437,0.683,0.7624,0.881,1.0181,1.1551,1.2737,1.3715,1.4298,1.4298,1.4298,1.4298,1.4298,1.4298,1.4298,1.4298,1.4298,1.4298,1.4298,1.4177,1.4135,1.428,1.4171,1.4087,1.4087,1.4214,1.4026,1.3357,1.3302,1.3133,1.2729,1.2705,1.2705,1.2705,1.2566,1.1778,1.029,0.9383,0.8115,0.6464,0.7254,0.7137,0.6434,0.6677,0.6483,-0.5391,-0.5135,-0.5001,-0.4853,-0.5028,-0.5297,-0.5297,0.0,0.0,0.0,0.0,0.0,0.0,-0.5223,0.0,0.0,0.0,-0.6058,-0.7086,-0.737,-0.7042,-0.5649,-0.5282,-0.4591,-0.2962,-0.2435,-0.2116,-0.2122,-0.1799,-0.1693,-0.1697,-0.1671,-0.1657,-0.1662,-0.1531,-0.1313,-0.0909,-0.1212,0.1212,0.639,0.639,0.638,0.6364,0.6361,0.635,0.6437,0.6437,0.6437,0.6437,0.6437,0.6437,0.6437,0.6437,0.6426,0.6412,0.6734,0.683,0.6915,0.7132,0.7238,0.7138,0.6842,0.6742,0.6742,0.6437,0.6437,0.6434,0.6634,0.7524,0.8612,0.9702,1.117,1.2538,1.3636,1.4118,1.4298,1.4298,1.4298,1.4298,1.4298,1.4298,1.4298,1.4298,1.4298,1.4298,1.4298,1.4298,1.4298,1.4298,1.4298,1.4298,1.4298,1.4298,1.4087,1.3562,1.3513,1.3284,1.2741,1.2705,1.2705,1.2705,1.2662,1.177,0.9966,1.0408,0.9552,0.7109,0.8497,0.84,0.6947,0.736,0.7045,-0.5862,-0.5917,-0.5931,-0.5046,-0.5028,-0.5297,-0.5297,0.0,0.0,0.0,0.0,0.0,0.0,-0.5285,-0.5266,0.0,-0.5689,-0.5963,-0.7037,-0.6426,-0.5519,-0.4686,-0.442,-0.3655,-0.239,-0.2056,-0.1949,-0.1771,-0.1645,-0.1641,-0.1667,-0.164,-0.1636,-0.1662,-0.1224,-0.1111,-0.1516,-0.0707,0.202,0.639,0.6382,0.6372,0.6364,0.6448,0.6439,0.6437,0.6437,0.6437,0.6437,0.6437,0.6437,0.6437,0.6437,0.6377,0.6306,0.6705,0.6872,0.7082,0.7403,0.7341,0.7138,0.6842,0.6642,0.6437,0.6437,0.6437,0.6634,0.7528,0.8021,0.8612,0.9702,1.117,1.2538,1.3636,1.4118,1.4298,1.4298,1.4298,1.4298,1.4298,1.4298,1.4298,1.4298,1.4298,1.4298,1.4298,1.4298,1.4298,1.4298,1.4298,1.4298,1.4298,1.4298,1.4087,1.3562,1.3513,1.3284,1.2741,1.2705,1.2705,1.2705,1.2493,1.1933,1.0883,1.0735,1.0126,0.9068,0.928,0.9176,0.869,0.8111,0.7626,-0.5967,-0.6048,-0.6067,-0.5046,-0.5284,-0.5673,-0.5352,-0.5297,0.0,0.0,0.0,0.0,0.0,0.0,-0.5593,-0.5789,-0.5915,-0.5912,-0.5841,-0.5286,-0.4626,-0.3891,-0.358,-0.3133,-0.2146,-0.1947,-0.1743,-0.1638,-0.1625,-0.1623,-0.1637,-0.1624,-0.1623,-0.1637,-0.1116,-0.101,-0.1617,0.1716,0.384,0.4647,0.5866,0.6366,0.6448,0.6439,0.6437,0.6434,0.6372,0.6344,0.6342,0.6274,0.6246,0.6246,0.6246,0.631,0.6373,0.689,0.7091,0.7149,0.7291,0.7241,0.6942,0.6639,0.6537,0.6437,0.6437,0.6537,0.6836,0.7922,0.8803,0.9686,1.0774,1.2242,1.3516,1.401,1.4202,1.4298,1.4298,1.4298,1.4298,1.4298,1.4298,1.4298,1.4298,1.4298,1.4298,1.4298,1.4298,1.4298,1.4298,1.4298,1.4298,1.4298,1.4298,1.4141,1.3761,1.3598,1.3284,1.2741,1.2705,1.2705,1.2705,1.2584,1.2097,1.1245,1.1562,1.1077,0.9723,1.0616,1.05,0.9418,0.9274,0.8936,-0.6035,-0.6094,-0.6164,-0.5046,0.0,-0.59,-0.5456,-0.5394,0.0,0.0,0.0,0.0,0.0,-0.5562,-0.5722,-0.5822,-0.5712,-0.5335,-0.4591,-0.4105,-0.3696,-0.2986,-0.2772,-0.2421,-0.192,-0.174,-0.1642,-0.1619,-0.1617,-0.1613,-0.1607,-0.1613,-0.1613,-0.1607,-0.121,-0.0605,0.01,0.4219,0.5225,0.3203,0.5318,0.6318,0.6396,0.6396,0.6396,0.6391,0.6306,0.6252,0.6219,0.6124,0.6086,0.6086,0.6086,0.6272,0.6561,0.7013,0.7155,0.7102,0.7143,0.6994,0.6699,0.6495,0.6415,0.6431,0.6404,0.6716,0.7335,0.8418,0.969,1.1058,1.1755,1.3125,1.4298,1.4202,1.4298,1.4298,1.4298,1.4298,1.4298,1.4298,1.4298,1.4298,1.4298,1.4298,1.4298,1.4298,1.4298,1.4298,1.4298,1.4298,1.4298,1.4298,1.4298,1.4165,1.3839,1.3574,1.3218,1.2735,1.2705,1.2705,1.2705,1.2705,1.2357,1.1666,1.2357,1.2009,1.0529,1.1815,1.1701,1.0292,1.0439,1.0253,-0.6081,-0.6418,-0.6653,-0.5193,-0.508,0.0,-0.5555,-0.5726,0.0,-0.6117,0.0,0.0,0.0,-0.544,-0.52,-0.5496,-0.4498,-0.3753,-0.3963,-0.3004,-0.211,-0.2113,-0.1816,-0.1718,-0.1617,-0.1619,-0.162,-0.1617,-0.1617,-0.1605,-0.1577,-0.1601,-0.1604,-0.1576,-0.1602,0.0601,0.5127,0.5527,0.4824,0.2942,0.5205,0.629,0.6282,0.6282,0.6282,0.6279,0.6274,0.6203,0.61,0.6089,0.6086,0.6086,0.6086,0.6369,0.6732,0.671,0.6929,0.7155,0.7012,0.6863,0.6666,0.6377,0.635,0.6418,0.6312,0.7233,0.8414,0.9308,1.0774,1.2145,1.2052,1.3125,1.4202,1.4027,1.4112,1.4298,1.4298,1.4298,1.4298,1.4298,1.4298,1.4298,1.4298,1.4298,1.4298,1.4298,1.4298,1.4298,1.4298,1.4298,1.4298,1.4298,1.4298,1.4093,1.3586,1.3302,1.3025,1.2723,1.2705,1.2705,1.2705,1.2705,1.2705,1.2619,1.2705,1.2619,1.2528,1.2601,1.2463,1.2058,1.1349,1.0892,-0.5959,-0.5911,-0.5873,-0.4997,-0.5028,0.0,0.0,-0.5921,-0.6096,-0.5994,-0.631,0.0,0.0,-0.5119,-0.4666,-0.4235,-0.3799,-0.3376,-0.2865,-0.2205,-0.1718,-0.1718,-0.1617,-0.1617,-0.1617,-0.1617,-0.1609,-0.159,-0.1589,-0.1575,-0.1642,-0.1262,-0.1263,-0.1544,-0.1554,0.0776,0.561,0.5701,0.5367,0.4628,0.5648,0.6067,0.6154,0.6154,0.6154,0.6151,0.6075,0.6015,0.5966,0.5896,0.5866,0.5866,0.6045,0.6227,0.6415,0.6721,0.6765,0.6656,0.6873,0.6754,0.6463,0.6365,0.6298,0.6309,0.6379,0.713,0.8313,0.9647,1.0882,1.1958,1.2574,1.3498,1.4256,1.4004,1.4088,1.4298,1.4298,1.4298,1.4298,1.4298,1.4298,1.4298,1.4298,1.4298,1.4298,1.4298,1.4298,1.4298,1.4298,1.4298,1.4298,1.4298,1.4298,1.4153,1.3791,1.3519,1.3326,1.3218,1.2892,1.2705,1.2705,1.2705,1.2705,1.2705,1.2705,1.2705,1.2705,1.2705,1.265,1.2554,1.2052,1.1838,-0.5657,-0.5502,-0.5403,-0.4977,0.0,0.0,-0.5961,-0.6193,-0.64,-0.6384,-0.6359,-0.6149,-0.548,0.0,-0.3814,-0.3199,-0.3023,-0.282,-0.1962,-0.1698,-0.1617,-0.1617,-0.1617,-0.1617,-0.1617,-0.1608,-0.1594,-0.1573,-0.1563,-0.164,-0.1608,-0.1236,-0.1046,-0.1134,-0.1141,0.0855,0.4821,0.539,0.5707,0.5676,0.585,0.5906,0.6029,0.6029,0.6029,0.6024,0.5939,0.5882,0.5844,0.5765,0.5733,0.5733,0.5997,0.6171,0.6269,0.6725,0.6669,0.6433,0.6792,0.6597,0.6211,0.6211,0.6238,0.6332,0.6726,0.7629,0.878,1.0181,1.1298,1.2334,1.2883,1.3532,1.4129,1.3948,1.4105,1.4298,1.4298,1.4298,1.4298,1.4298,1.4298,1.4298,1.4298,1.4298,1.4298,1.4298,1.4298,1.4298,1.4298,1.4298,1.4298,1.4298,1.4298,1.4189,1.393,1.3743,1.3568,1.3399,1.3043,1.2837,1.2837,1.2753,1.2705,1.2705,1.2705,1.2705,1.2705,1.2705,1.2705,1.2699,1.2524,1.253,-0.5317,-0.5334,-0.5435,0.0,0.0,0.0,-0.6294,-0.6562,-0.6842,-0.7374,-0.6504,-0.5538,-0.544,-0.3915,-0.2651,-0.2488,-0.2198,-0.1824,-0.1664,-0.1597,-0.1616,-0.1616,-0.1616,-0.1616,-0.1616,-0.1589,-0.157,-0.157,-0.1638,-0.1606,-0.1574,-0.1602,-0.1039,0.0,0.0094,0.0942,0.295,0.4804,0.5676,0.5733,0.5733,0.5793,0.5901,0.5901,0.5901,0.5901,0.5901,0.5839,0.5733,0.5733,0.5733,0.5733,0.5997,0.6257,0.6432,0.6704,0.6612,0.6468,0.6743,0.6461,0.6083,0.6083,0.6165,0.6506,0.7438,0.8722,0.9974,1.092,1.2307,1.3357,1.2827,1.3326,1.3906,1.3906,1.4105,1.4298,1.4298,1.4298,1.4298,1.4298,1.4298,1.4298,1.4298,1.4298,1.4298,1.4298,1.4298,1.4298,1.4298,1.4298,1.4298,1.4298,1.4298,1.4189,1.393,1.3906,1.3682,1.3163,1.3127,1.3127,1.3121,1.285,1.2705,1.2705,1.2705,1.2705,1.2705,1.2705,1.2705,1.2705,1.2705,1.2705,-0.5221,-0.5096,0.0,-0.5087,0.0,0.0,0.0,-0.6461,0.0,0.0,-0.5973,-0.4745,-0.4622,-0.3213,-0.1944,-0.1699,-0.1615,-0.1591,-0.1506,-0.1534,-0.1553,-0.1553,-0.1553,-0.1553,-0.1553,-0.1621,-0.1593,-0.1569,-0.154,-0.1597,-0.1476,-0.0872,0.0878,0.3905,0.3696,0.3866,0.4689,0.5315,0.5561,0.5518,0.5692,0.5749,0.5784,0.5784,0.5784,0.5784,0.5784,0.5765,0.5733,0.5733,0.5733,0.5733,0.5997,0.6257,0.6428,0.652,0.6432,0.6367,0.6456,0.6239,0.6048,0.6688,0.699,0.7267,0.8414,0.9447,1.0293,1.1092,1.1975,1.2754,1.2671,1.3141,1.3634,1.3634,1.3972,1.4298,1.4298,1.4298,1.4298,1.4298,1.4298,1.4298,1.4298,1.4298,1.4298,1.4298,1.4298,1.4298,1.4298,1.4298,1.4298,1.4298,1.4298,1.4262,1.4183,1.4014,1.3839,1.3682,1.3332,1.3037,1.2837,1.2747,1.2705,1.2705,1.2705,1.2705,1.2705,1.2705,1.2705,1.2705,1.2705,1.2608,-0.5021,-0.4971,0.0,-0.523,-0.5644,-0.6083,-0.644,0.0,0.0,0.0,-0.6012,-0.4622,-0.4439,-0.2808,-0.1461,-0.1382,-0.1438,-0.148,-0.148,-0.1507,-0.1526,-0.1526,-0.1526,-0.1526,-0.1622,-0.1394,-0.1364,-0.1527,-0.1485,-0.1282,-0.0843,-0.0337,0.1695,0.5344,0.5188,0.5094,0.5406,0.5406,0.5403,0.548,0.5553,0.5589,0.5591,0.564,0.5659,0.5659,0.5659,0.5659,0.5665,0.5714,0.5733,0.5733,0.6523,0.6609,0.6428,0.6956,0.6779,0.6361,0.6321,0.6362,0.6536,0.708,0.7531,0.8133,0.9371,1.0101,1.0631,1.158,1.2186,1.2558,1.2843,1.3115,1.3387,1.3489,1.3918,1.4298,1.4298,1.4298,1.4298,1.4298,1.4298,1.4298,1.4298,1.4298,1.4298,1.4298,1.4298,1.4298,1.4298,1.4298,1.4298,1.4298,1.4298,1.4298,1.4298,1.4153,1.4014,1.3912,1.3513,1.3157,1.288,1.2765,1.2705,1.2705,1.2705,1.2705,1.2705,1.2705,1.2705,1.2705,1.2705,1.2566,-0.4751,-0.4926,-0.5145,-0.5519,-0.5904,0.0,-0.6664,-0.7391,-0.7907,-0.7935,-0.6257,-0.4756,-0.4513,-0.2683,-0.1369,-0.1423,-0.1452,-0.147,-0.1472,-0.1494,-0.1512,-0.1517,-0.1515,-0.1608,-0.1608,-0.1096,-0.098,-0.1423,-0.1371,-0.092,-0.0083,0.0251,0.1757,0.4699,0.4951,0.5116,0.528,0.528,0.536,0.5352,0.5363,0.5368,0.5374,0.5483,0.5534,0.5534,0.5534,0.5454,0.5472,0.5659,0.5706,0.5891,0.72,0.72,0.6587,0.765,0.7394,0.6447,0.6397,0.6797,0.7423,0.751,0.8144,0.9097,1.0323,1.0697,1.1047,1.2351,1.2705,1.2765,1.3019,1.3121,1.3218,1.3459,1.3894,1.4268,1.4292,1.4298,1.4298,1.4298,1.4298,1.4298,1.4298,1.4298,1.4298,1.4298,1.4298,1.4298,1.4298,1.4298,1.4298,1.4298,1.4298,1.4298,1.4298,1.4298,1.4183,1.3924,1.3682,1.3435,1.3169,1.2868,1.2705,1.2705,1.2705,1.2705,1.2705,1.2705,1.2705,1.2705,1.2681,1.253,-0.4719,-0.4832,0.0,-0.5486,-0.6091,-0.6692,-0.7052,-0.7332,-0.7263,-0.6132,-0.5183,-0.4222,-0.3312,-0.2169,-0.1385,-0.1397,-0.1386,-0.1384,-0.1406,-0.1396,-0.1403,-0.1449,-0.1436,-0.1422,-0.1422,-0.1302,-0.1017,-0.0416,-0.0324,-0.0237,-0.0,0.2527,0.3671,0.3023,0.43,0.506,0.5227,0.5227,0.5227,0.5227,0.5322,0.5368,0.5371,0.5396,0.5409,0.5409,0.5409,0.5464,0.5459,0.5474,0.5925,0.6532,0.6624,0.6797,0.6976,0.6828,0.6956,0.7228,0.6999,0.7539,0.8332,0.9125,0.9652,1.0173,1.1354,1.1849,1.21,1.2534,1.2705,1.2717,1.2777,1.3115,1.3447,1.3501,1.3761,1.4045,1.425,1.4298,1.4298,1.4298,1.4298,1.4298,1.4298,1.4298,1.4298,1.4298,1.4298,1.4298,1.4298,1.4298,1.4298,1.4298,1.4298,1.4298,1.4298,1.4298,1.4183,1.3924,1.3851,1.3707,1.3441,1.2964,1.2705,1.2705,1.2705,1.2705,1.2705,1.2705,1.2705,1.2699,1.2493,1.2258,-0.4731,0.0,0.0,-0.5596,0.0,-0.6,-0.6716,-0.635,-0.5585,-0.4844,-0.4511,-0.4091,-0.2987,-0.1967,-0.137,-0.137,-0.1357,-0.1353,-0.1368,-0.1345,-0.1421,-0.1368,-0.1358,-0.1435,-0.1435,-0.1002,-0.0492,-0.0,0.0,0.0611,0.2012,0.3701,0.4256,0.3479,0.4315,0.4825,0.5018,0.5018,0.5048,0.5105,0.517,0.517,0.5118,0.523,0.5252,0.5203,0.5257,0.5317,0.5374,0.5782,0.602,0.6224,0.7088,0.7069,0.6679,0.7368,0.7592,0.7489,0.7665,0.8368,0.9244,0.9767,1.0386,1.1084,1.178,1.2203,1.2448,1.2619,1.2705,1.2735,1.2868,1.3012,1.3224,1.361,1.3906,1.4129,1.4268,1.4298,1.4298,1.4298,1.4298,1.4298,1.4298,1.4298,1.4298,1.4298,1.4298,1.4298,1.4298,1.4298,1.4298,1.4298,1.4298,1.4298,1.4298,1.4298,1.4238,1.4099,1.3972,1.3845,1.3707,1.3308,1.3037,1.291,1.2771,1.2705,1.2705,1.2705,1.2705,1.2699,1.2433,1.2174,-0.4517,0.0,-0.5058,-0.5536,-0.5267,0.0,-0.5899,-0.4984,-0.3975,-0.3768,-0.3899,-0.3745,-0.274,-0.1835,-0.134,-0.134,-0.1331,-0.1328,-0.1339,-0.1309,-0.1374,-0.139,-0.122,-0.1133,-0.1133,-0.0483,0.0,0.0,0.0,0.1265,0.4152,0.4312,0.4377,0.4488,0.4506,0.4632,0.4803,0.4803,0.4855,0.4953,0.4953,0.4901,0.4809,0.5004,0.5042,0.4963,0.5097,0.5236,0.5402,0.6231,0.6284,0.6066,0.7687,0.7571,0.6608,0.8102,0.8353,0.8006,0.8471,0.9252,1.0062,1.0149,1.0849,1.1729,1.2026,1.2289,1.2448,1.2619,1.2705,1.2759,1.2988,1.2916,1.2958,1.367,1.4039,1.4244,1.4286,1.4298,1.4298,1.4298,1.4298,1.4298,1.4298,1.4298,1.4298,1.4298,1.4298,1.4298,1.4298,1.4298,1.4298,1.4298,1.4298,1.4298,1.4298,1.4298,1.4298,1.4298,1.4093,1.3972,1.3972,1.3676,1.3417,1.3194,1.2916,1.2777,1.2777,1.2729,1.2705,1.2699,1.2433,1.2174,-0.3631,0.0,-0.4363,0.0,-0.4734,-0.4764,0.0,0.0,-0.3745,-0.2858,-0.2755,-0.2591,-0.167,-0.1371,-0.1309,-0.1309,-0.1264,-0.1327,-0.1301,-0.1338,-0.1332,-0.1416,-0.0647,-0.0158,-0.0158,-0.0077,0.0,0.0,0.0,0.1232,0.4111,0.4334,0.4336,0.4512,0.4602,0.4662,0.4748,0.4748,0.4759,0.4776,0.4776,0.4767,0.4751,0.4784,0.4789,0.4713,0.4942,0.5425,0.6041,0.6213,0.6702,0.732,0.714,0.7326,0.7733,0.739,0.8256,0.9543,0.9192,0.9854,1.0858,1.1025,1.1366,1.1746,1.2213,1.2448,1.2705,1.2705,1.2705,1.2711,1.2747,1.2916,1.3151,1.3489,1.3767,1.402,1.425,1.4298,1.4298,1.4298,1.4298,1.4298,1.4298,1.4298,1.4298,1.4298,1.4298,1.4298,1.4298,1.4298,1.4298,1.4298,1.4298,1.4298,1.4298,1.4298,1.4298,1.4298,1.4262,1.4244,1.4244,1.3773,1.3501,1.3465,1.32,1.3067,1.3067,1.2825,1.2705,1.2699,1.2433,1.2174,-0.3091,-0.3296,-0.3498,0.0,-0.3401,-0.322,-0.3449,-0.2938,-0.2382,-0.2449,-0.2089,-0.1692,-0.1331,-0.1268,-0.1277,-0.1277,-0.1318,-0.1298,-0.1326,-0.129,-0.1344,-0.137,-0.053,0.0,0.0,0.0,0.066,0.2289,0.2427,0.2945,0.4105,0.4209,0.4175,0.4181,0.4224,0.4317,0.4455,0.4455,0.4523,0.4723,0.4654,0.4621,0.4621,0.4621,0.466,0.4734,0.5358,0.5888,0.6345,0.6736,0.7025,0.7243,0.6849,0.6965,0.7417,0.7566,0.8431,0.9568,0.9881,1.029,1.081,1.1189,1.1483,1.1784,1.2287,1.2534,1.2705,1.2705,1.2705,1.2705,1.2705,1.2795,1.2994,1.3417,1.3604,1.3797,1.4208,1.4298,1.4298,1.4298,1.4298,1.4298,1.4298,1.4298,1.4298,1.4298,1.4298,1.4298,1.4298,1.4298,1.4298,1.4298,1.4298,1.4298,1.4298,1.4298,1.4298,1.4298,1.4298,1.4298,1.4298,1.3936,1.3803,1.3954,1.3254,1.2886,1.2886,1.2765,1.2705,1.2699,1.2433,1.2252,0.0,0.0,-0.2607,-0.27,-0.225,-0.1951,0.0,-0.1886,-0.1263,-0.1926,-0.1619,-0.1162,-0.1299,-0.1241,-0.1243,-0.1313,-0.1291,-0.1275,-0.1275,-0.1101,-0.0934,-0.0992,-0.043,0.0,0.0,0.0,0.1206,0.405,0.4224,0.4128,0.4076,0.4038,0.3977,0.3875,0.3872,0.4023,0.4205,0.4238,0.4357,0.4564,0.4471,0.4428,0.4428,0.4428,0.4613,0.4921,0.5663,0.6155,0.6569,0.7182,0.7283,0.7036,0.6923,0.7081,0.7508,0.8049,0.8772,0.9634,1.0253,1.0498,1.0584,1.115,1.1475,1.1698,1.2263,1.2619,1.2705,1.2705,1.2705,1.2705,1.2705,1.2705,1.2825,1.3302,1.3465,1.3658,1.4183,1.4298,1.4298,1.4298,1.4298,1.4298,1.4298,1.4298,1.4298,1.4298,1.4298,1.4298,1.4298,1.4298,1.4298,1.4298,1.4298,1.4298,1.4298,1.4298,1.4298,1.4298,1.4298,1.4298,1.4298,1.4045,1.3996,1.4189,1.335,1.2946,1.3006,1.2874,1.2813,1.2807,1.2536,1.2379,0.0,-0.1769,0.0,-0.1755,-0.176,-0.1686,-0.1131,-0.1011,-0.1009,-0.1133,-0.1146,-0.1099,-0.1159,-0.1195,-0.1204,-0.1176,-0.1243,-0.1315,-0.1315,-0.0572,-0.0071,-0.0073,-0.0,0.0,0.0,0.0,0.1217,0.4066,0.3896,0.3761,0.4068,0.3895,0.3827,0.3872,0.3872,0.388,0.3891,0.4069,0.4191,0.4319,0.4311,0.4308,0.4308,0.4308,0.464,0.5316,0.5611,0.6153,0.679,0.7107,0.7219,0.7311,0.7442,0.8121,0.8996,0.8716,0.9448,1.0487,1.0033,1.011,1.0426,1.1061,1.1301,1.1473,1.2379,1.2705,1.2705,1.2705,1.2705,1.2705,1.2705,1.2705,1.2777,1.3073,1.3338,1.3658,1.4183,1.4298,1.4298,1.4298,1.4298,1.4298,1.4298,1.4298,1.4298,1.4298,1.4298,1.4298,1.4298,1.4298,1.4298,1.4298,1.4298,1.4298,1.4298,1.4298,1.4298,1.4298,1.4298,1.4298,1.4298,1.4045,1.3912,1.3924,1.3628,1.3598,1.3839,1.3344,1.3103,1.3097,1.2813,1.2548,0.0,0.0,0.0,-0.1116,-0.1132,-0.109,-0.0949,-0.093,-0.0971,-0.1012,-0.102,-0.1027,-0.1048,-0.1124,-0.1179,-0.1168,-0.1222,-0.128,-0.128,-0.0565,0.0,0.0,0.0,0.0,0.0,0.1695,0.2743,0.2687,0.3439,0.3935,0.3898,0.3846,0.3786,0.371,0.371,0.3743,0.3816,0.3939,0.4023,0.4066,0.4145,0.4183,0.4186,0.4716,0.5345,0.6009,0.6131,0.6487,0.7031,0.7148,0.7402,0.7642,0.7491,0.8103,0.9029,0.8803,0.9336,1.0153,0.9981,0.9976,1.0171,1.0807,1.1152,1.1427,1.2183,1.2572,1.2705,1.2705,1.2705,1.2705,1.2705,1.2705,1.2819,1.3266,1.3574,1.3863,1.422,1.4298,1.4298,1.4298,1.4298,1.4298,1.4298,1.4298,1.4298,1.4298,1.4298,1.4298,1.4298,1.4298,1.4298,1.4298,1.4298,1.4298,1.4298,1.4298,1.4298,1.4298,1.4298,1.4298,1.4298,1.4045,1.3984,1.4153,1.39,1.3646,1.3405,1.3218,1.3031,1.285,1.2753,1.2656,-0.0719,0.0,0.0,0.0,-0.0737,-0.0778,-0.086,-0.089,-0.0924,-0.0965,-0.0973,-0.0976,-0.0986,-0.1053,-0.111,-0.098,-0.1183,-0.1172,-0.0888,-0.0339,0.0,0.0,0.0873,0.1351,0.1247,0.2576,0.3213,0.254,0.3395,0.3872,0.382,0.3773,0.3718,0.3588,0.3585,0.364,0.3809,0.3833,0.3895,0.3875,0.4018,0.4204,0.4501,0.5097,0.5752,0.64,0.6531,0.68,0.7203,0.7057,0.7355,0.7888,0.7735,0.8328,0.921,0.913,0.9463,0.9922,0.9922,0.9922,1.0035,1.0672,1.1027,1.1284,1.1939,1.2367,1.2572,1.2572,1.2638,1.2705,1.2705,1.2705,1.2819,1.3272,1.3586,1.3845,1.4111,1.4238,1.4298,1.4298,1.4298,1.4298,1.4298,1.4298,1.4298,1.4298,1.4298,1.4298,1.4298,1.4298,1.4298,1.4298,1.4298,1.4298,1.4298,1.4298,1.4298,1.4298,1.4298,1.4298,1.4298,1.4129,1.4117,1.4292,1.4129,1.3821,1.3387,1.3296,1.3115,1.2843,1.2747,1.2753,0.0,0.0,0.0,0.0,-0.0557,-0.0676,-0.075,-0.083,-0.0923,-0.087,-0.0881,-0.089,-0.0979,-0.0985,-0.0871,-0.0577,-0.0925,-0.0999,-0.013,0.0,0.0,0.0123,0.26,0.4094,0.366,0.2528,0.241,0.3704,0.3652,0.3643,0.3807,0.3642,0.3585,0.3585,0.3585,0.3637,0.3807,0.3807,0.3808,0.3864,0.3928,0.4365,0.5191,0.5315,0.5781,0.6461,0.6728,0.7125,0.7456,0.6937,0.718,0.7855,0.8274,0.8929,0.9615,0.9836,0.9922,0.9922,0.9922,0.9922,1.0035,1.0661,1.0907,1.1036,1.1682,1.2107,1.2312,1.2324,1.2506,1.2705,1.2705,1.2705,1.2777,1.3055,1.332,1.3586,1.3839,1.4111,1.4298,1.4298,1.4298,1.4298,1.4298,1.4298,1.4298,1.4298,1.4298,1.4298,1.4298,1.4298,1.4298,1.4298,1.4298,1.4298,1.4298,1.4298,1.4298,1.4298,1.4298,1.4298,1.4298,1.4298,1.4298,1.4298,1.4298,1.4165,1.3906,1.3652,1.3387,1.3115,1.2837,1.285,-0.0494,0.0,0.0,0.0,0.0,0.0,-0.045,-0.0726,-0.091,-0.0819,-0.0877,-0.088,-0.0888,-0.0907,-0.0874,-0.0783,-0.0559,-0.0253,-0.0063,0.0,0.0617,0.2408,0.3301,0.381,0.384,0.3482,0.3388,0.3646,0.372,0.3721,0.3634,0.3602,0.3585,0.3585,0.3585,0.3599,0.3632,0.3632,0.3648,0.3683,0.3882,0.4405,0.5211,0.5516,0.6045,0.6793,0.6859,0.719,0.7661,0.7647,0.7798,0.8139,0.891,0.9464,0.983,0.9895,0.9922,0.9922,0.9922,0.9922,1.0008,1.0453,1.0758,1.1036,1.1682,1.2107,1.2355,1.2542,1.265,1.2705,1.2705,1.2705,1.2777,1.3055,1.332,1.3538,1.3604,1.3978,1.4298,1.4298,1.4298,1.4298,1.4298,1.4298,1.4298,1.4298,1.4298,1.4298,1.4298,1.4298,1.4298,1.4298,1.4298,1.4298,1.4298,1.4298,1.4298,1.4298,1.4298,1.4298,1.4298,1.4298,1.4298,1.4298,1.4298,1.4165,1.3906,1.3833,1.3568,1.3115,1.2837,1.2747,0.0,0.0,0.0,0.0,0.0,0.0,0.0249,0.0051,-0.0205,-0.0582,-0.0737,-0.0833,-0.0833,-0.0847,-0.092,-0.0883,0.0456,0.1176,0.0121,0.0839,0.2021,0.3456,0.3672,0.3737,0.3749,0.3781,0.3757,0.3582,0.3686,0.371,0.3588,0.3585,0.3585,0.3585,0.3585,0.3585,0.3585,0.3585,0.3638,0.3691,0.3818,0.4378,0.5233,0.5578,0.5935,0.6423,0.7149,0.7391,0.7335,0.8042,0.8332,0.8386,0.9034,0.9314,0.9491,0.9583,0.969,0.9776,0.9851,0.9991,1.0067,1.0513,1.0772,1.1097,1.1557,1.2023,1.2343,1.2499,1.262,1.2705,1.2705,1.2705,1.2747,1.291,1.3236,1.3483,1.3375,1.3851,1.4262,1.4153,1.422,1.4298,1.4298,1.4298,1.4298,1.4298,1.4298,1.4298,1.4298,1.4298,1.4298,1.4298,1.4298,1.4298,1.4298,1.4298,1.4298,1.4298,1.4298,1.4298,1.4298,1.4298,1.4298,1.4298,1.4298,1.422,1.4069,1.396,1.3634,1.3115,1.2837,1.2825,0.0,0.0,0.0,0.0,0.2224,0.0,0.1284,0.1127,0.0829,0.0,-0.0359,-0.0601,-0.0701,-0.0654,-0.0605,-0.0608,0.1617,0.2676,0.0694,0.2113,0.3439,0.361,0.3691,0.3705,0.3596,0.3732,0.3751,0.3591,0.3585,0.3585,0.3585,0.3585,0.3585,0.3585,0.3585,0.3585,0.3585,0.3638,0.3691,0.3796,0.3852,0.4373,0.5331,0.5529,0.5643,0.5836,0.7402,0.7562,0.6802,0.8247,0.8722,0.8571,0.8781,0.8945,0.8994,0.913,0.9422,0.9618,0.9857,1.0002,1.0254,1.0657,1.1,1.1224,1.1486,1.192,1.2318,1.2349,1.2524,1.2705,1.2705,1.2705,1.2705,1.2705,1.3097,1.3399,1.3133,1.3676,1.4141,1.3912,1.4099,1.4298,1.4298,1.4298,1.4298,1.4298,1.4298,1.4298,1.4298,1.4298,1.4298,1.4298,1.4298,1.4298,1.4298,1.4298,1.4298,1.4298,1.4298,1.4298,1.4298,1.4298,1.4298,1.4298,1.4298,1.4298,1.4298,1.4032,1.3664,1.3206,1.2922,1.3055,0.0,0.0,0.0,0.2761,0.2851,0.0,0.2569,0.1912,0.1337,0.1319,0.1114,0.0866,0.0481,0.0887,0.1269,0.1255,0.1587,0.2086,0.2776,0.2494,0.2521,0.3477,0.3607,0.361,0.3588,0.3604,0.3607,0.3585,0.3585,0.3585,0.3585,0.3585,0.3585,0.3585,0.3585,0.3585,0.3585,0.3691,0.3796,0.3796,0.4024,0.4601,0.5439,0.5064,0.5359,0.6148,0.6993,0.7163,0.699,0.8366,0.8881,0.8802,0.8912,0.9122,0.9372,0.9416,0.953,0.9738,1.0007,1.0103,1.0177,1.0673,1.1,1.1259,1.1702,1.2065,1.2361,1.2566,1.2662,1.2705,1.2705,1.2705,1.2705,1.2705,1.2958,1.3127,1.285,1.3248,1.3652,1.3598,1.3972,1.4298,1.4298,1.4298,1.4298,1.4298,1.4298,1.4298,1.4298,1.4298,1.4298,1.4298,1.4298,1.4298,1.4298,1.4298,1.4298,1.4298,1.4298,1.4298,1.4298,1.4298,1.4298,1.4298,1.4298,1.4298,1.4298,1.4032,1.3851,1.3749,1.3477,1.3417,0.3444,0.3084,0.2659,0.3011,0.3093,0.0,0.0,0.2608,0.2199,0.2392,0.2285,0.2096,0.1852,0.218,0.2518,0.267,0.2509,0.2592,0.333,0.2847,0.266,0.33,0.3403,0.34,0.34,0.3458,0.3517,0.358,0.3585,0.3585,0.3585,0.3585,0.3585,0.3585,0.3585,0.3638,0.3691,0.3744,0.3852,0.4024,0.4138,0.4507,0.4971,0.4768,0.4949,0.5529,0.6622,0.7012,0.7049,0.8447,0.8967,0.8948,0.8887,0.9025,0.9271,0.9271,0.9497,0.9799,0.999,1.0269,1.0495,1.0846,1.1236,1.1593,1.1804,1.2198,1.2536,1.2668,1.2705,1.2705,1.2705,1.2705,1.2705,1.2705,1.2922,1.3049,1.2765,1.3133,1.3513,1.3513,1.3833,1.4099,1.4099,1.4099,1.4099,1.4099,1.4099,1.4153,1.428,1.4298,1.4298,1.4298,1.4298,1.4298,1.4298,1.4298,1.4298,1.4298,1.4298,1.4298,1.4298,1.4298,1.4298,1.4298,1.4298,1.4298,1.4298,1.4165,1.4032,1.39,1.3634,1.3586,0.3373,0.3508,0.3391,0.3343,0.3273,0.3172,0.0,0.0,0.0,0.3153,0.3092,0.2949,0.2974,0.3093,0.3282,0.3456,0.3337,0.3241,0.3262,0.3159,0.3087,0.3153,0.3187,0.3227,0.3251,0.3322,0.3459,0.3507,0.3591,0.3605,0.355,0.3572,0.3585,0.3585,0.3585,0.3635,0.3796,0.3852,0.3965,0.4193,0.4249,0.4356,0.4522,0.4589,0.4793,0.5038,0.6389,0.7068,0.7341,0.8548,0.9081,0.9017,0.8894,0.8958,0.9081,0.9081,0.9346,0.9794,1.0025,1.0396,1.0769,1.1067,1.1558,1.2005,1.2059,1.2367,1.2705,1.2705,1.2705,1.2705,1.2705,1.2705,1.2705,1.2705,1.288,1.2982,1.2753,1.3049,1.3387,1.3495,1.3682,1.3863,1.3966,1.3978,1.3978,1.3978,1.3936,1.4002,1.4262,1.425,1.4244,1.4292,1.4298,1.4298,1.4298,1.4298,1.4298,1.4298,1.4298,1.4298,1.4298,1.4298,1.4298,1.4298,1.4298,1.4298,1.4298,1.4298,1.4189,1.3978,1.3761,1.3779,0.3796,0.3817,0.3701,0.3583,0.3649,0.3631,0.3293,0.0,0.3313,0.3197,0.0,0.3153,0.3178,0.0,0.0,0.3069,0.3063,0.3031,0.305,0.3035,0.3114,0.3343,0.3284,0.3259,0.3371,0.34,0.3349,0.3259,0.3467,0.3531,0.3422,0.3526,0.3585,0.3585,0.3585,0.3635,0.3796,0.391,0.4079,0.4193,0.4356,0.4463,0.4519,0.4536,0.503,0.5903,0.6657,0.7377,0.8135,0.8935,0.9274,0.9274,0.9081,0.9081,0.9274,0.9274,0.9379,0.9575,1.0101,1.0299,1.0467,1.125,1.1842,1.2312,1.2542,1.2656,1.2705,1.2705,1.2705,1.2705,1.2705,1.2705,1.2705,1.2705,1.2729,1.2741,1.2711,1.2753,1.294,1.3423,1.3538,1.3707,1.4171,1.425,1.425,1.425,1.4057,1.4002,1.4262,1.4093,1.4039,1.4268,1.4298,1.4298,1.4298,1.4298,1.4298,1.4298,1.4298,1.4298,1.4298,1.4298,1.4298,1.4298,1.4298,1.4298,1.4298,1.4298,1.428,1.425,1.422,1.4226,0.3901,0.3857,0.3767,0.3712,0.366,0.3541,0.3373,0.3224,0.3184,0.3213,0.0,0.0,0.0,0.0,0.0,0.0,0.3136,0.3166,0.3201,0.3173,0.3143,0.3259,0.3297,0.336,0.3388,0.3337,0.3243,0.3213,0.3369,0.34,0.3294,0.3411,0.3533,0.359,0.3655,0.3802,0.4024,0.4079,0.419,0.4356,0.4463,0.4519,0.4519,0.4519,0.4919,0.5624,0.6418,0.723,0.8081,0.8699,0.9128,0.9396,0.9172,0.9208,0.9414,0.9414,0.9574,0.976,1.02,1.0429,1.0665,1.1323,1.1884,1.2306,1.2264,1.2463,1.2674,1.2524,1.2584,1.2705,1.2705,1.2705,1.2705,1.2705,1.2705,1.2705,1.2705,1.2705,1.2868,1.3411,1.3513,1.3682,1.4208,1.4171,1.4069,1.4069,1.3978,1.4002,1.4262,1.4201,1.4177,1.4286,1.4298,1.4298,1.4298,1.4298,1.4298,1.4298,1.4298,1.4298,1.4298,1.4298,1.4298,1.4298,1.4298,1.4298,1.4298,1.4298,1.4298,1.4298,1.4298,1.4298,0.4024,0.4005,0.3909,0.3887,0.3667,0.3503,0.3475,0.3315,0.316,0.3257,0.3187,0.0,0.0,0.0,0.3081,0.0,0.0,0.3256,0.3315,0.3302,0.3274,0.3266,0.3358,0.3396,0.336,0.3281,0.3216,0.3161,0.33,0.332,0.3219,0.337,0.3509,0.3667,0.3787,0.3965,0.4193,0.4193,0.4301,0.4519,0.4519,0.4519,0.4519,0.4519,0.4923,0.569,0.6337,0.7155,0.8145,0.8634,0.9016,0.9358,0.9232,0.9304,0.9484,0.9484,0.9646,0.991,1.0236,1.0647,1.1105,1.1425,1.1932,1.2373,1.2107,1.2343,1.2662,1.2475,1.256,1.2705,1.2705,1.2705,1.2705,1.2705,1.2705,1.2705,1.2705,1.2705,1.2868,1.3411,1.3513,1.3682,1.4208,1.4141,1.4014,1.4014,1.3954,1.4002,1.4262,1.4238,1.422,1.4292,1.4298,1.4298,1.4298,1.4298,1.4298,1.4298,1.4298,1.4298,1.4298,1.4298,1.4298,1.4298,1.4298,1.4298,1.4298,1.4298,1.4298,1.4298,1.4298,1.4298,0.4138,0.419,0.4175,0.405,0.3866,0.3739,0.3604,0.3602,0.356,0.3419,0.3474,0.3515,0.3415,0.3263,0.0,0.0,0.0,0.0,0.0,0.3311,0.3401,0.3398,0.3419,0.337,0.3239,0.3315,0.3268,0.3046,0.3256,0.3331,0.3186,0.3425,0.3667,0.3767,0.3951,0.4079,0.4193,0.4193,0.4301,0.4519,0.4519,0.4519,0.4519,0.4519,0.5262,0.6559,0.6568,0.7386,0.8699,0.895,0.9126,0.9168,0.937,0.9478,0.9484,0.9484,0.9646,0.991,1.0236,1.1015,1.1842,1.1612,1.2059,1.2644,1.2379,1.2487,1.2699,1.2693,1.2699,1.2705,1.2705,1.2705,1.2705,1.2705,1.2705,1.2705,1.2705,1.2705,1.2868,1.3411,1.3513,1.3682,1.4208,1.4292,1.4286,1.4286,1.4069,1.4002,1.4262,1.4075,1.4014,1.4268,1.4298,1.4298,1.4298,1.4298,1.4298,1.4298,1.4298,1.4298,1.4298,1.4298,1.4298,1.4298,1.4298,1.4298,1.4298,1.4298,1.4298,1.4298,1.4298,1.4298,0.4356,0.4287,0.4194,0.4143,0.3966,0.3748,0.3608,0.3581,0.3541,0.3303,0.3394,0.3414,0.3277,0.3224,0.0,0.0,0.0,0.0,0.0,0.376,0.3987,0.3999,0.3649,0.3397,0.3441,0.3365,0.3248,0.312,0.3218,0.3234,0.3188,0.3363,0.3547,0.3783,0.3924,0.4149,0.4408,0.4408,0.4408,0.4519,0.4519,0.4519,0.4519,0.4846,0.5534,0.6368,0.6754,0.75,0.8417,0.8327,0.8603,0.912,0.898,0.9166,0.9484,0.9484,0.9646,0.9934,1.0435,1.1063,1.1618,1.1341,1.1679,1.2137,1.1878,1.2101,1.2445,1.2445,1.2572,1.2705,1.2705,1.2705,1.2705,1.2705,1.2705,1.2705,1.2705,1.2705,1.2868,1.3411,1.3513,1.3682,1.4208,1.4298,1.4298,1.4298,1.422,1.4195,1.4286,1.422,1.4201,1.4286,1.4298,1.4298,1.4298,1.4298,1.4298,1.4298,1.4298,1.4298,1.4298,1.4298,1.4298,1.4298,1.4298,1.4298,1.4298,1.4298,1.4298,1.4298,1.4298,1.4298,0.4463,0.4395,0.4297,0.4143,0.3966,0.3761,0.3667,0.361,0.3541,0.34,0.3407,0.3426,0.3286,0.3262,0.0,0.0,0.0,0.0,0.0,0.436,0.4535,0.4535,0.4052,0.3704,0.3693,0.348,0.3256,0.3116,0.321,0.3255,0.3255,0.3438,0.3626,0.3863,0.4056,0.426,0.4515,0.4519,0.4519,0.4519,0.4519,0.4519,0.4519,0.5062,0.5609,0.6209,0.6864,0.7498,0.8147,0.8069,0.8393,0.892,0.8849,0.9088,0.9484,0.9484,0.9706,1.0152,1.0677,1.1154,1.1486,1.1202,1.1546,1.2011,1.1751,1.2035,1.2451,1.2451,1.2572,1.2705,1.2705,1.2705,1.2705,1.2705,1.2705,1.2705,1.2705,1.2705,1.2837,1.329,1.3447,1.3652,1.4087,1.4238,1.4298,1.4298,1.4298,1.4298,1.4298,1.4298,1.4298,1.4298,1.4298,1.4298,1.4298,1.4298,1.4298,1.4298,1.4298,1.4298,1.4298,1.4298,1.4298,1.4298,1.4298,1.4298,1.4298,1.4298,1.4298,1.4298,1.4298,1.4298]}]]